[[{"header":{"parameterUnit":"m.s-1","parameterCategory":1,"la1":30.6,"la2":28.766,"lo1":-90.7593,"lo2":-88.6598,"dy":0.0162,"dx":0.0183,"nx":116,"ny":114,"refTime":"2023-09-24T06:00:00:Z","depth":0,"parameterNumber":2,"parameterNumberName":"U-component_of_WINDS"},"data":[0.0,0.0,0.0,0.0,0.0,0.0,0.0,0.0,0.0,0.0,0.0,0.0,0.0,0.0,0.0,0.0,0.0,0.0,0.0,0.0,0.0,0.0,0.0,0.0,0.0,0.0,0.0,0.0,0.0,0.0,0.0,0.0,0.0,0.0,0.0,0.0,0.0,0.0,0.0,0.0,0.0,0.0,0.0,0.0,0.0,0.0,0.0,0.0,0.0,0.0,0.0,0.0,0.0,0.0,0.0,0.0,0.0,0.0,0.0,0.0,0.0,0.0,0.0,0.0,0.0,0.0,0.0,0.0,0.0,0.0,0.0,0.0,0.0,0.0,0.0,0.0,0.0,0.0,0.0,0.0,0.0,0.0,0.0,0.0,0.0,0.0,0.0,0.0,0.0,0.0,0.0,0.0,0.0,0.0,0.0,0.0,0.0,0.0,0.0,0.0,0.0,0.0,0.0,0.0,0.0,0.0,0.0,0.0,0.0,0.0,0.0,0.0,0.0,0.0,0.0,0.0,0.0,0.0,0.0,0.0,0.0,0.0,0.0,0.0,0.0,0.0,0.0,0.0,0.0,0.0,0.0,0.0,0.0,0.0,0.0,0.0,0.0,0.0,0.0,0.0,0.0,0.0,0.0,0.0,0.0,0.0,0.0,0.0,0.0,0.0,0.0,0.0,0.0,0.0,0.0,0.0,0.0,0.0,0.0,0.0,0.0,0.0,0.0,0.0,0.0,0.0,0.0,0.0,0.0,0.0,0.0,0.0,0.0,0.0,0.0,0.0,0.0,0.0,0.0,0.0,0.0,0.0,0.0,0.0,0.0,0.0,0.0,0.0,0.0,0.0,0.0,0.0,0.0,0.0,0.0,0.0,0.0,0.0,0.0,0.0,0.0,0.0,0.0,0.0,0.0,0.0,0.0,0.0,0.0,0.0,0.0,0.0,0.0,0.0,0.0,0.0,0.0,0.0,0.0,0.0,0.0,0.0,0.0,0.0,0.0,0.0,0.0,0.0,0.0,0.0,0.0,0.0,0.0,0.0,0.0,0.0,0.0,0.0,0.0,0.0,0.0,0.0,0.0,0.0,0.0,0.0,0.0,0.0,0.0,0.0,0.0,0.0,0.0,0.0,0.0,0.0,0.0,0.0,0.0,0.0,0.0,0.0,0.0,0.0,0.0,0.0,0.0,0.0,0.0,0.0,0.0,0.0,0.0,0.0,0.0,0.0,0.0,0.0,0.0,0.0,0.0,0.0,0.0,0.0,0.0,0.0,0.0,0.0,0.0,0.0,0.0,0.0,0.0,0.0,0.0,0.0,0.0,0.0,0.0,0.0,0.0,0.0,0.0,0.0,0.0,0.0,0.0,0.0,0.0,0.0,0.0,0.0,0.0,0.0,0.0,0.0,0.0,0.0,0.0,0.0,0.0,0.0,0.0,0.0,0.0,0.0,0.0,0.0,0.0,0.0,0.0,0.0,0.0,0.0,0.0,0.0,0.0,0.0,0.0,0.0,0.0,0.0,0.0,0.0,0.0,0.0,0.0,0.0,0.0,0.0,0.0,0.0,0.0,0.0,0.0,0.0,0.0,0.0,0.0,0.0,0.0,0.0,0.0,0.0,0.0,0.0,0.0,0.0,0.0,0.0,0.0,0.0,0.0,0.0,0.0,0.0,0.0,0.0,0.0,0.0,0.0,0.0,0.0,0.0,0.0,0.0,0.0,0.0,0.0,0.0,0.0,0.0,0.0,0.0,0.0,0.0,0.0,0.0,0.0,0.0,0.0,0.0,0.0,0.0,0.0,0.0,0.0,0.0,0.0,0.0,0.0,0.0,0.0,0.0,0.0,0.0,0.0,0.0,0.0,0.0,0.0,0.0,0.0,0.0,0.0,0.0,0.0,0.0,0.0,0.0,0.0,0.0,0.0,0.0,0.0,0.0,0.0,0.0,0.0,0.0,0.0,0.0,0.0,0.0,0.0,0.0,0.0,0.0,0.0,0.0,0.0,0.0,0.0,0.0,0.0,0.0,0.0,0.0,0.0,0.0,0.0,0.0,0.0,0.0,0.0,0.0,0.0,0.0,0.0,0.0,0.0,0.0,0.0,0.0,0.0,0.0,0.0,0.0,0.0,0.0,0.0,0.0,0.0,0.0,0.0,0.0,0.0,0.0,0.0,0.0,0.0,0.0,0.0,0.0,0.0,0.0,0.0,0.0,0.0,0.0,0.0,0.0,0.0,0.0,0.0,0.0,0.0,0.0,0.0,0.0,0.0,0.0,0.0,0.0,0.0,0.0,0.0,0.0,0.0,0.0,0.0,0.0,0.0,0.0,0.0,0.0,0.0,0.0,0.0,0.0,0.0,0.0,0.0,0.0,0.0,0.0,0.0,0.0,0.0,0.0,0.0,0.0,0.0,0.0,0.0,0.0,0.0,0.0,0.0,0.0,0.0,0.0,0.0,0.0,0.0,0.0,0.0,0.0,0.0,0.0,0.0,0.0,0.0,0.0,0.0,0.0,0.0,0.0,0.0,0.0,0.0,0.0,0.0,0.0,0.0,0.0,0.0,0.0,0.0,0.0,0.0,0.0,0.0,0.0,0.0,0.0,0.0,0.0,0.0,0.0,0.0,0.0,0.0,0.0,0.0,0.0,0.0,0.0,0.0,0.0,0.0,0.0,0.0,0.0,0.0,0.0,0.0,0.0,0.0,0.0,0.0,0.0,0.0,0.0,0.0,0.0,0.0,0.0,0.0,0.0,0.0,0.0,0.0,0.0,0.0,0.0,0.0,0.0,0.0,0.0,0.0,0.0,0.0,0.0,0.0,0.0,0.0,0.0,0.0,0.0,0.0,0.0,0.0,0.0,0.0,0.0,0.0,0.0,0.0,0.0,0.0,0.0,0.0,0.0,0.0,0.0,0.0,0.0,0.0,0.0,0.0,0.0,0.0,0.0,0.0,0.0,0.0,0.0,0.0,0.0,0.0,0.0,0.0,0.0,0.0,0.0,0.0,0.0,0.0,0.0,0.0,0.0,0.0,0.0,0.0,0.0,0.0,0.0,0.0,0.0,0.0,0.0,0.0,0.0,0.0,0.0,0.0,0.0,0.0,0.0,0.0,0.0,0.0,0.0,0.0,0.0,0.0,0.0,0.0,0.0,0.0,0.0,0.0,0.0,0.0,0.0,0.0,0.0,0.0,0.0,0.0,0.0,0.0,0.0,0.0,0.0,0.0,0.0,0.0,0.0,0.0,0.0,0.0,0.0,0.0,0.0,0.0,0.0,0.0,0.0,0.0,0.0,0.0,0.0,0.0,0.0,0.0,0.0,0.0,0.0,0.0,0.0,0.0,0.0,0.0,0.0,0.0,0.0,0.0,0.0,0.0,0.0,0.0,0.0,0.0,0.0,0.0,0.0,0.0,0.0,0.0,0.0,0.0,0.0,0.0,0.0,0.0,0.0,0.0,0.0,0.0,0.0,0.0,0.0,0.0,0.0,0.0,0.0,0.0,0.0,0.0,0.0,0.0,0.0,0.0,0.0,0.0,0.0,0.0,0.0,0.0,0.0,0.0,0.0,0.0,0.0,0.0,0.0,0.0,0.0,0.0,0.0,0.0,0.0,0.0,0.0,0.0,0.0,0.0,0.0,0.0,0.0,0.0,0.0,0.0,0.0,0.0,0.0,0.0,0.0,0.0,0.0,0.0,0.0,0.0,0.0,0.0,0.0,0.0,0.0,0.0,0.0,0.0,0.0,0.0,0.0,0.0,0.0,0.0,0.0,0.0,0.0,0.0,0.0,0.0,0.0,0.0,0.0,0.0,0.0,0.0,0.0,0.0,0.0,0.0,0.0,0.0,0.0,0.0,0.0,0.0,0.0,0.0,0.0,0.0,0.0,0.0,0.0,0.0,0.0,0.0,0.0,0.0,0.0,0.0,0.0,0.0,0.0,0.0,0.0,0.0,0.0,0.0,0.0,0.0,0.0,0.0,0.0,0.0,0.0,0.0,0.0,0.0,0.0,0.0,0.0,0.0,0.0,0.0,0.0,0.0,0.0,0.0,0.0,0.0,0.0,0.0,0.0,0.0,0.0,0.0,0.0,0.0,0.0,0.0,0.0,0.0,0.0,0.0,0.0,0.0,0.0,0.0,0.0,0.0,0.0,0.0,0.0,0.0,0.0,0.0,0.0,0.0,0.0,0.0,0.0,0.0,0.0,0.0,0.0,0.0,0.0,0.0,0.0,0.0,0.0,0.0,0.0,0.0,0.0,0.0,0.0,0.0,0.0,0.0,0.0,0.0,0.0,0.0,0.0,0.0,0.0,0.0,0.0,0.0,0.0,0.0,0.0,0.0,0.0,0.0,0.0,0.0,0.0,0.0,0.0,0.0,0.0,0.0,0.0,0.0,0.0,0.0,0.0,0.0,0.0,0.0,0.0,0.0,0.0,0.0,0.0,0.0,0.0,0.0,0.0,0.0,0.0,0.0,0.0,0.0,0.0,0.0,0.0,0.0,0.0,0.0,0.0,0.0,0.0,0.0,0.0,0.0,0.0,0.0,0.0,0.0,0.0,0.0,0.0,0.0,0.0,0.0,0.0,0.0,0.0,0.0,0.0,0.0,0.0,0.0,0.0,0.0,0.0,0.0,0.0,0.0,0.0,0.0,0.0,0.0,0.0,0.0,0.0,0.0,0.0,0.0,0.0,0.0,0.0,0.0,0.0,0.0,0.0,0.0,0.0,0.0,0.0,0.0,0.0,0.0,0.0,0.0,0.0,0.0,0.0,0.0,0.0,0.0,0.0,0.0,0.0,0.0,0.0,0.0,0.0,0.0,0.0,0.0,0.0,0.0,0.0,0.0,0.0,0.0,0.0,0.0,0.0,0.0,0.0,0.0,0.0,0.0,0.0,0.0,0.0,0.0,0.0,0.0,0.0,0.0,0.0,0.0,0.0,0.0,0.0,0.0,0.0,0.0,0.0,0.0,0.0,0.0,0.0,0.0,0.0,0.0,0.0,0.0,0.0,0.0,0.0,0.0,0.0,0.0,0.0,0.0,0.0,0.0,0.0,0.0,0.0,0.0,0.0,0.0,0.0,0.0,0.0,0.0,0.0,0.0,0.0,0.0,0.0,0.0,0.0,0.0,0.0,0.0,0.0,0.0,0.0,0.0,0.0,0.0,0.0,0.0,0.0,0.0,0.0,0.0,0.0,0.0,0.0,0.0,0.0,0.0,0.0,0.0,0.0,0.0,0.0,0.0,0.0,0.0,0.0,0.0,0.0,0.0,0.0,0.0,0.0,0.0,0.0,0.0,0.0,0.0,0.0,0.0,0.0,0.0,0.0,0.0,0.0,0.0,0.0,0.0,0.0,0.0,0.0,0.0,0.0,0.0,0.0,0.0,0.0,0.0,0.0,0.0,0.0,0.0,0.0,0.0,0.0,0.0,0.0,0.0,0.0,0.0,0.0,0.0,0.0,0.0,0.0,0.0,0.0,0.0,0.0,0.0,0.0,0.0,0.0,0.0,0.0,0.0,0.0,0.0,0.0,0.0,0.0,0.0,0.0,0.0,0.0,0.0,0.0,0.0,0.0,0.0,0.0,0.0,0.0,0.0,0.0,0.0,0.0,0.0,0.0,0.0,0.0,0.0,0.0,0.0,0.0,0.0,0.0,0.0,0.0,0.0,0.0,0.0,0.0,0.0,0.0,0.0,0.0,0.0,0.0,0.0,0.0,0.0,0.0,0.0,0.0,0.0,0.0,0.0,0.0,0.0,0.0,0.0,0.0,0.0,0.0,0.0,0.0,0.0,0.0,0.0,0.0,0.0,0.0,0.0,0.0,0.0,0.0,0.0,0.0,0.0,0.0,0.0,0.0,0.0,0.0,0.0,0.0,0.0,0.0,0.0,0.0,0.0,0.0,0.0,0.0,0.0,0.0,0.0,0.0,0.0,0.0,0.0,0.0,0.0,0.0,0.0,0.0,0.0,0.0,0.0,0.0,0.0,0.0,0.0,0.0,0.0,0.0,0.0,0.0,0.0,0.0,0.0,0.0,0.0,0.0,0.0,0.0,0.0,0.0,0.0,0.0,0.0,0.0,0.0,0.0,0.0,0.0,0.0,0.0,0.0,0.0,1.1847,1.1741,0.0,0.0,0.0,0.0,0.0,0.0,0.0,0.0,0.0,0.0,0.0,0.0,0.0,0.0,0.0,0.0,0.0,0.0,0.0,0.0,0.0,0.0,0.0,0.0,0.0,0.0,0.0,0.0,0.0,0.0,0.0,0.0,0.0,0.0,0.0,0.0,0.0,0.0,0.7994,0.8101,0.8166,0.8067,0.8739,1.0048,0.0,0.0,0.0,0.0,0.0,0.0,0.0,0.0,0.0,0.0,0.0,0.0,0.0,0.0,0.0,0.0,0.0,0.0,0.0,0.0,0.0,0.0,0.0,0.0,0.0,0.0,0.0,0.0,0.0,0.0,0.0,0.0,0.0,0.0,0.0,0.0,0.0,0.0,0.0,0.0,0.0,0.0,0.0,0.0,0.0,0.0,0.0,0.0,0.0,0.0,0.0,0.0,0.0,0.0,0.0,0.0,0.0,0.0,0.0,0.0,0.0,0.0,0.0,0.0,0.0,0.0,0.0,0.0,0.0,0.0,1.3162,1.2913,0.0,0.0,0.0,0.0,0.0,0.0,0.0,0.0,0.0,0.0,0.0,0.0,0.0,0.0,0.0,0.0,0.0,0.0,0.0,0.0,0.0,0.0,0.0,0.0,0.499,0.4752,0.5047,0.5168,0.0,0.0,0.0,0.0,0.0,0.0,0.0,0.0,0.0,0.0,0.7626,0.7268,0.6089,0.5629,0.6607,0.8822,1.0636,0.0,0.0,0.0,0.0,0.0,0.0,0.0,0.0,0.0,0.0,0.0,0.0,0.0,0.0,0.0,0.0,0.0,0.0,0.0,0.0,0.0,0.0,0.0,0.0,0.0,0.0,0.0,0.0,0.0,0.0,0.0,0.0,0.0,0.0,0.0,0.0,0.0,0.0,0.0,0.0,0.0,0.0,0.0,0.0,0.0,0.0,0.0,0.0,0.0,0.0,0.0,0.0,0.0,0.0,0.0,0.0,0.0,0.0,0.0,0.0,0.0,0.0,0.0,1.0734,1.1478,1.2716,1.282,1.3174,1.3709,1.4594,1.4394,1.3435,1.3876,0.0,0.0,0.0,0.0,0.0,0.0,0.0,0.0,0.0,0.0,0.0,0.0,0.0,0.0,0.0,0.0,0.0,0.0,0.0,0.0,0.0,0.491,0.4983,0.4883,0.4971,0.5239,0.0,0.0,0.0,0.0,0.0,0.0,0.0,0.5734,0.6373,0.7513,0.8496,0.7744,0.531,0.4287,0.4097,0.4691,0.6955,0.8999,1.0674,0.0,0.0,0.0,0.0,0.0,0.0,0.0,0.0,0.0,0.0,0.0,0.0,0.0,0.0,0.0,0.0,0.0,0.0,0.0,0.0,0.0,0.0,0.0,0.0,0.0,0.0,0.0,0.0,0.0,0.0,0.0,0.0,0.0,0.0,0.0,0.0,0.0,0.0,0.0,0.0,0.0,0.7697,0.7785,0.0,0.0,0.0,0.0,0.0,0.0,0.0,0.0,0.0,0.0,0.0,0.0,0.0,1.0337,1.0292,1.0975,1.1909,1.3043,1.3131,1.3299,1.3565,1.4084,1.4031,1.359,1.4813,0.0,1.383,1.3894,0.0,0.0,0.0,0.0,0.0,0.0,0.0,0.0,0.0,0.0,0.0,0.0,0.0,0.0,0.0,0.0,0.0,0.0,0.0,0.0,0.0,0.3475,0.3425,0.3122,0.3132,0.36,0.4645,0.4923,0.0,0.0,0.0,0.0,0.6257,0.6484,0.6368,0.5865,0.6223,0.515,0.2785,0.2264,0.2276,0.2744,0.4256,0.7034,1.0608,1.1466,0.0,0.0,0.0,0.0,0.0,0.0,0.0,0.0,0.0,0.0,0.0,0.0,0.0,0.0,0.0,0.0,0.0,0.0,0.0,0.0,0.0,0.0,0.0,0.0,0.0,0.0,0.0,0.0,0.0,0.0,0.0,0.0,0.0,0.0,0.0,0.0,0.0,0.0,0.0,0.8159,0.7702,0.8605,0.8403,0.8307,0.0,0.0,0.0,0.0,0.0,0.0,0.0,0.0,0.0,0.9653,1.0312,1.0556,1.0313,1.0974,1.1798,1.278,1.2796,1.315,1.382,1.4105,1.4157,1.4087,1.4712,1.4775,1.4409,1.5239,1.5193,1.4624,0.0,0.0,0.0,0.0,1.4107,1.3934,0.0,0.0,0.0,0.0,0.0,0.0,0.0,0.0,0.0,0.0,0.0,0.0,0.2168,0.2114,0.1987,0.1677,0.1711,0.2373,0.3834,0.4212,0.0,0.0,0.0,0.6593,0.6745,0.6676,0.6232,0.5434,0.3418,0.1593,-0.0031,0.0217,0.0617,0.1138,0.1724,0.4535,0.8996,1.062,1.1041,1.0564,0.0,0.0,0.0,0.0,0.0,0.0,0.0,0.0,0.0,0.0,0.0,0.0,0.0,0.0,0.0,0.0,0.0,0.0,0.0,0.0,0.0,0.0,0.0,0.0,0.0,0.0,0.0,0.0,0.0,0.0,0.0,0.0,0.0,0.0,0.0,0.0,0.0,0.7937,0.7508,0.9066,0.8438,0.8078,0.0,0.0,0.0,0.0,0.0,0.0,0.9671,0.9865,0.9963,0.9936,1.0558,1.0658,1.0222,1.0815,1.1441,1.2137,1.2137,1.2747,1.3877,1.3877,1.4095,1.4501,1.4739,1.4844,1.4941,1.5868,1.575,1.5006,1.5371,1.5054,1.4491,1.5288,1.5538,1.5616,0.0,0.0,0.0,0.0,0.0,0.0,0.0,0.0,0.0,0.0,0.0,0.1586,0.1543,0.1441,0.1398,0.1501,0.1734,0.2569,0.4166,0.465,0.5183,0.5895,0.6173,0.649,0.6879,0.5354,0.566,0.7935,0.1022,-0.2413,-0.2489,-0.1596,-0.1035,-0.077,-0.0999,0.0897,0.4199,0.3477,0.4715,0.7279,0.8866,0.0,0.0,0.0,0.0,0.0,0.0,0.0,0.0,0.0,0.0,0.0,0.0,0.0,0.0,0.0,0.0,0.0,0.0,0.0,0.0,0.0,0.0,0.0,0.0,0.0,0.0,0.0,0.0,0.0,0.0,0.0,0.0,0.0,0.0,0.0,0.0,0.0,0.0,0.8138,0.7551,0.0,0.0,0.0,0.0,0.806,0.8558,0.919,0.9942,1.0469,1.068,1.0576,1.09,1.093,1.0576,1.0925,1.1425,1.202,1.202,1.2634,1.3821,1.3821,1.4068,1.4529,1.5043,1.5277,1.5233,1.4744,1.5522,1.6916,1.5704,1.5871,1.6831,1.6884,1.673,1.661,0.0,0.0,0.0,0.0,0.0,0.0,0.0,0.0,-0.0146,-0.0174,-0.0018,0.0041,-0.0092,-0.0924,-0.142,-0.129,-0.1649,-0.1003,0.107,0.2241,0.3539,0.5127,0.6104,0.6877,0.7415,0.6994,0.4924,0.1157,-0.1428,-0.2713,-0.2702,-0.2355,-0.2164,-0.2083,-0.2347,-0.1766,-0.0536,0.0491,0.2464,0.4791,0.3371,0.5289,0.0,0.0,0.0,0.0,0.0,0.0,0.0,0.0,0.0,0.0,0.0,0.0,0.0,0.0,0.0,0.0,0.0,0.0,0.0,0.0,0.0,0.0,0.0,0.0,0.0,0.0,0.0,0.0,0.0,0.0,0.0,0.0,0.0,0.0,0.0,0.0,0.0,0.8014,0.7549,0.0,0.7576,0.795,0.8103,0.8013,0.8365,0.8717,0.902,0.9267,0.9377,0.9297,0.9462,0.9643,0.9817,0.9953,1.0267,1.0801,1.111,1.1507,1.1964,1.2342,1.277,1.318,1.3724,1.4108,1.4385,1.4184,1.4692,1.5536,1.5066,1.4969,1.5228,1.6056,1.6528,1.6955,0.0,0.0,0.0,0.0,0.0,0.0,0.0,0.0,-0.0055,-0.087,-0.1144,-0.1418,-0.1775,-0.2807,-0.3363,-0.3125,-0.3499,-0.2779,-0.0421,0.0809,0.2459,0.4674,0.5512,0.5812,0.5613,0.5764,0.3195,-0.2227,-0.2542,-0.2725,-0.2808,-0.2772,-0.2809,-0.2823,-0.3024,-0.3105,-0.3011,-0.1679,0.0288,0.234,0.0237,0.2372,0.6797,0.0,0.0,0.0,0.0,0.0,0.0,0.0,0.0,0.0,0.0,0.0,0.0,0.0,0.0,0.0,0.0,0.0,0.0,0.0,0.0,0.0,0.0,0.0,0.0,0.0,0.0,0.0,0.0,0.0,0.0,0.0,0.0,0.0,0.0,0.7111,0.6748,0.7862,0.713,0.6803,0.7417,0.7595,0.7758,0.8087,0.827,0.842,0.854,0.8685,0.8725,0.8635,0.8487,0.8553,0.885,0.8665,0.872,0.9011,0.946,0.9825,1.0108,1.0891,1.158,1.2189,1.3062,1.3625,1.3894,1.4105,1.4385,1.4724,1.4681,1.4593,1.4699,1.5912,1.6604,1.7151,0.0,0.0,0.0,0.0,0.0,0.0,0.0,0.0429,-0.0505,-0.1724,-0.2182,-0.2652,-0.3342,-0.4018,-0.4238,-0.379,-0.3499,-0.2348,-0.0048,0.0658,0.2067,0.4525,0.4291,0.3253,0.1492,0.1351,0.0426,-0.1345,-0.2246,-0.2784,-0.2978,-0.2943,-0.2985,-0.3075,-0.3085,-0.3092,-0.3137,-0.3275,-0.2066,-0.0108,-0.0087,0.1183,0.3378,0.0,0.0,0.0,0.0,0.0,0.0,0.0,0.0,0.0,0.0,0.0,0.0,0.0,0.0,0.0,0.0,0.0,0.0,0.0,0.0,0.0,0.0,0.0,0.0,0.0,0.0,0.0,0.0,0.0,0.0,0.0,0.0,0.0,0.8597,0.6884,0.6145,0.7591,0.6308,0.5691,0.6679,0.6538,0.6896,0.8158,0.8298,0.841,0.8635,0.8895,0.8919,0.8651,0.8072,0.7769,0.7721,0.7148,0.6851,0.6864,0.7054,0.7588,0.8456,0.9632,1.0661,1.1652,1.314,1.385,1.3938,1.4462,1.4742,1.4773,1.4673,1.493,1.5559,1.6699,1.707,1.7296,0.0,0.0,0.0,0.0,0.0,0.0,0.0,0.0822,0.0287,-0.1253,-0.1927,-0.2685,-0.3848,-0.4412,-0.4731,-0.4782,-0.4224,-0.3295,-0.1909,-0.0372,0.1294,0.3103,0.225,0.1267,0.0298,-0.0706,-0.165,-0.2546,-0.2635,-0.2726,-0.2781,-0.2856,-0.293,-0.2974,-0.3152,-0.3306,-0.3463,-0.3667,-0.3312,-0.2592,-0.2294,-0.1314,0.0118,0.0,0.0,0.0,0.0,0.0,0.0,0.0,0.0,0.0,0.0,0.0,0.0,0.0,0.0,0.0,0.0,0.0,0.0,0.0,0.0,0.0,0.0,0.0,0.0,0.0,0.0,0.0,0.0,0.0,0.0,0.0,0.7154,0.6387,0.6379,0.6442,0.6445,0.635,0.5659,0.5336,0.5786,0.629,0.6595,0.6761,0.7756,0.8226,0.7852,0.7902,0.7628,0.6901,0.7117,0.6969,0.6427,0.5951,0.5748,0.5721,0.5657,0.5818,0.6235,0.8123,0.9512,1.0549,1.1518,1.2649,1.3822,1.3996,1.4299,1.472,1.473,1.5106,1.5761,1.6837,1.7955,1.9031,0.0,0.0,0.0,0.0,0.0,0.0,0.0,0.0489,-0.036,-0.1524,-0.243,-0.3309,-0.4234,-0.471,-0.4907,-0.4764,-0.3977,-0.3048,-0.196,-0.0385,0.0703,0.1119,0.0374,-0.0423,-0.1228,-0.2173,-0.2821,-0.3123,-0.3211,-0.328,-0.3314,-0.3423,-0.3553,-0.3746,-0.3704,-0.3829,-0.4085,-0.4302,-0.4416,-0.4441,-0.4376,-0.2866,-0.0539,0.0173,0.1522,0.3163,0.4285,0.4703,0.5121,0.7729,0.0,0.0,0.0,0.0,0.0,0.0,0.0,0.0,0.0,0.0,0.0,0.0,0.0,0.0,0.0,0.0,0.0,0.0,0.0,0.0,0.0,0.0,0.0,0.0,0.7547,0.6493,0.575,0.5802,0.5815,0.5561,0.5371,0.5424,0.5914,0.6551,0.6878,0.6934,0.7835,0.8158,0.7547,0.7589,0.6997,0.557,0.549,0.5056,0.4289,0.371,0.3562,0.385,0.3997,0.4327,0.4906,0.7144,0.856,0.9448,1.0845,1.2177,1.3416,1.3674,1.4318,1.5073,0.0,0.0,0.0,0.0,1.7559,1.9325,0.0,0.0,0.0,0.0,0.0,0.0,0.0,-0.0265,-0.1674,-0.2231,-0.3243,-0.4068,-0.4492,-0.4886,-0.4863,-0.4232,-0.34,-0.2377,-0.1188,-0.008,0.004,-0.0997,-0.1241,-0.1801,-0.2777,-0.3129,-0.3331,-0.3411,-0.3817,-0.4056,-0.4167,-0.4216,-0.448,-0.4868,-0.45,-0.4533,-0.4858,-0.514,-0.5435,-0.571,-0.6064,-0.3846,-0.0344,-0.0307,0.0586,0.1895,0.2144,0.2553,0.304,0.3474,0.0,0.0,0.0,0.0,0.0,0.0,0.0,0.0,0.0,0.0,0.0,0.0,0.0,0.0,0.0,0.0,0.0,0.0,0.0,0.0,0.0,0.0,0.0,0.0,0.8165,0.7542,0.6119,0.525,0.4867,0.5124,0.5338,0.5751,0.6499,0.7004,0.7448,0.7804,0.8174,0.8185,0.7641,0.7829,0.0,0.0,0.0,0.2637,0.1749,0.1457,0.1568,0.209,0.267,0.3393,0.4321,0.642,0.7692,0.8357,1.049,1.1935,1.287,1.3416,1.4446,1.5632,1.5752,1.5242,1.452,1.4904,1.6742,1.8881,0.0,0.0,0.0,0.0,0.0,0.0,0.0,-0.0662,-0.1653,-0.2772,-0.3177,-0.3726,-0.4721,-0.4615,-0.4536,-0.4728,-0.4329,-0.3603,-0.2501,-0.1668,-0.1444,-0.192,-0.2195,-0.2641,-0.3342,-0.3314,-0.3551,-0.4031,-0.4019,-0.4014,-0.4059,-0.4372,-0.4578,-0.4688,-0.5178,-0.5558,-0.578,-0.6047,-0.6192,-0.6248,-0.6345,-0.5524,-0.4184,-0.3688,-0.2898,-0.1995,-0.1913,-0.1154,-0.0,0.14,0.1076,0.0196,0.0979,0.2695,0.0,0.0,0.0,0.0,0.0,0.0,0.0,0.0,0.0,0.0,0.0,0.0,0.0,0.0,0.0,0.0,0.0,0.0,0.0,0.7968,0.6672,0.567,0.635,0.581,0.5342,0.5429,0.5467,0.5694,0.6219,0.6899,0.7324,0.7422,0.803,0.8373,0.8252,0.8257,0.6965,0.3973,0.2453,0.1178,0.0052,0.2525,0.3862,0.3975,0.4087,0.0,0.4497,0.5458,0.6577,0.7798,0.8847,1.0655,1.2812,1.2918,1.4043,1.5664,1.6617,1.7113,1.7314,1.7292,1.8252,1.9441,0.0,0.0,0.0,0.0,0.0,0.0,0.0,-0.1469,-0.2398,-0.2526,-0.3361,-0.3896,-0.3712,-0.3698,-0.372,-0.374,-0.3377,-0.2966,-0.2524,-0.2252,-0.2322,-0.2825,-0.2977,-0.3185,-0.3481,-0.3609,-0.3852,-0.431,-0.4376,-0.4479,-0.464,-0.4858,-0.5109,-0.5421,-0.573,-0.607,-0.6476,-0.7228,-0.735,-0.7106,-0.7817,-0.7467,-0.6349,-0.5115,-0.4164,-0.3458,-0.3548,-0.3064,-0.2286,-0.1863,-0.2395,-0.3237,-0.3104,-0.1374,0.0781,0.0,0.0,0.0,0.0,0.0,0.0,0.0,0.0,0.0,0.0,0.0,0.0,0.0,0.0,0.665,0.722,0.0,0.6507,0.8085,0.684,0.602,0.6988,0.6524,0.5923,0.5542,0.614,0.6648,0.6735,0.7556,0.7948,0.7623,0.8215,0.8524,0.8383,0.8427,0.7232,0.4703,0.3545,0.1949,-0.0162,0.1433,0.3018,0.4504,0.4522,0.4518,0.4532,0.5167,0.6077,0.7149,0.8258,1.0038,1.2308,1.3338,1.4481,1.5708,1.6802,1.7599,1.8074,1.7648,1.8423,1.9585,0.0,0.0,0.0,0.0,0.0,0.0,0.0,-0.2318,-0.308,-0.2243,-0.3434,-0.3939,-0.2794,-0.2736,-0.2736,-0.2631,-0.2304,-0.2246,-0.2583,-0.2674,-0.3017,-0.3694,-0.3677,-0.3696,-0.3758,-0.4104,-0.4364,-0.4563,-0.4862,-0.5164,-0.5404,-0.5458,-0.5847,-0.6474,-0.6463,-0.6767,-0.7298,-0.8387,-0.8474,-0.7982,-0.911,-0.8803,-0.7482,-0.5898,-0.4839,-0.4252,-0.4312,-0.3953,-0.361,-0.466,-0.5317,-0.5968,-0.7169,-0.5533,-0.2875,-0.1253,0.1124,0.0,0.0,0.0,0.0,0.0,0.0,0.0,0.0,0.7444,0.7409,0.7463,0.7433,0.7485,0.7708,0.7247,0.7121,0.816,0.7338,0.6858,0.7616,0.7143,0.6518,0.5918,0.6929,0.7676,0.7524,0.8268,0.8524,0.8049,0.8457,0.8617,0.8434,0.843,0.759,0.5685,0.5686,0.4097,0.0762,0.1381,0.2841,0.5045,0.4812,0.475,0.4916,0.5332,0.5982,0.6907,0.8317,0.9908,1.1661,1.3575,1.4675,1.5353,1.6553,1.7315,1.7757,1.7491,1.8367,1.9585,0.0,0.0,0.0,0.0,0.0,0.0,0.0,0.0,-0.288,-0.2655,-0.296,-0.3221,-0.3286,-0.2271,-0.1888,-0.2627,-0.2746,-0.315,-0.4007,-0.3699,-0.3798,-0.4538,-0.4329,-0.4356,-0.4654,-0.5046,-0.5192,-0.5118,-0.5546,-0.5791,-0.5828,-0.6083,-0.6655,-0.7448,-0.8,-0.8472,-0.8849,-0.9227,-0.9073,-0.8616,-0.8758,-0.8317,-0.7516,-0.6843,-0.6259,-0.5686,-0.4969,-0.3931,-0.3169,-0.5067,-0.5453,-0.5664,-0.8311,-0.6892,-0.4148,-0.3682,-0.0137,0.4144,0.6492,0.8261,0.9408,0.9312,0.9883,0.9949,0.0,0.8049,0.8044,0.6677,0.6379,0.6389,0.6557,0.6537,0.6746,0.7623,0.7106,0.6858,0.7616,0.7419,0.7178,0.7127,0.7477,0.7834,0.8246,0.8404,0.8397,0.833,0.8383,0.841,0.8427,0.8617,0.7939,0.6112,0.8345,0.7588,0.3439,0.625,0.7498,0.7074,0.5941,0.571,0.6317,0.5764,0.6249,0.7664,0.9079,1.0159,1.1007,1.2425,1.3406,1.4179,1.5847,1.6549,1.6767,1.805,1.9026,1.9585,0.0,0.0,0.0,0.0,0.0,0.0,0.0,0.0,0.0,0.0,-0.2883,-0.3205,-0.2541,-0.1896,-0.1755,-0.2354,-0.2391,-0.2837,-0.393,-0.3749,-0.3998,-0.4886,-0.4518,-0.4358,-0.4514,-0.4683,-0.4941,-0.5319,-0.5514,-0.5818,-0.6244,-0.6364,-0.6835,-0.7627,-0.8016,-0.8553,-0.915,-0.986,-0.9565,-0.8749,-0.952,-0.9028,-0.7885,-0.7706,-0.7291,-0.6578,-0.4253,-0.2849,0.0,-0.3635,-0.3952,-0.4321,-0.7103,-0.5932,-0.3461,-0.3111,0.0261,0.4151,0.5462,0.7796,0.9347,0.7128,0.7744,0.8572,0.725,0.7409,0.7643,0.7002,0.6985,0.696,0.6591,0.6501,0.6797,0.7593,0.745,0.7509,0.8209,0.8133,0.7847,0.7683,0.7461,0.7375,0.7348,0.7817,0.7811,0.7063,0.746,0.7617,0.7344,0.7452,0.7717,0.8132,0.9112,0.9048,0.7813,0.8969,0.9119,0.8159,0.7191,0.687,0.7149,0.6465,0.6945,0.8383,0.9791,1.0762,1.1466,1.2433,1.3208,1.3956,1.5351,1.6108,1.6608,1.8224,1.8788,1.8812,0.0,0.0,0.0,0.0,0.0,0.0,0.0,0.0,0.0,0.0,-0.2743,-0.3056,-0.2091,-0.189,-0.1896,-0.2073,-0.2099,-0.2534,-0.3533,-0.3745,-0.4209,-0.5058,-0.4867,-0.4736,-0.4736,-0.4845,-0.5072,-0.543,-0.5557,-0.5882,-0.6421,-0.6574,-0.7072,-0.7897,-0.8255,-0.8785,-0.9453,-1.0164,-0.9874,-0.8999,-0.99,-0.9452,-0.8234,-0.8137,-0.7407,-0.6069,-0.3394,-0.1959,-0.1415,-0.1726,-0.1472,-0.1527,-0.4445,-0.3729,-0.1703,-0.1228,0.1961,0.549,0.6189,0.7994,0.8953,0.5799,0.6396,0.7578,0.6872,0.7212,0.7716,0.7719,0.7705,0.7616,0.7289,0.6858,0.6858,0.7563,0.7723,0.7859,0.8325,0.8329,0.8136,0.7836,0.7257,0.6683,0.6234,0.6945,0.7098,0.6363,0.679,0.6875,0.645,0.6737,0.7688,0.9437,0.9782,1.0319,1.1254,1.1208,1.0708,0.9817,0.8865,0.8573,0.8736,0.8041,0.8212,0.9051,1.0297,1.1065,1.1566,1.2491,1.3218,1.3956,1.525,1.6009,1.6591,1.8274,1.8574,1.8263,0.0,0.0,0.0,0.0,0.0,0.0,0.0,0.0,0.0,0.0,0.0,0.0,0.0,-0.2413,-0.2224,-0.1848,-0.2164,-0.2602,-0.3081,-0.3908,-0.4594,-0.5078,-0.5582,-0.5845,-0.5845,-0.6242,-0.6128,-0.5508,-0.5956,-0.6197,-0.6225,-0.6726,-0.7559,-0.8583,-0.9201,-0.9734,-1.0154,-1.0211,-0.995,-0.9478,-0.9451,-0.91,-0.8543,-0.8018,-0.6103,-0.3606,-0.2781,-0.1644,-0.041,0.0331,0.197,0.3119,-0.0234,-0.0229,0.1114,0.1763,0.5178,0.8883,0.9427,0.9504,0.8965,0.7108,0.7255,0.7819,0.7548,0.8146,0.8732,0.8738,0.8203,0.7937,0.8586,0.7563,0.6858,0.7563,0.7723,0.7635,0.7388,0.7683,0.7829,0.756,0.6749,0.5927,0.5213,0.5808,0.6455,0.7044,0.6684,0.6314,0.601,0.7086,0.8151,0.9268,1.0795,1.1987,1.2715,1.3307,1.3267,1.256,1.1228,1.0956,1.1554,1.0939,1.0364,0.9814,1.0517,1.0813,1.0914,1.2278,1.3226,1.3946,1.5716,1.6378,1.6591,1.8274,1.8574,1.8263,0.0,0.0,0.0,0.0,0.0,0.0,0.0,0.0,0.0,0.0,0.0,0.0,0.0,0.0,0.0,0.0,-0.2066,-0.2312,-0.2863,-0.3348,-0.3851,-0.4401,-0.4654,-0.4958,-0.5355,-0.5504,-0.5762,-0.616,-0.6317,-0.6547,-0.6861,-0.7055,-0.7471,-0.8099,-0.8645,-0.9155,-0.9617,-0.9971,-0.9825,-0.9332,-0.9012,-0.7539,-0.5469,-0.4803,-0.3074,-0.071,0.0,0.2888,0.3356,0.3459,0.435,0.4788,0.111,0.178,0.4208,0.5853,0.6774,0.7452,0.8426,0.7868,0.6881,0.6251,0.6575,0.7015,0.6934,0.7876,0.8751,0.8557,0.8099,0.7758,0.7676,0.7596,0.7465,0.7313,0.7503,0.7719,0.7711,0.7502,0.717,0.6712,0.6196,0.5777,0.5503,0.5572,0.5395,0.4815,0.5162,0.5224,0.4829,0.573,0.7236,0.9442,1.087,1.2397,1.4029,1.4653,1.4642,1.4032,1.2715,1.176,1.1099,1.0906,1.0914,1.1166,1.1366,1.1953,1.2822,1.3684,1.4369,1.5071,1.6413,1.6944,1.7137,1.8769,1.9008,1.8669,0.0,0.0,0.0,0.0,0.0,0.0,0.0,0.0,0.0,0.0,0.0,0.0,0.0,0.0,0.0,0.0,0.0,-0.2158,-0.2423,-0.2607,-0.2999,-0.3676,-0.3589,-0.3861,-0.4592,-0.4371,-0.4567,-0.5257,-0.5442,-0.5722,-0.6066,-0.6479,-0.6815,-0.7112,-0.791,-0.8393,-0.8673,-0.9011,-0.8612,-0.7689,-0.7111,-0.5118,-0.244,-0.189,-0.0206,0.0,0.4441,0.5802,0.6514,0.6259,0.6805,0.6993,0.3607,0.4633,0.7236,0.7929,0.8372,0.851,0.7956,0.7171,0.6398,0.5819,0.6158,0.6696,0.6912,0.7653,0.8255,0.8227,0.7634,0.7062,0.688,0.6705,0.6502,0.6263,0.644,0.6621,0.6643,0.6713,0.6614,0.6152,0.5728,0.5718,0.6379,0.5935,0.537,0.4836,0.5178,0.5371,0.5166,0.6082,0.7582,0.9555,1.1421,1.3121,1.4698,1.5511,1.5511,1.4709,1.3653,1.2589,1.1584,1.1756,1.2003,1.219,1.283,1.3496,1.416,1.5266,1.5991,1.6439,1.7755,1.8264,1.8442,1.9797,2.0054,1.9782,0.0,0.0,0.0,0.0,0.0,0.0,0.0,0.0,0.0,0.0,0.0,0.0,0.0,0.0,0.0,0.0,0.0,0.0,-0.177,-0.1728,-0.2064,-0.2831,-0.2445,-0.2637,-0.3566,-0.2993,-0.2778,-0.3018,-0.3549,-0.3869,-0.4014,-0.5091,-0.5611,-0.5728,-0.6894,-0.7338,-0.7247,-0.7259,-0.6309,-0.4697,-0.3951,-0.2031,0.0353,0.0647,0.2457,0.4919,0.5474,0.7007,0.873,0.8561,0.9123,0.9482,0.6975,0.8001,0.9765,0.79,0.9743,1.1556,0.7998,0.7314,0.7276,0.5832,0.6036,0.6745,0.7439,0.7402,0.7348,0.7704,0.6742,0.5929,0.6198,0.5048,0.4156,0.4591,0.4678,0.4635,0.4335,0.5141,0.5662,0.5523,0.4996,0.5374,0.7322,0.6625,0.6354,0.7068,0.6782,0.669,0.6966,0.8151,0.9127,0.9775,1.2349,1.4043,1.4698,1.5888,1.5888,1.4744,1.4143,1.3552,1.3017,1.36,1.3511,1.3042,1.4767,1.5192,1.4799,1.6942,1.7879,1.8072,1.9662,2.027,2.0358,2.124,2.1546,2.1502,0.0,0.0,0.0,0.0,0.0,0.0,0.0,0.0,0.0,0.0,0.0,0.0,0.0,0.0,0.0,0.0,0.0,0.0,-0.1105,-0.0875,-0.0802,-0.0912,-0.0991,-0.1385,-0.2119,-0.2261,-0.2617,-0.3214,-0.3616,-0.382,-0.3854,-0.3995,-0.4051,-0.403,-0.4435,-0.4362,-0.3934,-0.4092,-0.3753,-0.3004,-0.1829,0.0023,0.2231,0.3724,0.5373,0.6991,0.792,0.8197,0.8187,0.8537,0.8058,0.7201,0.6443,0.6887,0.7388,0.5856,0.7037,0.8432,0.6326,0.5533,0.5386,0.5454,0.5651,0.5779,0.5905,0.6218,0.6427,0.618,0.5449,0.4739,0.4365,0.4388,0.4378,0.413,0.469,0.4684,0.3311,0.0897,-0.0415,0.0456,-0.0,0.0584,0.2934,0.4556,0.6422,0.8772,0.8739,0.8856,0.9393,1.0311,1.0937,1.1187,1.3273,1.4494,1.4698,1.5454,1.5688,1.5365,1.4744,1.4387,1.4247,1.4387,1.4619,1.4824,1.5316,1.5874,1.6603,1.7896,1.8812,1.9556,2.0944,2.1327,2.1272,2.196,2.2264,2.2294,0.0,0.0,0.0,0.0,0.0,0.0,0.0,0.0,0.0,0.0,0.0,0.0,0.0,0.0,0.0,0.0,0.0,0.0,0.0,-0.0303,-0.0201,0.013,0.0379,0.0084,-0.0793,-0.0748,-0.1121,-0.1976,-0.2235,-0.2434,-0.2566,-0.2558,-0.2379,-0.2092,-0.2336,-0.2154,-0.1639,-0.1665,-0.108,0.0,0.0,0.2966,0.5081,0.6414,0.7236,0.7796,0.8666,0.8388,0.7588,0.7581,0.679,0.5846,0.5966,0.5705,0.5241,0.4554,0.6155,0.7639,0.5518,0.4736,0.4588,0.4959,0.5012,0.4965,0.5042,0.5136,0.5133,0.4795,0.4375,0.3876,0.3228,0.3361,0.3554,0.3397,0.2772,0.1525,-0.0677,-0.3464,-0.5075,-0.4542,-0.4282,-0.265,0.1205,0.4094,0.7165,1.0626,1.081,1.1062,1.1785,1.248,1.299,1.3268,1.4642,1.5428,1.5431,1.5531,1.5576,1.5552,1.5196,1.5184,1.5416,1.5704,1.6046,1.6552,1.6866,1.7558,1.8593,1.9328,2.0218,2.1199,2.2082,2.249,2.2645,2.3061,2.3191,2.3231,0.0,0.0,0.0,0.0,0.0,0.0,0.0,0.0,0.0,0.0,0.0,0.0,0.0,0.0,0.0,0.0,0.0,0.0,0.0,0.0,0.0,0.0917,0.1651,0.1544,0.0469,0.0993,0.0806,-0.0157,-0.0288,-0.0496,-0.0768,-0.0887,-0.0644,-0.0131,-0.0416,-0.0263,0.0242,0.048,0.157,0.3254,0.4221,0.5811,0.769,0.0,0.0,0.792,0.8382,0.7869,0.6858,0.619,0.56,0.5186,0.5407,0.451,0.3379,0.3633,0.5843,0.7672,0.5167,0.4366,0.4252,0.4477,0.4351,0.424,0.4462,0.4176,0.3765,0.3513,0.3381,0.3109,0.2521,0.2495,0.2518,0.2389,0.0068,-0.2752,-0.5701,-0.7585,-0.8654,-0.8663,-0.751,-0.4499,0.1046,0.4435,0.7974,1.2168,1.2701,1.3282,1.4224,1.4713,1.5186,1.5672,1.613,1.6434,1.6519,1.5971,1.5728,1.5724,1.5724,1.6034,1.6661,1.718,1.7676,1.821,1.8861,1.9626,2.0518,2.1055,2.1838,2.2718,2.3127,2.3576,2.401,2.4088,2.4062,2.4013,0.0,0.0,0.0,0.0,0.0,0.0,0.0,0.0,0.0,0.0,-0.1708,-0.1764,0.0,0.0,0.0,0.0,0.0,0.0,0.0,0.0,0.0,0.0,0.2784,0.2476,0.1787,0.1664,0.1279,0.0605,0.0478,0.0429,0.0495,0.0787,0.1074,0.1346,0.1662,0.2231,0.2951,0.3374,0.3948,0.4613,0.5404,0.6105,0.674,0.0,0.0,0.0,0.7875,0.6898,0.5657,0.5378,0.5326,0.5227,0.4461,0.3241,0.2173,0.2435,0.3793,0.5144,0.4636,0.3574,0.2901,0.4184,0.4263,0.3973,0.3627,0.324,0.2821,0.2373,0.2188,0.2077,0.201,0.3035,0.3137,0.0911,-0.104,-0.3655,-0.7613,-1.0498,-1.1367,-0.9103,-0.7875,-0.4742,0.1501,0.4191,0.7281,1.1456,1.3672,1.5377,1.6635,1.7167,1.7504,1.7611,1.6828,1.6646,1.7133,1.6562,1.6519,1.6995,1.6944,1.7424,1.8369,1.846,1.9154,2.0188,2.0316,2.0991,2.1964,2.2459,2.3042,2.3611,2.4091,2.4199,2.4081,2.4102,2.3913,2.3683,0.0,0.0,0.0,0.0,0.0,0.0,0.0,-0.2174,-0.1866,-0.0512,-0.0761,-0.0698,0.0278,-0.0511,0.0,0.0,0.0,0.0,0.0,0.0,0.0,0.0,0.0,0.0,0.2474,0.2447,0.2151,0.1577,0.0,0.2034,0.2114,0.2377,0.2683,0.3017,0.3417,0.3937,0.4562,0.5081,0.5603,0.6134,0.6709,0.7136,0.0,0.0,0.0,0.0,0.0,0.7001,0.6024,0.6074,0.5778,0.5087,0.3333,0.1929,0.1163,0.2727,0.326,0.3387,0.3661,0.357,0.3685,0.4908,0.4496,0.3992,0.4843,0.368,0.249,0.2689,0.2166,0.1639,0.1515,0.2709,0.4007,0.489,0.2224,-0.0463,-0.197,-0.5069,-0.6571,-0.4968,-0.389,-0.1542,0.2866,0.5812,0.8748,1.1909,1.4708,1.6728,1.7653,1.8476,1.8782,1.8549,1.7977,1.7688,1.7652,1.7423,1.7423,1.7652,1.7932,1.8617,1.9576,1.9882,2.0528,2.1444,2.1615,2.2173,2.2993,2.2992,2.3462,2.4161,2.4261,2.43,2.429,2.4157,2.3772,2.3268,0.0,0.0,0.0,0.0,0.0,0.0,0.0,-0.1416,-0.1371,-0.0317,-0.0337,-0.0049,0.1025,-0.0109,-0.0703,0.0,0.0,0.0,0.0,0.0,0.0,0.0,0.0,0.0,0.0,0.0,0.0,0.245,0.3146,0.0,0.0,0.0,0.0,0.0,0.4777,0.5141,0.5581,0.6058,0.6622,0.0,0.0,0.8031,0.0,0.0,0.0,0.0,0.0,0.7424,0.6696,0.6831,0.6215,0.5106,0.3402,0.2069,0.145,0.2837,0.3163,0.3164,0.3657,0.4288,0.4963,0.5634,0.4839,0.4307,0.5687,0.4098,0.2516,0.3055,0.235,0.1563,0.1342,0.2629,0.4639,0.7329,0.5064,0.2923,0.272,0.0744,-0.0445,0.0233,0.1263,0.3081,0.5951,0.8435,1.0819,1.3186,1.5966,1.7813,1.8405,1.9237,1.9527,1.9072,1.8962,1.8709,1.8359,1.8416,1.845,1.8579,1.9199,1.9997,2.0909,2.1365,2.1917,2.2558,2.2811,2.3249,2.3786,2.3392,2.3737,2.4479,2.413,2.4071,2.4158,2.3886,2.3307,2.2632,0.0,0.0,0.0,0.0,0.0,0.0,0.0,-0.2737,-0.2426,-0.1239,-0.1,-0.0456,0.0787,0.0887,0.082,0.0,0.0,0.0,0.0,0.0,0.0,0.0,0.0,0.0,0.0,0.0,0.0,0.2935,0.3721,0.0,0.0,0.0,0.0,0.0,0.0,0.5767,0.6059,0.635,0.0,0.0,0.0,0.0,0.0,0.0,0.0,0.0,0.0,0.7716,0.6828,0.6606,0.6022,0.5488,0.6083,0.5707,0.4459,0.1311,0.2994,0.5967,0.6201,0.6047,0.5697,0.5404,0.5266,0.4952,0.4215,0.3416,0.2755,0.2461,0.2019,0.1749,0.1877,0.3713,0.4449,0.2155,0.3707,0.3764,-0.0357,0.1146,0.3124,0.4387,0.5971,0.8364,1.2047,1.1771,1.2639,1.5642,1.765,1.8968,1.953,1.9662,1.9677,1.9654,1.9139,1.9072,1.9462,1.9462,1.9797,2.0463,2.1174,2.1967,2.2751,2.2989,2.34,2.3921,2.3946,2.4173,2.4473,2.4136,2.4207,2.4439,2.3876,2.3439,2.3096,2.2825,2.2283,2.1559,0.0,0.0,0.0,0.0,0.0,0.0,-0.1695,-0.1609,-0.1209,-0.0087,-0.017,-0.0049,0.0697,0.0827,0.0825,0.0,0.0,0.0,0.0,0.0,0.0,0.0,0.0,0.0,0.0,0.0,0.4373,0.4147,0.4619,0.0,0.0,0.0,0.0,0.0,0.0,0.6915,0.7149,0.7417,0.0,0.0,0.0,0.0,0.0,0.0,0.0,0.0,0.0,0.0,0.8104,0.7716,0.7557,0.7494,0.7492,0.7563,0.7299,0.548,0.5902,0.6913,0.6758,0.6507,0.6323,0.6344,0.5966,0.589,0.6687,0.5173,0.3672,0.3817,0.3278,0.2881,0.3146,0.5044,0.6479,0.6265,0.7471,0.8512,0.8693,0.8985,1.0065,1.2442,1.2972,1.3749,1.5295,1.5356,1.6045,1.7676,1.8972,1.9768,2.0054,1.9839,1.9945,2.0481,2.0004,2.0122,2.0936,2.092,2.1231,2.1857,2.2141,2.2586,2.3198,2.3561,2.3847,2.4059,2.433,2.4408,2.4245,2.3681,2.3497,2.3511,2.285,2.2181,2.1595,2.1486,2.0782,1.9836,0.0,0.0,0.0,0.0,0.0,-0.209,-0.0966,-0.0946,-0.0703,0.0297,0.0066,-0.004,0.0393,0.0541,0.0805,0.1283,0.0,0.0,0.0,0.0,0.0,0.0,0.0,0.0,0.0,0.0,0.4912,0.4841,0.5427,0.6042,0.0,0.0,0.7249,0.7822,0.0,0.0,0.0,0.0,0.0,0.0,0.0,0.0,0.0,0.0,0.0,0.0,0.0,0.0,0.0,0.0,0.0,0.8589,0.8011,0.825,0.8718,0.8561,0.8167,0.7701,0.7356,0.7111,0.6957,0.6964,0.6693,0.6716,0.7768,0.6379,0.4868,0.5001,0.4299,0.3773,0.41,0.5542,0.7193,0.8732,0.9686,1.1234,1.4156,1.4292,1.4743,1.6502,1.6671,1.6718,1.6924,1.8035,1.8943,1.9403,2.0156,2.0735,2.1034,2.0697,2.0695,2.1224,2.0926,2.125,2.2217,2.2177,2.2485,2.3165,2.3187,2.3449,2.3861,2.4091,2.4097,2.3926,2.41,2.391,2.34,2.2783,2.2456,2.2257,2.1645,2.0891,2.0133,2.0133,1.9355,1.8321,0.0,0.0,0.0,0.0,0.0,0.0,-0.0918,-0.1422,-0.1599,-0.0791,-0.08,-0.0711,-0.0246,0.0162,0.1049,0.2641,0.0,0.0,0.0,0.0,0.0,0.0,0.0,0.0,0.0,0.0,0.4763,0.4702,0.6041,0.6727,0.6821,0.8085,0.8711,0.8793,0.0,0.0,0.0,0.0,0.0,0.0,0.0,0.0,0.0,0.0,0.0,0.0,0.0,0.0,0.0,0.0,0.0,0.0,0.0,0.7783,0.0,0.8998,0.8941,0.8633,0.8428,0.8157,0.7695,0.6976,0.7243,0.7369,0.6189,0.6261,0.6326,0.5484,0.4648,0.4167,0.4436,0.4891,0.5691,0.7092,0.8717,1.0475,1.2365,1.4659,1.566,1.4313,1.5403,1.6488,1.6943,1.9417,2.0879,2.0687,2.1189,2.1905,2.2811,2.2485,2.2149,2.1792,2.186,2.2346,2.3284,2.3101,2.3478,2.4487,2.4598,2.4857,2.5167,2.4842,2.4331,2.3689,2.3215,2.2607,2.1904,2.1624,2.1189,2.0687,2.036,1.9637,1.8815,1.8815,1.8152,1.7137,0.0,0.0,0.0,0.0,0.0,0.0,0.0,0.0309,0.0116,0.0962,0.0799,0.0609,0.0617,0.1347,0.2137,0.2876,0.0,0.0,0.0,0.0,0.0,0.0,0.0,0.0,0.0,0.0,0.5199,0.5721,0.6149,0.6914,0.7965,0.8326,0.8809,0.9339,0.9233,0.9242,0.0,0.0,0.0,0.0,0.0,0.0,1.0114,0.0,0.0,0.0,0.0,0.0,0.0,0.0,0.0,0.0,0.0,0.0,0.0,0.8685,0.8621,0.8187,0.7078,0.7036,0.7002,0.5868,0.6507,0.7298,0.6771,0.5692,0.4511,0.3459,0.2245,0.1454,0.172,0.2522,0.3759,0.5639,0.6566,0.8165,1.1347,1.3233,1.5142,1.7446,1.9429,2.0653,2.0811,2.1708,2.2124,2.1746,2.2599,2.3144,2.3175,2.3527,2.3491,2.2965,2.2948,2.3265,2.3976,2.4091,2.4481,2.5104,2.4824,2.4769,2.4832,2.4085,2.3325,2.2586,2.2287,2.1752,2.1045,2.0426,2.0289,2.0322,1.92,1.8321,1.7652,1.7288,1.6735,1.6077,0.0,0.0,0.0,0.0,0.0,0.0,0.0,0.1125,0.095,0.1821,0.1635,0.1435,0.1487,0.2367,0.3189,0.3774,0.0,0.0,0.0,0.0,0.0,0.0,0.0,0.0,0.0,0.5326,0.5742,0.6241,0.684,0.7646,0.8615,0.8853,0.9245,0.9738,0.9631,0.9652,0.0,0.0,0.0,0.0,0.0,0.0,0.998,0.0,0.0,0.0,0.0,0.0,0.0,0.0,0.0,0.0,0.0,0.0,0.0,0.0,0.8602,0.8242,0.7307,0.6971,0.6721,0.6191,0.6625,0.7051,0.6526,0.5228,0.399,0.3406,0.2061,0.1045,0.1196,0.1445,0.1921,0.2813,0.3286,0.4387,0.6861,1.0287,1.4109,1.8263,2.0189,2.1267,2.1513,2.2488,2.3069,2.2922,2.3622,2.3962,2.3733,2.4149,2.4124,2.353,2.3788,2.4099,2.4445,2.4649,2.4881,2.5173,2.4598,2.4256,2.4133,2.3183,2.2245,2.1406,2.1108,2.048,0.0,1.9221,1.8956,1.8726,1.7799,1.7122,1.6566,1.6207,1.5884,1.5588,0.0,0.0,0.0,0.0,0.0,0.0,0.0,0.0,0.1131,0.1953,0.1918,0.197,0.2386,0.3307,0.4272,0.5191,0.0,0.0,0.0,0.0,0.0,0.0,0.0,0.0,0.0,0.5979,0.6422,0.6489,0.7991,0.8764,0.8903,0.9605,0.9952,1.0006,0.9946,0.9953,1.0029,1.0148,1.0136,1.0016,0.9989,0.9915,0.0,0.0,0.0,0.0,0.0,0.0,0.0,0.0,0.0,0.0,0.0,0.0,0.0,0.0,0.0,0.0,0.0,0.7703,0.6721,0.7506,0.7141,0.6406,0.5667,0.4765,0.0,0.471,0.3338,0.2075,0.2138,0.1119,0.0036,-0.0671,-0.0378,0.0152,0.079,0.7036,1.3079,1.7204,1.8438,1.9227,1.9913,2.2123,2.371,2.4124,2.427,2.4348,2.4372,2.4335,2.4066,2.3483,2.4288,2.4695,2.4641,2.4713,2.4745,2.4764,2.3982,2.3458,2.314,2.2092,2.1088,2.0131,1.9687,1.8948,1.8027,1.8027,1.7436,1.6464,1.6434,1.6046,1.5576,1.5588,1.5588,1.5543,0.0,0.0,0.0,0.0,0.0,0.0,0.0,0.0,0.0,0.0,0.3355,0.3867,0.377,0.4953,0.585,0.0,0.0,0.0,0.0,0.0,0.0,0.0,0.0,0.0,0.7048,0.7221,0.762,0.8284,0.8661,0.9187,0.9798,0.9978,1.0098,1.0151,1.014,1.0132,1.0156,1.0194,1.0146,1.0062,0.9908,0.9804,0.0,0.0,0.0,0.0,0.9379,0.9545,0.0,0.0,0.0,0.0,0.0,0.0,0.0,0.0,0.8824,0.8678,0.9262,0.0,0.5884,0.6435,0.4661,0.3403,0.0,0.366,0.1725,0.3601,0.0665,-0.1836,-0.0523,-0.2302,-0.3022,-0.014,0.0842,0.2477,0.5997,1.1378,1.562,1.7486,1.9394,2.0811,2.148,2.2927,2.4106,2.4811,2.476,2.4521,2.412,2.3745,2.3419,2.314,2.3617,2.3963,2.4162,2.4122,2.4225,2.4407,2.3263,2.2461,2.1949,2.0703,1.9532,1.8544,1.8474,1.8092,1.7504,1.7504,1.7313,1.6985,1.6642,1.6102,1.5528,1.5564,1.532,1.4926,0.0,0.0,0.0,0.0,0.0,0.0,0.0,0.0,0.0,0.0,0.0,0.0,0.0,0.0,0.0,0.0,0.0,0.0,0.0,0.0,0.0,0.0,0.0,0.7211,0.7691,0.8026,0.8423,0.8896,0.9262,0.9679,1.0109,1.0098,1.0135,1.0205,1.0195,1.0191,1.0195,1.0209,1.0103,0.9942,0.9736,0.0,0.0,0.0,0.0,0.0,0.9368,0.9533,0.0,0.9496,0.9397,0.9355,0.0,0.0,0.0,0.0,0.9179,0.9208,0.9703,0.805,0.6368,0.7112,0.5149,0.3465,0.5199,0.2099,-0.0558,0.1457,-0.0269,-0.1905,-0.1147,-0.1425,-0.1302,0.0145,0.1667,0.4479,0.9742,1.2447,1.4997,1.7984,1.9705,2.1225,2.2735,2.3273,2.3798,2.4409,2.4203,2.3655,2.2713,2.2803,2.2607,2.2003,2.2444,2.3043,2.3757,2.3899,2.3764,2.3412,2.2628,2.1821,2.0949,2.0023,1.903,1.8051,1.78,1.7286,1.6532,1.6532,1.6336,1.6009,1.5764,1.5454,1.5151,1.5174,1.4767,1.425,0.0,0.0,0.0,0.0,0.0,0.0,0.0,0.0,0.0,0.0,0.0,0.0,0.0,0.0,0.0,0.0,0.0,0.0,0.0,0.0,0.0,0.0,0.0,0.7962,0.8094,0.8763,0.9103,0.9102,0.9774,1.0117,1.0114,1.0125,1.0141,1.0209,1.0201,1.0195,1.0175,1.0162,1.0013,0.9775,0.9537,0.0,0.0,0.0,0.0,0.0,0.0,0.0,0.0,0.9318,0.9089,0.8837,0.8687,0.0,0.0,0.0,0.0,0.0,1.0045,0.8714,0.7501,0.8333,0.6335,0.419,0.4276,0.0831,-0.1833,0.0123,0.0251,0.0109,0.0442,0.1738,0.2468,0.1639,0.3825,0.7492,1.2858,1.2985,1.4149,1.8477,1.965,2.0915,2.3018,2.3006,2.3001,2.3361,2.3072,2.2335,2.1061,2.1519,2.1545,2.091,2.1287,2.204,2.328,2.3533,2.32,2.235,2.2084,2.1301,2.0131,1.9606,1.8783,1.7679,1.7258,1.6489,1.5588,1.5588,1.5231,1.4698,1.4789,1.4744,1.456,1.4652,1.4204,1.3517,0.0,0.0,0.0,0.0,0.0,0.0,0.0,0.0,0.0,0.0,0.0,0.0,0.0,0.0,0.0,0.0,0.0,0.0,0.0,0.0,0.0,0.8525,0.8697,0.9139,0.9883,0.9968,0.9997,1.0008,1.0118,1.018,1.0178,1.0172,1.019,1.0195,1.0192,1.0173,1.0103,1.0042,0.9903,0.9685,0.9374,0.0,0.0,0.0,0.0,0.0,0.0,0.0,0.0,0.9127,0.8912,0.8732,0.8757,0.0,0.0,0.0,0.0,0.0,1.005,0.9369,0.8557,0.8385,0.4761,0.1693,0.3418,0.1317,0.0,0.3537,0.2734,0.2521,0.6211,0.5235,0.4856,0.7895,1.1472,1.4588,1.661,1.7611,1.8237,1.8485,1.9448,2.0231,2.0546,2.128,2.1816,2.1982,2.1647,2.1134,2.0448,1.9749,1.9962,2.136,2.1034,2.1322,2.2293,2.2062,2.2023,2.2146,2.1486,2.0603,1.9506,1.8693,1.745,1.5971,1.5884,1.5764,1.5588,1.5588,1.5231,1.4744,1.5276,1.4824,1.4003,1.4514,1.3924,1.2715,0.0,0.0,0.0,0.0,0.0,0.0,0.0,0.0,0.0,0.0,0.0,0.0,0.0,0.0,0.0,0.0,0.0,0.0,0.0,0.0,0.0,0.9596,0.9627,0.9852,1.0293,1.0264,1.0238,1.0191,1.0196,1.018,1.0143,1.0178,1.0176,1.0155,1.0146,1.0033,0.9819,0.9713,0.9533,0.9287,0.0,0.0,0.0,0.0,0.0,0.0,0.0,0.0,0.0,0.0,0.8253,0.8068,0.8213,0.0,0.0,0.0,0.0,0.0,1.007,0.9268,0.83,0.7787,0.5186,0.301,0.3923,0.1873,0.0457,0.2775,0.3528,0.4457,0.6788,0.8328,1.0534,1.45,1.6874,1.8534,1.9369,1.9722,1.9579,1.8775,1.9297,2.0053,2.0895,2.0834,2.0872,2.1198,2.0333,1.9554,1.9046,1.8842,1.9291,2.044,2.0457,2.0702,2.1116,2.0975,2.0975,2.1132,2.1039,2.0335,1.909,1.8303,1.7248,1.6015,1.5708,1.541,1.5096,1.5096,1.4971,1.4698,1.4641,1.4075,1.3168,1.2366,1.1679,1.0998,0.0,0.0,0.0,0.0,0.0,0.0,0.0,0.0,0.0,0.0,0.0,0.0,0.0,0.0,0.0,0.0,0.0,0.0,0.0,0.0,1.0036,1.0151,1.0176,1.0218,1.0273,1.0479,1.0548,1.047,1.0499,1.0364,1.0124,1.0135,1.0105,1.0063,0.9978,0.9788,0.9511,0.9324,0.9082,0.8838,0.0,0.0,0.0,0.0,0.0,0.0,0.0,0.0,0.0,0.0,0.0,0.0,0.0,0.0,0.0,0.8975,0.9495,0.9878,1.0001,0.8946,0.7659,0.7022,0.5742,0.4666,0.4841,0.3227,0.2137,0.3631,0.5662,0.7408,0.8188,1.1729,1.5668,1.9129,2.0341,2.1099,2.1863,2.1606,2.0918,1.9766,1.9765,2.0205,2.1042,2.0197,1.9646,1.9834,1.8781,1.8042,1.7784,1.7811,1.8411,1.9733,1.9737,1.9875,2.0128,2.0128,2.0128,2.0128,2.0501,1.9908,1.8478,1.7781,1.6868,1.5772,1.5342,1.4915,1.4468,1.4468,1.4468,1.4422,1.3956,1.3273,1.2337,1.0458,0.9814,0.9718,0.0,0.0,0.0,0.0,0.0,0.0,0.0,0.0,0.0,0.0,0.0,0.0,0.0,0.0,0.0,0.0,0.0,0.0,0.0,0.0,0.9939,1.0001,1.0127,1.0207,1.0214,1.1005,1.1373,1.1308,1.1385,1.0992,1.0188,1.0008,0.996,0.9995,0.9617,0.9403,0.9295,0.891,0.8638,0.8407,0.8075,0.0,0.0,0.0,0.0,0.0,0.0,0.0,0.0,0.0,0.0,0.0,0.0,0.0,0.8122,0.8674,0.9255,0.9732,0.9803,0.8566,0.7081,0.6349,0.5422,0.4912,0.5775,0.6074,0.6987,0.9999,1.1399,1.2566,1.4097,1.5971,1.7899,1.9673,2.1198,2.273,2.4298,2.4505,2.3806,2.1991,2.1465,2.068,1.9253,1.8477,1.7759,1.7058,1.6659,1.6709,1.7316,1.5964,1.6738,2.0116,1.8807,1.8582,1.9641,1.9641,1.9641,1.9641,1.9677,1.8846,1.7209,1.6738,1.5572,1.3993,1.3956,1.3909,1.3862,1.3862,1.3862,1.3862,1.3815,1.3034,1.1706,1.0312,0.9814,0.9718,0.0,0.0,0.0,0.0,0.0,0.0,0.0,0.0,0.0,0.0,0.0,0.0,0.0,0.0,0.0,0.0,0.0,0.0,0.0,0.9686,0.9892,0.9996,1.0096,1.0143,1.0133,1.0498,1.0686,1.065,1.0557,1.0386,1.0137,0.981,0.9727,0.9861,0.9419,0.9096,0.8902,0.8497,0.8265,0.8124,0.7796,0.7767,0.0,0.0,0.0,0.0,0.0,0.0,0.0,0.0,0.718,0.7306,0.7489,0.7851,0.8323,0.898,0.9365,0.9599,0.9656,0.8926,0.8027,0.7585,0.698,0.6553,0.673,0.7698,0.8992,1.0654,1.3076,1.5438,1.7209,1.8505,1.9445,1.9925,2.1407,2.2646,2.3115,2.3153,2.2518,2.0896,2.0084,1.926,1.8255,1.7298,1.6622,1.6352,1.5744,1.5597,1.6146,1.5589,1.641,1.8852,1.8279,1.831,1.9163,1.845,1.7917,1.7612,1.7956,1.7585,1.6641,1.57,1.4756,1.3815,1.3815,1.3815,1.3815,1.3815,1.3815,1.3674,1.2434,1.1607,1.1015,0.9658,0.9159,0.9159,0.0,0.0,0.0,0.0,0.0,0.0,0.0,0.0,0.0,0.0,0.0,0.0,0.0,0.0,0.0,0.0,0.0,0.0,0.9305,0.9544,0.975,0.9895,0.9993,1.0056,1.008,1.0116,1.0271,1.0556,1.0066,0.9898,1.0015,0.9349,0.9261,0.9647,0.9123,0.8773,0.8546,0.813,0.7935,0.7797,0.7421,0.7437,0.0,0.0,0.0,0.0,0.0,0.0,0.0,0.0,0.6766,0.7089,0.7242,0.767,0.8214,0.8733,0.9132,0.9374,0.9409,0.9116,0.8705,0.8204,0.8242,0.8503,0.8851,0.9805,1.1169,1.3099,1.5403,1.7514,1.8887,1.9297,1.9599,2.0025,2.127,2.2194,2.221,2.2167,2.1526,1.9877,1.8937,1.8098,1.7306,1.6204,1.5556,1.5576,1.4902,1.4734,1.525,1.4951,1.5641,1.7541,1.7146,1.7158,1.765,1.6981,1.6338,1.5672,1.5954,1.5941,1.554,1.471,1.4043,1.3505,1.3505,1.3505,1.3505,1.3505,1.3399,1.2986,1.1208,1.0466,1.0364,0.9211,0.8804,0.8804,0.0,0.0,0.0,0.0,0.0,0.0,0.0,0.0,0.0,0.0,0.0,0.0,0.0,0.0,0.0,0.0,0.0,0.0,0.9367,0.9399,0.9499,0.9694,0.9817,0.9933,1.0006,1.0008,1.0413,1.1297,1.0228,0.9777,0.987,0.8595,0.8513,0.9374,0.87,0.8351,0.8258,0.7869,0.762,0.7453,0.6977,0.7123,0.753,0.0,0.0,0.0,0.0,0.0,0.0,0.0,0.6189,0.6756,0.649,0.7001,0.772,0.7792,0.8417,0.9089,0.9021,0.9049,0.8883,0.7883,0.8932,1.0653,1.2319,1.2649,1.3902,1.8393,1.9049,1.89,1.9161,1.8336,1.8201,2.0006,2.0858,2.1498,2.2086,2.2156,2.1407,1.9396,1.8443,1.7502,1.6289,1.5138,1.4474,1.4405,1.4076,1.4139,1.4756,1.3787,1.4189,1.6396,1.5369,1.4802,1.4891,1.5278,1.5005,1.4079,1.3871,1.3768,1.3815,1.3768,1.3457,1.2881,1.2881,1.2881,1.2881,1.2881,1.2452,1.1665,1.0312,0.9814,0.971,0.9061,0.8804,0.8804,0.0,0.0,0.0,0.0,0.0,0.0,0.0,0.0,0.0,0.0,0.0,0.0,0.0,0.0,0.0,0.0,0.0,0.0,0.9312,0.9412,0.9514,0.962,0.9765,0.988,1.0003,0.9963,1.0096,1.0463,0.9946,0.9748,0.9811,0.9001,0.8808,0.9085,0.842,0.8077,0.7994,0.7589,0.7355,0.7198,0.6957,0.6891,0.6894,0.0,0.0,0.0,0.0,0.0,0.0,0.0,0.0,0.0,0.659,0.716,0.7979,0.8005,0.8366,0.8863,0.9412,0.9946,1.0199,0.9526,1.0522,1.1885,1.2717,1.352,1.516,1.8942,1.9304,1.9115,1.9717,1.9645,1.9473,1.9392,1.9998,2.0253,1.9677,1.8957,1.7879,1.6284,1.5352,1.4599,1.4007,1.372,1.3413,1.3019,1.3249,1.3323,1.3127,1.3485,1.4028,1.4791,1.4456,1.43,1.4403,1.3716,1.3237,1.2958,1.2771,1.3067,1.3779,1.3372,1.2793,1.2129,1.2129,1.1882,1.1434,1.1434,1.1275,1.1015,1.0167,0.9814,0.971,0.9061,0.8804,0.8804,0.0,0.0,0.0,0.0,0.0,0.0,0.0,0.0,0.0,0.0,0.0,0.0,0.0,0.0,0.0,0.0,0.0,0.0,0.0,0.9339,0.9421,0.9509,0.9615,0.9743,0.9882,0.9842,0.985,0.9947,0.9352,0.9243,0.9585,0.8794,0.8608,0.8894,0.8364,0.8037,0.7883,0.7559,0.7341,0.7198,0.6894,0.6761,0.6723,0.0,0.0,0.0,0.0,0.0,0.0,0.0,0.0,0.0,0.6436,0.7001,0.7871,0.8139,0.8546,0.9087,0.9865,1.0836,1.1493,1.0952,1.2269,1.3895,1.4728,1.594,1.7392,1.9204,1.9551,1.9643,2.006,1.9649,1.9158,1.8921,1.8802,1.8425,1.748,1.6647,1.5675,1.4393,1.3502,1.2846,1.2511,1.2392,1.2201,1.1868,1.2294,1.2529,1.2416,1.2791,1.3162,1.3456,1.3226,1.3135,1.3191,1.2488,1.2197,1.2392,1.1979,1.2224,1.2986,1.2638,1.2089,1.1416,1.1416,1.1316,1.1166,1.0618,1.0415,1.0364,0.9666,0.9413,0.9361,0.8962,0.8804,0.8804,0.0,0.0,0.0,0.0,0.0,0.0,0.0,0.0,0.0,0.0,0.0,0.0,0.0,0.0,0.0,0.0,0.0,0.0,0.0,0.0,0.9261,0.9392,0.9457,0.955,0.9663,0.968,0.9672,0.9675,0.8725,0.8613,0.9304,0.8281,0.8174,0.8766,0.8434,0.8133,0.7869,0.7665,0.7499,0.7329,0.6802,0.6714,0.6841,0.6522,0.0,0.0,0.0,0.0,0.0,0.0,0.0,0.0,0.6241,0.6746,0.7582,0.8197,0.8819,0.9461,1.0212,1.1474,1.2459,1.1974,1.3782,1.6036,1.7368,1.8852,1.9758,1.9081,1.964,2.0176,1.9941,1.8579,1.7709,1.838,1.7417,1.6283,1.5464,1.4961,1.4228,1.3114,1.2346,1.1795,1.1471,1.1192,1.0977,1.0929,1.1296,1.174,1.2239,1.1865,1.1859,1.2342,1.1894,1.1629,1.1631,1.1472,1.1645,1.203,1.1379,1.1238,1.1563,1.1648,1.1366,1.072,1.0669,1.0965,1.1408,1.021,0.9718,0.9666,0.9061,0.8804,0.8804,0.8804,0.8804,0.8804,0.0,0.0,0.0,0.0,0.0,0.0,0.0,0.0,0.0,0.0,0.0,0.0,0.0,0.0,0.0,0.0,0.0,0.0,0.0,0.0,0.932,0.9385,0.941,0.9405,0.9383,0.9484,0.9525,0.9468,0.9399,0.9384,0.9439,0.8962,0.8722,0.871,0.8319,0.7997,0.7724,0.753,0.7298,0.7058,0.6778,0.6672,0.6651,0.653,0.6517,0.0,0.0,0.0,0.0,0.0,0.0,0.0,0.7032,0.7445,0.7982,0.8192,0.8376,0.8722,0.9563,1.0639,1.1516,1.1509,1.3157,1.5093,1.6346,1.7333,1.7928,1.774,1.8878,1.9416,1.7814,1.7058,1.6719,1.6864,1.6181,1.5119,1.3764,1.2617,1.1398,0.9968,0.9729,0.9666,0.958,1.0451,1.0821,1.0403,1.0822,1.1142,1.1144,1.1211,1.1259,1.1335,1.1227,1.1149,1.1063,1.034,1.0303,1.0922,1.0314,0.9951,0.9779,1.0639,1.0669,0.9969,0.9465,0.9309,0.9413,0.9106,0.9008,0.9008,0.8857,0.8804,0.8804,0.8804,0.8804,0.8804,0.0,0.0,0.0,0.0,0.0,0.0,0.0,0.0,0.0,0.0,0.0,0.0,0.0,0.0,0.0,0.0,0.0,0.0,0.0,0.0,0.932,0.9348,0.9259,0.9222,0.9248,0.9128,0.9157,0.9359,0.9296,0.9304,0.9394,0.9157,0.8929,0.8728,0.8422,0.8121,0.7826,0.762,0.739,0.7134,0.6924,0.6757,0.6633,0.65,0.6465,0.6505,0.6613,0.0,0.0,0.0,0.0,0.0,0.0,0.0,0.7245,0.7771,0.7771,0.7923,0.9234,1.0285,1.1309,1.2572,1.3747,1.4765,1.5428,1.6157,1.6487,1.582,1.7079,1.7861,1.6327,1.542,1.4795,1.4403,1.3323,1.2201,1.1214,1.0225,0.9261,0.8287,0.8259,0.8401,0.8586,0.9436,0.9828,0.9533,0.9978,1.0344,1.0547,1.0443,1.0562,1.0998,1.0802,1.0627,1.0526,0.9981,0.9984,1.0516,0.977,0.9294,0.9031,0.9585,0.9814,0.9762,0.9106,0.8956,0.9263,0.8956,0.8804,0.8804,0.8804,0.8804,0.8804,0.8804,0.8804,0.8804,0.0,0.0,0.0,0.0,0.0,0.0,0.0,0.0,0.0,0.0,0.0,0.0,0.0,0.0,0.0,0.0,0.0,0.0,0.0,0.0,0.0,0.9255,0.9081,0.9028,0.9136,0.8801,0.8807,0.9161,0.8915,0.8936,0.92,0.9146,0.9022,0.8835,0.8624,0.8348,0.8025,0.7827,0.7574,0.7308,0.7104,0.6993,0.6937,0.6594,0.6584,0.6777,0.6748,0.6634,0.6448,0.6234,0.0,0.0,0.0,0.0,0.6118,0.7206,0.6962,0.6718,0.861,0.9878,1.1203,1.3515,1.4217,1.4313,1.427,1.4681,1.4755,1.363,1.4857,1.5806,1.4773,1.3497,1.236,1.1702,1.023,0.906,0.8739,0.8078,0.7521,0.7191,0.7355,0.7599,0.7866,0.8505,0.8851,0.8717,0.9152,0.9637,1.0154,0.9718,0.9868,1.0723,1.0264,1.0028,1.0027,0.9752,0.9868,1.0278,0.9517,0.9017,0.8804,0.8804,0.9113,0.9614,0.9061,0.9106,0.9562,0.9008,0.8804,0.8804,0.8804,0.8804,0.8804,0.8804,0.8804,0.8804,0.0,0.0,0.0,0.0,0.0,0.0,0.0,0.0,0.0,0.0,0.0,0.0,0.0,0.0,0.0,0.0,0.0,0.0,0.9106,0.0,0.0,0.9046,0.8964,0.8897,0.8863,0.8801,0.8728,0.8608,0.8677,0.8728,0.8778,0.9112,0.9204,0.9047,0.8784,0.8488,0.8164,0.7971,0.7679,0.736,0.7171,0.7485,0.7986,0.7023,0.7175,0.7797,0.7116,0.6676,0.6411,0.6373,0.6045,0.0,0.0,0.0,0.5349,0.6825,0.5698,0.4432,0.659,0.8574,1.0408,1.2019,1.2653,1.272,1.2148,1.1913,1.1733,1.1369,1.2661,1.3479,1.2288,1.0803,0.9725,0.9596,0.8598,0.7768,0.7475,0.6714,0.6076,0.579,0.6541,0.6976,0.6665,0.8305,0.9113,0.8425,0.9117,0.9626,0.9677,0.9185,0.916,0.9697,0.9199,0.9207,0.9748,0.8928,0.8959,0.9849,0.92,0.8817,0.8804,0.8804,0.8857,0.891,0.8857,0.8857,0.891,0.8857,0.8804,0.8804,0.8804,0.8804,0.8804,0.8804,0.8804,0.8804,0.0,0.0,0.0,0.0,0.0,0.0,0.0,0.0,0.0,0.0,0.0,0.0,0.0,0.0,0.0,0.9208,0.9047,0.8946,0.9043,0.9039,0.9013,0.8936,0.8875,0.8806,0.8745,0.8551,0.8497,0.855,0.8647,0.8653,0.861,0.9395,0.9735,0.9719,0.9862,0.9848,0.9679,0.9297,0.9046,0.8868,0.8504,0.8566,0.8812,0.7807,0.7664,0.787,0.6937,0.6288,0.5848,0.5924,0.541,0.4858,0.541,0.0,0.0,0.0,0.4769,0.3565,0.4338,0.6418,0.8355,0.8394,0.9511,1.0377,0.9555,0.9706,0.9931,0.9624,0.9954,1.0238,0.9966,0.8996,0.8043,0.7405,0.6684,0.6114,0.584,0.5462,0.5181,0.5068,0.6,0.6681,0.6729,0.7994,0.8781,0.8658,0.8582,0.8658,0.8921,0.8424,0.8334,0.8742,0.8728,0.8756,0.8917,0.9046,0.9298,0.9814,0.9865,0.951,0.8804,0.9211,0.9159,0.8804,0.8804,0.8804,0.8804,0.8804,0.8804,0.8804,0.8804,0.8804,0.8804,0.8804,0.8804,0.8804,0.0,0.0,0.0,0.0,0.0,0.0,0.0,0.0,0.0,0.0,0.0,0.0,0.0,0.0,0.0,0.0,0.9392,0.9095,0.8964,0.8976,0.8948,0.8863,0.8931,0.8887,0.8657,0.8539,0.8566,0.8737,0.8818,0.8849,0.8858,0.9891,1.0415,1.046,1.0665,1.0757,1.0742,1.0268,1.0014,0.9927,0.9389,0.925,0.9256,0.829,0.7996,0.7968,0.6932,0.6268,0.5826,0.5628,0.4966,0.4317,0.4822,0.4507,0.0,0.0,0.0,0.2863,0.2088,0.3587,0.5312,0.5227,0.65,0.7753,0.7519,0.8064,0.8515,0.8161,0.7814,0.7617,0.7758,0.7299,0.6599,0.576,0.5145,0.4777,0.4718,0.4637,0.4691,0.4951,0.5902,0.6683,0.6986,0.7896,0.8454,0.845,0.8107,0.7929,0.8083,0.7677,0.7613,0.8,0.8229,0.8346,0.8312,0.9158,0.9539,0.9446,0.9941,0.9688,0.8804,0.9231,0.9186,0.8804,0.8804,0.8804,0.8804,0.8804,0.8804,0.8804,0.8804,0.8804,0.8804,0.8804,0.8804,0.8804,0.0,0.0,0.0,0.0,0.0,0.0,0.0,0.0,0.0,0.0,0.0,0.0,1.0016,1.0188,1.0128,0.9732,0.9786,0.9547,0.8856,0.8869,0.8851,0.8717,0.9194,0.0,0.8524,0.8989,0.9187,0.9065,0.9202,0.9421,0.9748,1.0694,1.1134,1.1116,1.0588,1.0367,1.0398,1.006,0.9794,0.9577,0.9046,0.8967,0.9105,0.8109,0.8105,0.853,0.7436,0.709,0.6922,0.5793,0.5037,0.4553,0.4391,0.3626,0.3069,0.0,0.0,0.0,-0.0063,-0.0042,0.1176,0.3726,0.4465,0.4999,0.6724,0.7214,0.7237,0.7026,0.6811,0.6441,0.5705,0.5373,0.5204,0.5145,0.4469,0.413,0.4626,0.4486,0.4665,0.5629,0.6475,0.6997,0.7074,0.8174,0.841,0.7292,0.7908,0.8013,0.7222,0.7067,0.7158,0.7448,0.7471,0.7732,0.8305,0.8897,0.899,0.8497,0.8497,0.8639,0.8798,0.8568,0.8595,0.8804,0.8804,0.8804,0.8804,0.8804,0.8804,0.8804,0.8804,0.8804,0.8804,0.8804,0.8804,0.8804,0.0,0.0,0.0,0.0,0.0,0.0,0.0,0.0,0.0,0.0,0.0,0.0,0.0,1.0649,1.0575,1.1009,1.0236,0.9607,0.9395,0.9472,0.9276,0.8665,0.9679,0.9627,0.8269,0.8816,0.9034,0.8907,0.8777,0.8829,0.9048,0.9947,1.0247,1.0103,1.127,1.1737,1.1664,1.1339,1.0931,1.0413,0.9445,0.932,0.96,0.8555,0.8479,0.8826,0.7886,0.7305,0.686,0.5959,0.539,0.5014,0.481,0.4337,0.3736,0.3128,0.1907,0.0333,-0.162,-0.1415,-0.0515,-0.0058,0.1033,0.2281,0.3431,0.4555,0.5422,0.5695,0.5813,0.5829,0.5633,0.5333,0.4933,0.4409,0.4081,0.3911,0.3931,0.4176,0.4597,0.5223,0.6119,0.679,0.708,0.7732,0.7958,0.7579,0.7476,0.7209,0.6752,0.6842,0.7015,0.7137,0.753,0.7942,0.8437,0.879,0.8919,0.8736,0.8736,0.8567,0.825,0.8337,0.843,0.8537,0.8731,0.8804,0.8804,0.8804,0.8804,0.8804,0.8804,0.8804,0.8804,0.8804,0.8804,0.8804,0.0,0.0,0.0,0.0,0.0,0.0,0.0,0.0,0.0,0.0,0.0,0.0,0.0,0.0,1.1294,1.1743,1.0714,1.0025,1.001,1.0126,0.99,0.9221,1.0255,1.016,0.8697,0.9273,0.9464,0.9172,0.9032,0.9093,0.9318,0.9665,0.9836,0.9939,1.1275,1.1979,1.2112,1.1858,1.1344,1.0633,0.9451,0.8916,0.8765,0.8174,0.816,0.8421,0.8104,0.7792,0.7411,0.6588,0.6106,0.5727,0.5159,0.4474,0.3604,0.2099,0.0626,-0.0911,-0.2625,-0.2748,-0.229,-0.1941,-0.0945,0.0353,0.1865,0.3563,0.4845,0.4885,0.543,0.5775,0.5329,0.5044,0.4656,0.4009,0.3828,0.3766,0.3807,0.4154,0.4673,0.5427,0.5987,0.6593,0.724,0.753,0.7654,0.7508,0.7037,0.6645,0.6331,0.6326,0.6614,0.7166,0.7659,0.8017,0.8278,0.8729,0.8792,0.8458,0.8739,0.8608,0.8165,0.8014,0.8174,0.8684,0.8781,0.8804,0.8804,0.8804,0.8804,0.8804,0.8804,0.8804,0.8804,0.8804,0.8804,0.8804,0.0,0.0,0.0,0.0,0.0,0.0,0.0,0.0,0.0,1.0655,0.0,0.0,0.0,0.0,0.0,1.177,1.1235,1.0837,1.0654,1.0763,1.0685,1.0398,1.0878,1.0701,0.9809,1.0441,1.0514,0.9919,1.001,1.0288,1.0677,1.0017,1.0079,1.075,1.0593,1.0922,1.1557,1.1445,1.0908,1.0082,0.8989,0.7731,0.6565,0.6949,0.7156,0.7334,0.814,0.8587,0.8654,0.7625,0.7111,0.6634,0.5252,0.3785,0.2428,0.1565,0.0,-0.1738,0.0,0.0,0.0,-0.1641,-0.1236,-0.0693,0.2275,0.4429,0.5552,0.4706,0.5646,0.6183,0.4712,0.4416,0.4297,0.3957,0.3675,0.3707,0.4303,0.4409,0.4941,0.6314,0.6204,0.6463,0.7589,0.7695,0.75,0.6964,0.6682,0.6346,0.5927,0.5544,0.6004,0.7463,0.778,0.7912,0.7919,0.8691,0.8601,0.7632,0.8346,0.8674,0.8624,0.7524,0.7773,0.9131,0.8916,0.8791,0.8798,0.8804,0.8804,0.8804,0.8804,0.8804,0.8804,0.8804,0.8804,0.8804,0.0,0.0,0.0,0.0,0.0,0.0,0.0,0.0,1.1733,0.0,0.0,0.0,1.2455,1.2562,1.2575,1.25,1.1734,1.1332,1.1449,1.1466,1.114,1.043,1.128,1.1071,0.9607,1.0045,1.0269,1.0253,0.9656,0.9796,1.0541,1.0007,0.9867,1.0035,1.0809,1.1052,1.0883,1.0936,1.0315,0.915,0.7934,0.7157,0.6737,0.6889,0.7344,0.8003,0.8491,0.8808,0.8736,0.744,0.6681,0.5844,0.3532,0.1567,-0.0025,-0.0664,-0.1683,-0.2679,-0.2874,0.0,0.0,0.0,0.0,0.0,0.1476,0.2707,0.3771,0.4684,0.5079,0.5227,0.5144,0.4714,0.4309,0.4016,0.3711,0.3554,0.3721,0.4383,0.5089,0.5762,0.6318,0.6935,0.7618,0.7695,0.7647,0.7489,0.7422,0.6983,0.6097,0.6113,0.6695,0.7899,0.8277,0.8275,0.7919,0.8494,0.8692,0.8377,0.8226,0.8112,0.811,0.7575,0.7595,0.7974,0.8362,0.849,0.851,0.8717,0.8804,0.8804,0.8804,0.8804,0.8804,0.8804,0.8804,0.8804,0.0,0.0,0.0,0.0,0.0,0.0,1.1124,1.178,1.2205,0.0,0.0,0.0,1.2491,1.2558,1.2613,1.2639,1.2202,1.1981,1.2086,1.2052,1.1735,1.1069,1.1485,1.1239,1.0205,1.0427,1.052,1.0432,0.9839,0.9861,1.0438,0.9725,0.9609,1.0054,1.0629,1.0841,1.0729,1.0661,0.9969,0.8828,0.7654,0.6928,0.6584,0.685,0.739,0.8119,0.8829,0.8932,0.855,0.763,0.657,0.5324,0.3461,0.1586,-0.0054,-0.08,-0.1717,-0.2392,-0.1986,-0.1442,-0.0786,0.0176,0.0,0.0,0.1754,0.2791,0.3765,0.452,0.4874,0.4984,0.4761,0.425,0.3789,0.3579,0.3477,0.3488,0.3683,0.4461,0.5215,0.5744,0.6458,0.7121,0.7656,0.7695,0.7715,0.7685,0.7603,0.7257,0.6513,0.6862,0.7488,0.8332,0.8561,0.8464,0.799,0.8667,0.8674,0.7995,0.8302,0.8285,0.7964,0.7492,0.7533,0.8042,0.8643,0.8998,0.9133,0.9193,0.9061,0.8804,0.8804,0.8804,0.8804,0.8804,0.8804,0.8804,0.0,0.0,0.0,0.0,1.0488,1.1348,1.1779,1.2195,1.23,0.0,1.2256,1.253,1.2479,1.2514,1.2514,1.2423,1.2565,1.2604,1.2518,1.2483,1.2291,1.1888,1.152,1.1242,1.1062,1.1108,1.094,1.0581,1.0379,1.0366,1.0477,0.9479,0.9532,1.0485,0.0,1.0543,1.0911,1.0623,0.9982,0.906,0.7905,0.6996,0.638,0.6873,0.7399,0.7973,0.8989,0.8866,0.8149,0.7639,0.6393,0.4947,0.4071,0.2729,0.1258,0.0235,-0.0722,-0.1316,-0.0675,-0.0025,0.0764,0.2053,0.2412,0.0,0.2974,0.3991,0.4757,0.4384,0.4834,0.4974,0.3933,0.3344,0.3005,0.2835,0.3027,0.3376,0.3929,0.4639,0.5352,0.5965,0.6597,0.7189,0.7666,0.7695,0.7666,0.7627,0.7481,0.7259,0.7013,0.7573,0.8209,0.8871,0.8814,0.861,0.8262,0.9084,0.8745,0.7309,0.8471,0.873,0.8074,0.7389,0.7623,0.8619,0.9245,0.97,0.9969,0.9769,0.9413,0.8969,0.8864,0.8804,0.8804,0.8804,0.8804,0.8804,0.0,0.0,0.0,0.0,0.0,1.1881,1.203,1.2164,1.2221,1.2066,1.219,1.2271,1.2266,1.2277,1.2323,1.2475,1.2412,1.2412,1.2494,1.2347,1.2075,1.1666,1.1227,1.094,1.0777,1.0729,1.0841,1.1062,1.0851,1.0908,1.1189,1.0503,1.0298,1.051,1.0859,1.105,1.115,1.1057,1.0762,1.0137,0.8423,0.7443,0.7032,0.7429,0.7803,0.8142,0.839,0.8176,0.7481,0.5336,0.4538,0.4175,0.2523,0.1618,0.1036,0.0289,-0.0183,-0.032,0.0464,0.1696,0.2977,0.3885,0.4701,0.0,0.5349,0.5026,0.4779,0.4959,0.4458,0.3834,0.3326,0.2928,0.2592,0.2231,0.2351,0.2841,0.3849,0.5088,0.5825,0.5648,0.677,0.7598,0.7695,0.7695,0.753,0.7091,0.7223,0.7212,0.7011,0.768,0.8651,0.9944,0.9569,0.931,0.9213,0.939,0.9341,0.901,0.8407,0.8062,0.7938,0.7783,0.7731,0.7795,0.8565,0.8851,0.8781,0.8912,0.9382,0.9866,0.9068,0.8804,0.8804,0.8804,0.8804,0.8804,0.0,0.0,0.0,0.0,0.0,0.0,1.1961,1.2251,1.2372,1.2045,1.206,1.2102,1.2102,1.2075,1.2102,1.2251,1.2164,1.2143,1.2235,1.2024,1.1762,1.1415,1.1048,1.0653,1.026,1.057,1.0667,1.0443,1.0774,1.0968,1.0991,1.0621,1.0468,1.0507,1.0923,1.1203,1.1337,1.1343,1.1073,1.054,0.9179,0.8466,0.8198,0.816,0.8199,0.8234,0.8029,0.7556,0.673,0.4924,0.4478,0.4541,0.3711,0.2745,0.1804,0.0992,0.0834,0.109,0.1749,0.294,0.4147,0.495,0.5584,0.0,0.0,0.5283,0.4918,0.5019,0.4203,0.3304,0.28,0.2221,0.1744,0.1542,0.1894,0.2446,0.3209,0.472,0.5752,0.5791,0.6931,0.7783,0.8027,0.7762,0.7567,0.7459,0.756,0.7471,0.703,0.814,0.9261,1.0251,1.0018,0.9707,0.9372,0.9469,0.9084,0.8237,0.8013,0.7919,0.7919,0.8127,0.8158,0.8155,0.912,0.9366,0.9096,0.9245,0.9577,0.9947,0.912,0.8804,0.8804,0.8804,0.8804,0.8804,0.929,0.0,0.0,0.0,1.1535,0.0,0.0,1.2336,1.2475,1.1955,1.1927,1.1912,1.1869,1.1869,1.193,1.2065,1.2043,1.2088,1.2223,1.2021,1.1745,1.1426,1.1107,1.0694,1.007,1.0756,1.0762,1.0058,1.0859,1.1079,1.0801,1.0555,1.0481,1.05,1.0797,1.1119,1.1406,1.1394,1.1118,1.0597,0.9965,0.9555,0.9303,0.8926,0.862,0.8314,0.7665,0.6945,0.6152,0.5318,0.5253,0.5521,0.5424,0.4538,0.3318,0.2321,0.2273,0.2697,0.3204,0.4094,0.5068,0.5754,0.6103,0.6169,0.0,0.0,0.0,0.4871,0.4002,0.3073,0.2361,0.1593,0.1042,0.0879,0.1442,0.2038,0.2403,0.3951,0.5246,0.5848,0.6786,0.7572,0.8049,0.7839,0.7809,0.8119,0.8092,0.7826,0.7346,0.8726,0.9765,1.0283,1.0205,0.9864,0.9275,0.9301,0.8674,0.7314,0.7833,0.8108,0.8185,0.8489,0.8663,0.8803,0.9684,0.9854,0.9526,0.9526,0.9563,0.9562,0.9008,0.8804,0.8804,0.8804,0.8804,0.8804,1.0228,1.0471,0.0,0.0,1.1942,1.2149,1.2226,1.221,1.2092,1.1833,1.1783,1.1637,1.1423,1.1637,1.1918,1.2226,1.2423,1.2697,1.3132,1.3008,1.2716,1.2195,1.175,1.1361,1.1056,1.1595,1.1716,1.1386,1.1837,1.1861,1.146,1.0925,1.0591,1.0525,1.0642,1.086,1.1047,1.1047,1.0855,1.0505,1.0482,1.0194,0.9781,0.9577,0.9188,0.8531,0.7015,0.636,0.6176,0.5931,0.6447,0.6929,0.5751,0.5744,0.591,0.4609,0.4285,0.44,0.4834,0.5641,0.6427,0.6701,0.7235,0.743,0.6489,0.0,0.5563,0.4637,0.0,0.3035,0.2119,0.0,0.0,0.049,0.0855,0.1405,0.1895,0.2977,0.4124,0.5182,0.5815,0.6417,0.7022,0.7814,0.8414,0.8699,0.8396,0.8276,0.8477,0.9129,0.9765,1.0283,0.9843,0.9558,0.9469,0.8999,0.8716,0.8504,0.8594,0.8807,0.9154,0.9066,0.8967,0.8881,0.8872,0.8753,0.8568,0.8568,0.8724,0.891,0.8804,0.8804,0.8804,0.8804,0.8804,0.891,1.1067,1.1096,0.0,0.0,1.1876,1.2003,1.1927,1.1891,1.1876,1.1869,1.1783,1.1718,1.1756,1.2004,1.1995,1.1648,1.1804,1.1927,1.2032,1.1912,1.1827,1.1712,1.186,1.1588,1.0814,1.1939,1.214,1.1375,1.182,1.1873,1.1536,1.0802,1.0481,1.0503,1.0675,1.0647,1.0469,1.0974,1.0545,0.9647,1.0658,1.062,0.9934,0.9645,0.8942,0.7952,0.6869,0.6661,0.6932,0.7133,0.7346,0.7524,0.7578,0.7116,0.6471,0.6062,0.6053,0.6218,0.6522,0.7362,0.8145,0.7998,0.803,0.7865,0.6771,0.6338,0.5913,0.4948,0.0,0.0,0.0,0.0,0.0,0.0,0.0979,0.1405,0.1573,0.2434,0.3346,0.4217,0.5164,0.6079,0.6975,0.7295,0.7699,0.83,0.8229,0.8575,0.9572,0.9823,0.9873,0.9679,0.9864,0.9677,0.9039,0.9119,0.8999,0.8716,0.8716,0.8799,0.8948,0.9155,0.8989,0.8566,0.8752,0.8654,0.8427,0.8427,0.8544,0.8804,0.8804,0.8804,0.8804,0.8804,0.8804,0.891,1.1846,0.0,1.171,1.1608,1.1854,1.1982,1.1733,1.1822,1.194,1.194,1.1974,1.1952,1.1855,1.1941,1.1718,1.1056,1.1078,1.1172,1.1273,1.1312,1.1362,1.1495,1.1875,1.1726,1.0923,1.2167,1.2363,1.1492,1.1936,1.1948,1.1585,1.0858,1.0441,1.0255,1.0364,1.017,0.983,1.049,1.0241,0.9429,1.0919,1.0987,1.019,0.967,0.8747,0.7593,0.6856,0.6911,0.74,0.8043,0.8105,0.8059,0.8875,0.8265,0.7284,0.7312,0.7671,0.8087,0.8223,0.9028,0.9631,0.9042,0.8716,0.8258,0.7201,0.6695,0.627,0.5575,0.4826,0.0,0.0,0.0,0.1558,0.1167,0.0,0.159,0.1519,0.2146,0.2798,0.3231,0.4478,0.5716,0.68,0.6945,0.7159,0.767,0.7888,0.8652,1.0214,1.0078,0.9825,0.9512,0.9864,0.9774,0.9163,0.9377,0.9319,0.8918,0.8918,0.8969,0.9079,0.9045,0.8779,0.8371,0.8562,0.8468,0.8257,0.8343,0.8544,0.8804,0.8804,0.891,0.9061,0.8857,0.891,0.9159,1.2517,1.2404,1.2189,1.1918,1.206,1.2143,1.2012,1.2313,1.2444,1.2046,1.2437,1.2359,1.133,1.1058,1.0872,1.0734,1.0527,1.0819,1.1708,1.1956,1.2034,1.1962,1.188,1.185,1.196,1.2323,1.2433,1.2261,1.2584,1.2433,1.1783,1.1361,1.0609,0.9609,0.9451,0.9303,0.9254,0.9457,0.9847,1.0421,1.1319,1.1376,1.0772,0.9762,0.8802,0.7847,0.6934,0.6767,0.7175,0.83,0.8675,0.869,0.8849,0.9069,0.9123,0.8586,0.913,0.9924,0.9928,1.0476,1.0755,0.9649,0.9215,0.887,0.8039,0.7192,0.6587,0.6561,0.5341,0.4277,0.4251,0.3372,0.2546,0.2206,0.2007,0.0,0.0,0.2157,0.2375,0.225,0.3767,0.5158,0.6051,0.6877,0.7285,0.7034,0.7378,0.8388,1.0208,0.9497,0.943,1.0235,0.9804,0.9771,1.0251,0.9732,0.9478,0.9478,0.9478,0.9677,0.9996,0.8866,0.84,0.8459,0.8115,0.7936,0.7922,0.8257,0.8544,0.8804,0.8804,0.9211,0.9666,0.9061,0.9211,0.9865,1.3219,1.2951,1.2572,1.2396,1.2475,1.2578,1.2706,1.2658,1.2497,1.2163,1.2076,1.171,1.0935,1.0691,1.0314,0.9688,0.9743,0.9973,1.0376,1.0563,1.0855,1.1313,1.1727,1.192,1.1931,1.2608,1.3051,1.3287,1.297,1.2749,1.2637,1.1153,1.0063,0.9326,0.8829,0.8416,0.8122,0.9142,0.9485,0.9442,1.0449,1.0349,0.9649,0.98,0.9276,0.8334,0.7236,0.719,0.7697,0.8431,0.8918,0.9293,0.9704,0.9751,0.9692,0.9682,1.0339,1.1064,1.1045,1.1555,1.1936,1.127,1.0184,0.9098,0.8605,0.7783,0.6959,0.6376,0.5672,0.4983,0.4402,0.3711,0.31,0.2665,0.2698,0.2725,0.0,0.2853,0.3186,0.3554,0.4065,0.469,0.5439,0.5706,0.586,0.5999,0.6311,0.6867,0.7795,0.8517,0.8964,0.9239,0.9755,0.9941,0.9781,0.9576,0.9518,0.9478,0.9159,0.8864,0.8649,0.8574,0.8406,0.8135,0.8635,0.8686,0.845,0.8868,0.9228,0.9465,0.9465,0.9865,1.0364,0.9718,0.9865,1.0517,1.3147,1.3045,1.2875,1.2884,1.2799,1.289,1.3352,1.3218,1.2963,1.2632,1.2143,1.1583,1.0906,1.0279,0.9629,0.8911,0.8865,0.9023,0.9414,0.9655,1.004,1.0723,1.1431,1.1836,1.1872,1.2507,1.302,1.3404,1.2831,1.2485,1.2303,1.0878,0.963,0.8607,0.8236,0.7765,0.7379,0.8958,0.9563,0.9552,1.0216,1.0016,0.9283,0.9204,0.8728,0.8005,0.7266,0.7405,0.7995,0.8521,0.9039,0.9597,1.0118,1.0174,1.0136,1.065,1.1346,1.1931,1.2086,1.2418,1.2614,1.2191,1.0905,0.9686,0.9579,0.8575,0.756,0.705,0.6369,0.5687,0.5211,0.4454,0.3862,0.3641,0.3726,0.3892,0.0,0.4148,0.4305,0.4711,0.4335,0.4334,0.5026,0.4785,0.4741,0.5022,0.521,0.5689,0.6639,0.7755,0.8626,0.9239,1.0103,1.0219,0.9596,0.978,0.9697,0.936,0.8824,0.8435,0.8201,0.8357,0.8429,0.8438,0.8905,0.902,0.8949,0.9125,0.9431,0.9814,0.9814,1.0364,1.1065,1.0167,1.0064,1.0466,1.2471,1.2754,1.3108,1.3425,1.3107,1.3096,1.3922,1.3943,1.3738,1.3364,1.2659,1.1883,1.1092,0.9788,0.8798,0.8413,0.7969,0.8055,0.8916,0.9298,0.9727,1.0253,1.1019,1.1553,1.1774,1.2029,1.2318,1.2709,1.227,1.1648,1.0884,1.0516,0.9351,0.7596,0.756,0.7324,0.7036,0.8793,1.0013,1.0822,1.0714,1.0302,0.9632,0.8162,0.7348,0.7036,0.7056,0.7405,0.7995,0.8578,0.9105,0.9634,1.0175,1.0371,1.0508,1.1457,1.2088,1.2531,1.2877,1.2907,1.2782,1.2372,1.1418,1.0634,1.0902,0.9545,0.8268,0.8427,0.7349,0.6419,0.6573,0.5633,0.4896,0.5125,0.5068,0.5297,0.62,0.5877,0.5574,0.5659,0.4651,0.4207,0.4856,0.4337,0.4048,0.4252,0.4215,0.4992,0.6794,0.7273,0.8326,1.0186,1.0653,1.0516,0.9827,1.0232,1.0013,0.905,0.8545,0.8419,0.8675,0.8193,0.8464,0.9271,0.8921,0.9021,0.9358,0.904,0.9256,0.9865,0.9865,1.0661,1.1616,1.0364,0.9917,0.9961,1.3104,1.3314,1.3615,1.4444,1.3686,1.3367,1.4571,1.4053,1.3458,1.334,1.2412,1.1269,1.0046,0.9088,0.8366,0.792,0.7763,0.7959,0.8506,0.8895,0.9308,0.9775,1.0298,1.0954,1.1653,1.1505,1.1836,1.265,1.1803,1.1239,1.0863,0.9689,0.8506,0.7349,0.7007,0.6977,0.7268,0.8188,0.9552,1.1132,1.1384,1.0654,0.939,0.9076,0.8415,0.7597,0.7648,0.7787,0.8074,0.9315,0.9828,1.0091,1.0997,1.1006,1.0912,1.1871,1.211,1.2137,1.2425,1.2485,1.2442,1.2133,1.1704,1.1376,1.1652,1.016,0.8592,0.8144,0.7652,0.7097,0.661,0.6536,0.6458,0.6175,0.6058,0.6178,0.6615,0.6474,0.6372,0.6551,0.6194,0.5744,0.5252,0.5008,0.5019,0.537,0.4595,0.4842,0.6442,0.7233,0.8149,0.93,0.996,1.0224,1.0004,0.9081,0.8656,0.8816,0.8242,0.8237,0.8724,0.8958,0.9122,0.9185,0.9815,0.9768,0.9308,0.9977,1.0364,1.061,1.1116,1.1216,1.1065,1.1216,1.1266,1.1266,1.3428,1.349,1.3682,1.421,1.3753,1.3881,1.5494,1.4529,1.3656,1.3781,1.2386,1.1089,1.0294,0.9058,0.8154,0.7772,0.7491,0.749,0.7812,0.8248,0.8645,0.9052,0.9903,1.0578,1.1043,1.1248,1.1494,1.1791,1.1105,1.0406,0.975,0.8852,0.7935,0.6975,0.6851,0.6843,0.7078,0.8165,0.9183,1.0091,1.0264,0.9855,0.0,0.8545,0.8423,0.8553,0.8586,0.8594,0.8733,0.9763,1.0266,1.0601,1.1383,1.1439,1.1364,1.2061,1.1999,1.1787,1.1866,1.1875,1.1715,1.1211,1.0702,1.0709,1.2058,1.0878,0.9353,0.8711,0.7927,0.7431,0.7807,0.7648,0.7414,0.7126,0.7108,0.7208,0.7385,0.7374,0.7374,0.7416,0.7343,0.7084,0.6484,0.5976,0.5737,0.5926,0.5137,0.5445,0.7276,0.7225,0.781,0.928,0.9632,0.9475,0.8877,0.8881,0.8699,0.8311,0.8369,0.85,0.8724,0.9129,0.9351,0.9415,1.0097,1.0233,0.9945,1.0537,1.0965,1.1266,1.1665,1.1566,1.1266,1.1316,1.1166,1.0914,1.3513,1.3484,1.3513,1.3704,1.376,1.446,1.6502,1.5188,1.4032,1.4272,1.2531,1.1204,1.0897,0.9338,0.8129,0.7723,0.7197,0.6934,0.7015,0.744,0.7864,0.8198,0.9496,1.0266,1.0301,1.1009,1.1148,1.0654,1.023,0.9362,0.8176,0.7991,0.7482,0.6661,0.6886,0.7009,0.7076,0.8581,0.9078,0.8832,0.8683,0.884,0.9021,0.7657,0.8171,0.9597,0.9597,0.9558,0.9591,1.0118,1.0611,1.1084,1.1626,1.1689,1.164,1.203,1.1772,1.1341,1.1324,1.1137,1.0818,1.0041,0.9298,0.9373,1.184,1.1255,1.0003,0.9491,0.8314,0.7912,0.9716,0.8995,0.8134,0.8079,0.8152,0.8223,0.8329,0.8457,0.8485,0.8308,0.8358,0.0,0.8099,0.708,0.6406,0.6378,0.5784,0.6277,0.8268,0.7145,0.7341,0.9313,0.9319,0.8761,0.7592,0.9189,0.94,0.8099,0.881,0.9045,0.888,0.9164,0.9476,0.9777,1.0144,1.0491,1.0813,1.0813,1.1166,1.1665,1.1665,1.1665,1.1616,1.1015,1.0415,1.0012,1.3539,1.3365,1.3697,1.5337,1.4484,1.4431,1.7041,1.5583,1.406,1.3838,1.2941,1.1658,0.9876,0.9096,0.8264,0.7148,0.695,0.6828,0.6626,0.6987,0.7246,0.7314,0.8548,0.9464,0.9888,1.0453,1.0504,0.9973,0.9301,0.8448,0.7463,0.7164,0.6983,0.6845,0.7018,0.781,0.9081,0.9299,0.9662,1.0153,0.9969,0.9707,0.9408,0.9128,0.95,1.0157,1.0157,0.9883,0.9667,1.0918,1.1402,1.1636,1.2393,1.2044,1.1351,1.1752,1.1039,1.0194,1.0625,1.0586,1.0285,0.969,0.919,0.8967,0.9753,0.9676,0.9369,0.8906,0.9101,0.9917,1.195,1.0818,0.9547,0.9542,0.9061,0.8773,0.8987,0.9453,0.9671,0.9387,0.9694,0.9693,0.912,0.7877,0.7317,0.781,0.6413,0.6018,0.7049,0.6922,0.7053,0.7549,0.8334,0.8836,0.9043,0.9082,0.9308,0.9717,0.9634,0.9636,0.9723,1.0153,1.026,1.0146,1.0776,1.0922,1.0813,1.0813,1.0864,1.0965,1.0965,1.0965,1.0965,1.0864,1.072,1.0669,1.3403,1.3439,1.3744,1.4427,1.4218,1.4547,1.6236,1.524,1.4172,1.396,1.2884,1.1594,0.9989,0.9172,0.8265,0.7059,0.6692,0.6353,0.592,0.6376,0.6694,0.6694,0.7843,0.8725,0.9271,0.9772,0.9776,0.9226,0.875,0.8038,0.7075,0.6977,0.695,0.7085,0.8016,0.8588,0.8803,0.9508,0.9787,0.9674,0.9187,0.9222,0.9478,0.9199,0.9399,0.9911,1.0037,0.9851,0.9689,1.0839,1.141,1.1714,1.2334,1.2034,1.1637,1.2206,1.1354,1.0231,1.0343,1.0139,0.967,0.8882,0.8964,0.9275,0.9392,0.9479,0.9641,1.029,1.093,1.1704,1.2742,1.2098,1.1324,1.0911,0.9961,0.9481,1.0044,1.0032,0.9968,0.9905,1.0481,1.0561,0.9732,0.9235,0.88,0.8393,0.712,0.6789,0.773,0.6873,0.6814,0.785,0.829,0.8289,0.7902,0.9358,0.9831,0.9273,0.9879,1.0241,1.038,1.0369,1.0356,1.0341,1.1156,1.1242,1.0813,1.0813,1.0813,1.0813,1.0813,1.0813,1.0813,1.0813,1.0568,1.0312,1.3779,1.3822,1.3907,1.3714,1.4007,1.458,1.5349,1.4686,1.4017,1.3823,1.2512,1.1141,0.9836,0.9022,0.8095,0.7018,0.6537,0.6062,0.5531,0.5969,0.6275,0.6275,0.73,0.8122,0.8659,0.9232,0.9355,0.9093,0.8607,0.8038,0.7357,0.7067,0.7194,0.7706,0.9014,0.9384,0.9149,1.0085,1.0155,0.9631,0.8712,0.8915,0.9713,0.9099,0.9223,0.9758,1.0025,0.9953,0.9858,1.0596,1.1184,1.165,1.2003,1.1879,1.1683,1.2109,1.128,1.0172,0.9972,1.0084,0.9906,0.8704,0.9202,0.9966,0.9873,0.9892,1.0323,1.1636,1.2448,1.29,1.2915,1.2893,1.2594,1.1724,1.064,1.0103,1.0653,1.0623,1.0486,1.0403,1.1245,1.1437,1.0463,1.044,1.0004,0.8883,0.786,0.7693,0.8633,0.6924,0.6656,0.8331,0.8178,0.7784,0.7138,0.956,1.0221,0.9064,1.0163,1.063,1.065,1.0569,1.0595,1.0748,1.1483,1.1366,1.0568,1.0568,1.0568,1.0618,1.0762,1.0813,1.0813,1.0813,1.0364,0.9865,1.5402,1.4751,1.4462,1.5375,1.4678,1.425,1.5194,1.4198,1.3264,1.2787,1.1767,1.0321,0.834,0.8036,0.7599,0.6731,0.6586,0.6451,0.6129,0.6172,0.6222,0.6222,0.7009,0.7694,0.8244,0.9076,0.9775,1.0346,0.8986,0.8487,0.8871,0.7405,0.7595,0.919,0.9156,1.0465,1.2658,1.163,1.1489,1.1888,1.0462,1.0218,1.0602,0.9749,0.9879,1.0507,1.0732,1.0658,1.0507,1.0588,1.1076,1.1611,1.1776,1.139,1.0762,1.0233,0.9555,0.8974,0.8928,1.0712,1.2138,1.0442,1.0656,1.1213,1.0781,1.0857,1.1122,1.1452,1.2289,1.289,1.2888,1.2919,1.2531,1.1354,1.0816,1.0376,0.9961,1.1461,1.2222,1.1148,1.2303,1.2773,1.166,1.0838,1.0233,0.9811,0.8545,0.8068,0.8664,0.7131,0.6649,0.7584,0.7276,0.7777,0.9119,0.9406,1.0011,1.0942,1.0836,1.0598,1.03,1.1239,1.1661,1.1661,1.1747,1.1065,0.9917,0.9917,0.9917,0.9961,1.0568,1.0813,1.0813,1.0813,1.0364,0.971,1.5169,1.4917,1.4765,1.5196,1.4732,1.4502,1.4969,1.3485,1.2173,1.1651,1.0961,0.9845,0.8085,0.7919,0.7532,0.6692,0.6587,0.6466,0.6209,0.6357,0.6458,0.6458,0.6887,0.7566,0.85,0.8842,0.96,1.076,0.929,0.9491,1.115,0.9689,0.983,1.1356,1.189,1.2323,1.2564,1.2104,1.1827,1.164,1.0445,1.033,1.0757,1.0394,1.0467,1.0758,1.101,1.0624,1.0126,1.0578,1.1004,1.1288,1.0941,1.0548,1.0174,1.0051,0.9851,0.965,0.965,1.0802,1.184,1.0812,1.1115,1.1648,1.144,1.1813,1.2243,1.2297,1.2657,1.2881,1.2881,1.2905,1.2843,1.2647,1.1879,1.1405,1.1672,1.2373,1.2673,1.2191,1.3205,1.3476,1.2367,1.1913,1.1333,1.0398,0.9031,0.8058,0.76,0.7723,0.7903,0.8156,0.8663,0.9252,0.9987,1.0165,1.0548,1.1161,1.0896,1.1148,1.1819,1.18,1.1814,1.1765,1.0965,1.0312,0.9762,0.9361,0.9465,0.9814,1.0115,1.0218,1.0218,1.0218,0.9762,0.9187,1.532,1.5057,1.4747,1.4787,1.4506,1.4261,1.425,1.2892,1.1547,1.0831,0.9959,0.8931,0.7545,0.7412,0.7148,0.6531,0.6478,0.6467,0.6426,0.6607,0.6713,0.6713,0.7161,0.7906,0.8873,0.9338,1.0317,1.184,1.0711,1.1247,1.3349,1.1848,1.1737,1.2815,1.3549,1.3444,1.2659,1.2705,1.239,1.1771,1.0938,1.0894,1.1406,1.1118,1.1075,1.1113,1.1426,1.0848,1.0136,1.0838,1.1094,1.0976,1.0295,1.0216,1.0312,0.9909,0.9791,0.9879,1.0427,1.1243,1.1799,1.1242,1.1625,1.2129,1.2129,1.251,1.2881,1.2881,1.2881,1.2881,1.2881,1.2881,1.2972,1.3125,1.2521,1.2194,1.2555,1.2991,1.3146,1.2723,1.3659,1.3884,1.2829,1.2653,1.2088,1.0824,0.995,0.9008,0.7951,0.8338,0.8633,0.8779,0.9191,0.9598,0.9996,1.0187,1.0532,1.0985,1.1047,1.1625,1.2559,1.203,1.1566,1.1166,1.021,0.9666,0.9465,0.9008,0.9211,0.9814,0.9814,0.9814,0.9829,0.9926,0.9503,0.8978,1.6384,1.5367,1.4413,1.4499,1.3915,1.3265,1.2812,1.2387,1.1695,1.0556,0.8802,0.7274,0.6318,0.6221,0.6221,0.6221,0.6221,0.6428,0.6965,0.6972,0.6979,0.6979,0.7946,0.8735,0.929,1.0841,1.2443,1.4057,1.3597,1.4009,1.5221,1.3477,1.2869,1.318,1.3125,1.3355,1.3758,1.3758,1.3457,1.2832,1.2346,1.2433,1.2773,1.1939,1.1648,1.18,1.2082,1.1595,1.0897,1.1557,1.1366,1.0712,1.0005,1.0712,1.139,0.938,0.8834,0.9199,1.1006,1.2145,1.2712,1.195,1.2344,1.2881,1.2881,1.2881,1.2881,1.2881,1.2881,1.2881,1.2881,1.2881,1.273,1.2192,1.2426,1.2424,1.1711,1.3275,1.3974,1.2568,1.3543,1.3966,1.3179,1.2796,1.216,1.1092,1.146,1.1383,1.0502,0.8986,0.845,0.916,0.8054,0.7976,0.9098,0.9113,0.9684,1.0813,1.1458,1.1814,1.1814,1.1814,1.1065,0.9814,0.9814,0.9413,0.8804,0.8804,0.9211,0.9814,0.9814,0.9814,0.9859,1.018,0.9824,0.9216,1.549,1.5095,1.4541,1.4261,1.3909,1.3455,1.2882,1.1723,1.0443,0.9136,0.785,0.6622,0.5448,0.554,0.5895,0.6297,0.6437,0.663,0.6992,0.7559,0.7932,0.8019,0.8672,0.9458,1.0286,1.1219,1.2507,1.4123,1.341,1.3819,1.5327,1.603,1.6018,1.5353,1.4938,1.4383,1.3768,1.3372,1.3055,1.2871,1.2725,1.2754,1.2852,1.2616,1.2531,1.254,1.2667,1.2134,1.1466,1.1216,1.1266,1.1266,1.0167,1.0415,1.1007,1.0367,1.0479,1.0964,1.1525,1.2292,1.2822,1.2618,1.2715,1.2881,1.2881,1.2881,1.2881,1.2881,1.2881,1.2881,1.2881,1.2881,1.2829,1.2564,1.2709,1.2762,1.2476,1.3187,1.3716,1.3639,1.4137,1.4488,1.4474,1.4333,1.3716,1.2452,1.2968,1.2412,1.0123,1.0704,1.1091,1.1032,1.1064,1.1277,1.1673,1.0727,1.0944,1.2206,1.1922,1.1814,1.1765,1.0864,1.0218,0.9762,0.9309,0.9008,0.8804,0.8804,0.891,0.9106,0.9106,0.9106,0.9253,1.0087,1.0307,1.0163,1.5131,1.4787,1.4318,1.4125,1.3527,1.2938,1.2483,1.1149,0.9734,0.8616,0.7665,0.6722,0.5668,0.5731,0.5949,0.6236,0.6562,0.6963,0.7331,0.8067,0.8581,0.867,0.9587,1.0392,1.1004,1.2218,1.33,1.435,1.4491,1.5093,1.6087,1.7263,1.7066,1.574,1.5363,1.4562,1.342,1.3065,1.2881,1.2881,1.2881,1.2881,1.2881,1.2881,1.2715,1.2501,1.2501,1.1882,1.1065,1.1048,1.1199,1.1316,1.0645,1.0805,1.1157,1.1099,1.1616,1.2187,1.2187,1.2559,1.2881,1.2881,1.2881,1.2881,1.2881,1.2881,1.2881,1.2881,1.2881,1.2881,1.2881,1.2881,1.289,1.2802,1.2849,1.2949,1.3195,1.362,1.4013,1.4341,1.4594,1.4813,1.4929,1.5157,1.4771,1.3513,1.4087,1.3674,1.1866,1.2107,1.216,1.1764,1.1895,1.1988,1.2041,1.143,1.159,1.2501,1.203,1.1566,1.1015,1.0415,1.0133,1.0046,0.9411,0.9281,0.9425,0.895,0.8804,0.8804,0.8804,0.9077,0.9528,1.0374,1.0902,1.1368,1.5051,1.4359,1.3684,1.3868,1.2667,1.1715,1.1665,1.0618,0.954,0.8738,0.8078,0.7402,0.6696,0.6555,0.6401,0.6139,0.6741,0.7356,0.7929,0.8631,0.9004,0.9051,1.062,1.149,1.1518,1.3573,1.4663,1.4698,1.6361,1.7175,1.7133,1.7175,1.6262,1.4652,1.4652,1.3978,1.2881,1.2881,1.2881,1.2881,1.2881,1.2881,1.2881,1.2881,1.2452,1.1814,1.1814,1.0965,1.0012,1.1065,1.1182,1.0956,1.1364,1.1679,1.1805,1.1522,1.2061,1.2783,1.2822,1.2881,1.2891,1.2881,1.2881,1.2881,1.2881,1.2881,1.2881,1.2881,1.2881,1.2881,1.2881,1.2881,1.2881,1.2881,1.2881,1.3097,1.3729,1.4272,1.4616,1.4661,1.4901,1.5029,1.4898,1.5492,1.5446,1.4381,1.4885,1.5157,1.4995,1.3259,1.2121,1.1713,1.109,1.0747,1.0737,1.1366,1.1739,1.181,1.1787,1.1091,0.9985,1.0538,1.0721,1.0485,1.0046,1.0091,1.0369,0.9266,0.8851,0.8864,0.8918,0.961,1.0592,1.0984,1.1767,1.2722,1.3471,1.2832,1.2122,1.1679,1.1297,1.0864,1.0364,1.0012,0.934,0.8078,0.7824,0.7402,0.6696,0.7079,0.7395,0.728,0.7359,0.7745,0.8623,0.9447,1.0153,1.0766,1.1584,1.2186,1.2561,1.349,1.4236,1.4698,1.5576,1.5752,1.532,1.5796,1.5297,1.4003,1.4003,1.36,1.2881,1.2881,1.2881,1.2881,1.2881,1.2881,1.2881,1.2881,1.2452,1.1814,1.1814,1.1266,1.0551,1.0537,1.0956,1.1557,1.1513,1.2003,1.2403,1.1316,1.1368,1.1872,1.1999,1.2469,1.29,1.29,1.2881,1.2881,1.2881,1.2881,1.2881,1.2881,1.2881,1.2881,1.2881,1.2881,1.2881,1.2881,1.2881,1.2916,1.2964,1.3416,1.3905,1.4474,1.5314,1.6083,1.6691,1.6898,1.6779,1.6219,1.6598,1.632,1.5058,1.5124,1.484,1.3956,1.334,1.2815,1.2377,1.2522,1.2429,1.2155,1.1353,1.1099,1.1366,1.1044,1.0877,1.077,1.0492,1.0163,0.9831,0.9314,0.9272,0.9529,1.0178,1.055,1.0992,1.2533,1.3261,1.3651,1.2325,1.2012,1.1531,1.0681,1.0402,1.0218,0.9865,0.9562,0.8942,0.783,0.7996,0.7937,0.7182,0.7777,0.8309,0.8613,0.8572,0.8767,0.9291,1.0319,1.1111,1.1547,1.2168,1.2637,1.2871,1.3505,1.4097,1.4698,1.5005,1.5017,1.4698,1.5062,1.4687,1.3815,1.3815,1.3457,1.2881,1.2881,1.2881,1.2881,1.2881,1.2881,1.2881,1.2881,1.2452,1.1814,1.1814,1.1366,1.0746,1.0364,1.0839,1.163,1.1513,1.2138,1.2635,1.1191,1.1149,1.1598,1.2187,1.2607,1.291,1.29,1.3027,1.3164,1.3164,1.3311,1.3457,1.3457,1.3457,1.3389,1.3203,1.3164,1.3105,1.291,1.2763,1.2725,1.3014,1.3443,1.4136,1.5128,1.6125,1.699,1.7702,1.799,1.7934,1.7474,1.7696,1.7289,1.6021,1.5874,1.5421,1.4573,1.4146,1.3781,1.3447,1.309,1.2447,1.1576,1.1368,1.1343,1.1447,1.1735,1.1833,1.1636,1.1281,1.088,1.0369,0.9731,0.9761,1.0293,1.0736,1.1445,1.2379,1.3629,1.4123,1.4309,1.1639,1.1499,1.119,1.016,0.9813,0.9666,0.9666,0.9159,0.8586,0.7937,0.8427,0.854,0.7943,0.8527,0.9159,0.9762,1.0064,1.0261,1.0261,1.1208,1.1913,1.211,1.2598,1.2881,1.2881,1.342,1.392,1.4433,1.4525,1.4525,1.4433,1.4514,1.4236,1.3637,1.3637,1.3372,1.2881,1.2881,1.2881,1.2881,1.2881,1.2881,1.2881,1.2881,1.2452,1.1814,1.1814,1.1308,1.0671,1.0458,1.0888,1.1504,1.167,1.2234,1.2653,1.146,1.1388,1.1865,1.257,1.2822,1.29,1.3018,1.3252,1.3525,1.3584,1.3824,1.4077,1.4077,1.4077,1.4004,1.3584,1.3506,1.3369,1.2949,1.2663,1.2701,1.3309,1.3961,1.4815,1.5983,1.7115,1.7928,1.8405,1.8945,1.9108,1.8731,1.8696,1.8232,1.727,1.6421,1.5488,1.448,1.4218,1.4024,1.3917,1.3086,1.2049,1.0982,1.1582,1.172,1.1451,1.2582,1.2941,1.2655,1.2085,1.1553,1.1152,1.0265,1.0393,1.105,1.1279,1.2438,1.3935,1.439,1.4708,1.4934,1.1453,1.0761,0.9879,0.9123,0.8992,0.8956,0.8956,0.8857,0.8752,0.8646,0.8752,0.8752,0.8646,0.9256,0.9666,0.9814,1.134,1.2327,1.2327,1.2003,1.2307,1.3426,1.3094,1.2881,1.2881,1.2968,1.3113,1.3152,1.3695,1.3695,1.32,1.3695,1.36,1.3065,1.3065,1.2968,1.2881,1.2881,1.2881,1.2881,1.2881,1.2881,1.2881,1.2881,1.2452,1.1814,1.1814,1.1173,1.042,1.1064,1.1379,1.1661,1.2433,1.2783,1.2852,1.2627,1.2647,1.2579,1.208,1.2452,1.3027,1.346,1.3537,1.3603,1.3902,1.4038,1.4077,1.4077,1.4077,1.4004,1.3584,1.3506,1.3319,1.2802,1.2774,1.2969,1.3352,1.4492,1.5556,1.6169,1.8147,1.9459,1.9547,2.0075,2.0577,2.0953,2.0573,1.9556,1.7767,1.8204,1.7367,1.483,1.4341,1.3746,1.3086,1.1922,1.1616,1.2107,1.191,1.2458,1.367,1.3195,1.2989,1.2901,1.1814,1.1158,1.0711,1.0986,1.1308,1.1798,1.3186,1.3883,1.425,1.4963,1.5505,1.5741,1.0557,1.0138,0.9599,0.8894,0.8778,0.8804,0.8804,0.8804,0.8804,0.8804,0.9106,0.9361,0.9361,1.0246,1.0981,1.139,1.2278,1.311,1.3784,1.3215,1.314,1.3768,1.3238,1.2881,1.2881,1.2881,1.2881,1.2881,1.32,1.3152,1.2929,1.32,1.3152,1.2881,1.2881,1.2881,1.2881,1.2881,1.2881,1.2881,1.2881,1.2881,1.2881,1.2881,1.2666,1.2393,1.2393,1.207,1.1747,1.211,1.2267,1.2325,1.2764,1.2881,1.293,1.3154,1.3057,1.2871,1.2776,1.2943,1.332,1.3812,1.4086,1.4248,1.4434,1.4658,1.4824,1.4824,1.4824,1.4697,1.4268,1.4004,1.3727,1.3481,1.3252,1.3377,1.4107,1.5381,1.6527,1.7454,1.9133,2.0388,2.0677,2.0953,2.1217,2.1468,2.1255,2.036,1.8612,1.8865,1.7781,1.4949,1.4557,1.3909,1.2784,1.2498,1.2461,1.2664,1.268,1.32,1.4156,1.3713,1.3163,1.2586,1.2491,1.1981,1.1274,1.1973,1.2542,1.3191,1.4196,1.4703,1.4949,1.6088,1.6114,1.5703,0.9607,0.9562,0.9413,0.891,0.8804,0.8804,0.8804,0.8804,0.8857,0.9008,0.9465,0.9909,1.0202,1.1273,1.2162,1.2764,1.3062,1.3595,1.4422,1.405,1.3815,1.3815,1.3238,1.2881,1.2881,1.2881,1.2881,1.2881,1.2881,1.2881,1.2881,1.2881,1.2881,1.2881,1.2881,1.2881,1.2881,1.2881,1.2881,1.2881,1.2881,1.2881,1.2881,1.2881,1.2881,1.2881,1.2881,1.2764,1.2598,1.2608,1.2734,1.282,1.3027,1.3066,1.3163,1.3625,1.3488,1.3232,1.3494,1.3591,1.376,1.4263,1.4684,1.4961,1.5059,1.541,1.5713,1.5713,1.5713,1.5586,1.5166,1.4727,1.4478,1.4631,1.4243,1.4391,1.562,1.6746,1.7885,1.8943,2.027,2.1217,2.1644,2.1794,2.187,2.187,2.1686,2.0909,1.9351,1.921,1.7978,1.5351,1.4755,1.3941,1.2861,1.338,1.338,1.2986,1.338,1.3753,1.4024,1.376,1.3278,1.2695,1.3091,1.2941,1.2437,1.3248,1.3935,1.4572,1.5084,1.5449,1.584,1.6855,1.6607,1.5974,0.8857,0.8857,0.8857,0.8811,0.8804,0.8804,0.8804,0.8804,0.9008,0.9666,0.9762,1.0254,1.1414,1.226,1.2715,1.2822,1.3878,1.4376,1.3909,1.3815,1.3815,1.3815,1.3238,1.2881,1.2881,1.2881,1.2881,1.2881,1.2881,1.2881,1.2881,1.2881,1.2881,1.2881,1.2881,1.2881,1.2881,1.2881,1.2881,1.2881,1.2881,1.2881,1.2881,1.2881,1.2881,1.2881,1.2881,1.2325,1.1621,1.1805,1.2126,1.2574,1.3384,1.3661,1.3772,1.4364,1.4291,1.398,1.3738,1.3883,1.4272,1.5079,1.5345,1.5469,1.5939,1.6318,1.6568,1.6568,1.6568,1.6504,1.6055,1.5615,1.5533,1.6187,1.6081,1.6501,1.819,1.903,1.977,2.0473,2.1518,2.2209,2.2246,2.2711,2.2952,2.2952,2.2262,2.1299,1.9941,1.9469,1.8435,1.6501,1.4655,1.3553,1.3324,1.3957,1.3957,1.3395,1.3827,1.3991,1.3892,1.3109,1.3227,1.3917,1.3196,1.338,1.4195,1.4974,1.5359,1.5496,1.6271,1.6597,1.665,1.6748,1.6947,1.7268,0.8804,0.8804,0.8804,0.8804,0.8804,0.8804,0.8804,0.9159,0.951,0.9762,1.0897,1.1828,1.2318,1.3338,1.3982,1.3982,1.4086,1.405,1.3815,1.3467,1.3238,1.3238,1.3017,1.2881,1.2881,1.2881,1.2881,1.2881,1.2881,1.2881,1.2881,1.2881,1.2881,1.2881,1.2881,1.2881,1.2881,1.2881,1.2881,1.2881,1.2881,1.2881,1.2881,1.2881,1.2881,1.2881,1.2881,1.2657,1.2384,1.2452,1.2795,1.3269,1.3491,1.3733,1.4038,1.4484,1.5041,1.5459,1.5359,1.5119,1.4971,1.529,1.5645,1.5859,1.6086,1.6201,1.6396,1.668,1.6665,1.668,1.6514,1.6578,1.6819,1.7336,1.7656,1.8298,1.9583,2.0397,2.1002,2.1644,2.2359,2.2824,2.2824,2.2952,2.3021,2.2771,2.2181,2.1285,1.9965,1.8258,1.684,1.579,1.5347,1.4979,1.4544,1.4461,1.4461,1.4476,1.3789,1.3585,1.3785,1.3449,1.3406,1.3682,1.4412,1.4878,1.5127,1.5927,1.6256,1.6284,1.6893,1.6973,1.6797,1.7334,1.7627,1.7812,0.8804,0.8804,0.8857,0.9061,0.8962,0.8962,0.9361,0.9666,0.9961,1.0364,1.1763,1.2841,1.3272,1.4053,1.4595,1.4595,1.4136,1.3732,1.3552,1.3152,1.2881,1.2881,1.2881,1.2881,1.2881,1.2881,1.2881,1.2881,1.2881,1.2881,1.2881,1.2881,1.2881,1.2881,1.2881,1.2881,1.2881,1.2881,1.2881,1.2881,1.2881,1.2881,1.2881,1.2881,1.2881,1.29,1.278,1.2719,1.2738,1.2651,1.3082,1.3724,1.3643,1.4028,1.4574,1.4783,1.5398,1.6113,1.6354,1.6198,1.5916,1.5859,1.6055,1.6309,1.6364,1.6572,1.6758,1.707,1.7129,1.7129,1.7129,1.7491,1.8033,1.891,1.94,2.0081,2.1328,2.1807,2.2146,2.2523,2.2912,2.3005,2.2763,2.285,2.2638,2.1917,2.1659,2.093,1.9558,1.7823,1.6629,1.6079,1.616,1.6082,1.5649,1.5324,1.5135,1.499,1.3815,1.3457,1.3673,1.3673,1.3905,1.4375,1.5608,1.6209,1.6309,1.686,1.7129,1.7158,1.7461,1.748,1.7402,1.7988,1.8291,1.8447,0.8811,0.8811,0.9008,0.971,0.9263,0.9263,1.0618,1.0269,1.0312,1.1616,1.2235,1.2997,1.4242,1.439,1.439,1.439,1.4031,1.3552,1.2929,1.2881,1.2881,1.2881,1.2881,1.2881,1.2881,1.2881,1.2881,1.2881,1.2881,1.2881,1.2881,1.2881,1.2881,1.2881,1.2881,1.2881,1.2881,1.2881,1.2881,1.2881,1.2881,1.2891,1.2891,1.2891,1.2881,1.2842,1.2422,1.2402,1.2456,1.2054,1.2772,1.3807,1.3807,1.4544,1.541,1.542,1.5407,1.5584,1.6466,1.6884,1.7021,1.6763,1.6665,1.6772,1.7021,1.7532,1.8008,1.8018,1.8018,1.8018,1.8018,1.8365,1.9244,2.1107,2.1272,2.185,2.3717,2.3514,2.309,2.309,2.309,2.2775,2.2013,2.2277,2.1975,2.0711,2.0572,1.9991,1.8662,1.8572,1.8447,1.8037,1.7079,1.6645,1.6645,1.6567,1.5878,1.449,1.3938,1.3673,1.3673,1.3745,1.4799,1.6636,1.6636,1.7148,1.8018,1.8018,1.8018,1.8018,1.8018,1.8271,1.8643,1.8643,1.8916,1.9287,0.9413,0.951,0.971,1.0364,1.0364,1.0364,1.0762,1.1015,1.1366,1.1765,1.2763,1.3657,1.431,1.4167,1.4104,1.4369,1.3626,1.3104,1.2929,1.2881,1.2881,1.2881,1.2881,1.2881,1.2881,1.2881,1.2881,1.2881,1.2881,1.2881,1.2881,1.2881,1.2881,1.2881,1.2881,1.2881,1.2881,1.2881,1.2881,1.291,1.3203,1.338,1.345,1.338,1.3189,1.2892,1.2456,1.252,1.277,1.265,1.346,1.4543,1.484,1.5129,1.5459,1.5921,1.6181,1.6505,1.736,1.7668,1.755,1.6855,1.6963,1.7217,1.7268,1.7309,1.7561,1.8251,1.8546,1.8654,1.8857,1.9544,2.0218,2.0759,2.1856,2.2893,2.3424,2.3946,2.4318,2.4318,2.3695,2.3155,2.2894,2.2428,2.1776,2.1069,2.042,1.9512,1.8146,1.872,1.8735,1.7951,1.757,1.7342,1.7342,1.5491,1.4324,1.3953,1.3765,1.3673,1.3745,1.5084,1.607,1.6645,1.7586,1.8148,1.8477,1.8779,1.8906,1.8906,1.8906,1.8984,1.9092,1.9092,1.9365,1.9727,0.971,1.0171,1.0633,1.1091,1.1133,1.1192,1.156,1.1724,1.1913,1.2187,1.3076,1.3777,1.4042,1.3838,1.3777,1.4002,1.3352,1.2881,1.2881,1.2618,1.2452,1.2452,1.2206,1.2197,1.2452,1.2452,1.2452,1.2452,1.2452,1.2608,1.2881,1.2881,1.2881,1.2881,1.2881,1.2881,1.2891,1.3057,1.3037,1.293,1.3394,1.3591,1.3657,1.3834,1.3724,1.3358,1.2951,1.3277,1.3839,1.3501,1.4119,1.5078,1.5332,1.5527,1.5771,1.6137,1.6544,1.6941,1.7521,1.7792,1.7846,1.7314,1.7314,1.7432,1.7598,1.7541,1.7726,1.8516,1.8742,1.888,1.9209,1.9981,2.0665,2.0915,2.2239,2.3349,2.3641,2.4333,2.4678,2.4251,2.3701,2.301,2.2321,2.1867,2.1413,2.1012,2.0301,1.957,1.8714,1.9226,1.9232,1.8461,1.7617,1.7318,1.7775,1.537,1.4349,1.4712,1.4349,1.4572,1.5381,1.6606,1.7339,1.7703,1.8556,1.8896,1.8916,1.918,1.9287,1.9287,1.9287,1.9394,1.9541,1.9541,1.9805,2.0195,0.9962,1.0846,1.1713,1.1941,1.1765,1.1878,1.2792,1.2274,1.2017,1.2783,1.3192,1.3404,1.3506,1.3506,1.3506,1.3506,1.3125,1.2881,1.2822,1.2224,1.1801,1.1715,1.1175,1.1133,1.1715,1.1765,1.1814,1.1814,1.1873,1.2236,1.2881,1.292,1.2939,1.2939,1.2978,1.2998,1.3018,1.3398,1.332,1.3008,1.358,1.3676,1.3613,1.4334,1.4385,1.4071,1.3736,1.4371,1.5225,1.4565,1.4862,1.5469,1.5469,1.5771,1.6133,1.6172,1.6655,1.7118,1.7166,1.7552,1.8008,1.8008,1.7725,1.7539,1.793,1.8008,1.8144,1.8754,1.8772,1.8828,1.9268,2.0072,2.0792,2.1356,2.2461,2.3517,2.4163,2.4597,2.4476,2.3566,2.3273,2.2514,2.0871,2.0949,2.1022,2.0664,2.0264,2.0049,2.0088,2.0049,1.9853,1.9473,1.749,1.6944,1.7968,1.6037,1.5459,1.6228,1.5481,1.61,1.7933,1.8008,1.8461,1.9287,1.9326,1.9346,1.9346,1.9434,1.9434,1.9404,1.9453,1.9668,1.998,2.0019,2.0264,2.0635,1.104,1.2032,1.2824,1.3071,1.265,1.2422,1.2842,1.2061,1.1774,1.2763,1.2679,1.2818,1.3455,1.3506,1.3506,1.3506,1.3125,1.2666,1.208,1.213,1.1859,1.1032,1.1305,1.1346,1.1023,1.1516,1.1774,1.1801,1.2363,1.2725,1.2891,1.3213,1.3369,1.3389,1.3721,1.3857,1.3867,1.3902,1.376,1.3447,1.4233,1.4321,1.4043,1.4557,1.4515,1.4099,1.3766,1.4205,1.505,1.5546,1.5797,1.5918,1.5918,1.6221,1.665,1.6992,1.7132,1.7195,1.7687,1.793,1.8008,1.8008,1.7939,1.79,1.7988,1.8008,1.8135,1.8564,1.9098,1.9482,1.9707,2.02,2.0903,2.172,2.2758,2.375,2.4685,2.4883,2.4881,2.4671,2.3262,2.2093,2.1733,2.1095,2.0829,2.1055,2.1006,2.1094,2.1435,2.1133,2.0908,2.082,1.9261,1.8538,1.8783,1.7422,1.6648,1.6371,1.6934,1.7477,1.7933,1.8682,1.9141,1.9307,1.9639,1.9775,1.9834,2.0527,2.0605,2.0322,2.0674,2.0654,2.0469,2.082,2.0781,2.0635,1.1851,1.2592,1.3131,1.3196,1.2663,1.2263,1.2332,1.2202,1.2263,1.2818,1.2861,1.3035,1.3455,1.333,1.3291,1.3486,1.3311,1.295,1.2382,1.2166,1.1862,1.1341,1.1312,1.1344,1.1411,1.2079,1.2211,1.1783,1.2197,1.2559,1.2891,1.3311,1.3506,1.3525,1.3945,1.4077,1.4087,1.4355,1.4199,1.3877,1.4736,1.4824,1.4492,1.4922,1.4984,1.4718,1.4513,1.4768,1.5289,1.635,1.6416,1.6103,1.6318,1.668,1.709,1.7314,1.7444,1.7628,1.7872,1.8008,1.8057,1.8262,1.8389,1.835,1.8066,1.8164,1.8428,1.8857,1.9389,1.9905,2.0156,2.041,2.0789,2.1221,2.2188,2.2999,2.3514,2.3963,2.412,2.3599,2.2627,2.1904,2.1602,2.1372,2.1289,2.1523,2.1543,2.1641,2.1875,2.1475,2.1328,2.1543,2.0111,1.9659,2.0367,1.927,1.8813,1.9052,1.8602,1.876,1.9495,1.9763,1.9893,1.9922,2.0352,2.0547,2.0596,2.1269,2.1406,2.1221,2.1455,2.1406,2.123,2.1465,2.1523,2.1494,1.2307,1.2978,1.3314,1.2846,1.2388,1.1987,1.1742,1.227,1.2782,1.3095,1.3277,1.3397,1.3418,1.3096,1.3076,1.3574,1.3613,1.3404,1.2903,1.2415,1.2,1.1735,1.1404,1.159,1.2261,1.2875,1.2824,1.2022,1.2122,1.2501,1.3105,1.3525,1.373,1.374,1.417,1.4301,1.4321,1.4736,1.4639,1.4316,1.5098,1.5156,1.4834,1.5254,1.541,1.541,1.541,1.5459,1.5703,1.6875,1.6836,1.6357,1.6728,1.7139,1.749,1.749,1.7734,1.8008,1.8008,1.7979,1.8105,1.8475,1.8801,1.8862,1.832,1.8496,1.8848,1.9209,1.9767,2.0246,2.0468,2.0663,2.0867,2.0867,2.1517,2.2027,2.2253,2.2927,2.3045,2.2229,2.2074,2.1829,2.1389,2.167,2.1914,2.1992,2.1992,2.2021,2.21,2.1689,2.1621,2.1982,2.0705,2.0576,2.1885,2.0996,2.1034,2.1982,2.0267,2.017,2.1338,2.0957,2.0791,2.081,2.1182,2.1348,2.1387,2.1816,2.1953,2.1894,2.1963,2.1953,2.1885,2.1885,2.2197,2.2559,1.2003,1.3716,1.4505,1.253,1.2535,1.257,1.1843,1.1752,1.2291,1.3739,1.3406,1.3059,1.2968,1.291,1.3193,1.3922,1.4,1.3676,1.2937,1.285,1.2304,1.1076,1.2102,1.2798,1.294,1.3318,1.332,1.2923,1.3522,1.3849,1.3975,1.4414,1.4609,1.4629,1.5049,1.5234,1.5244,1.5303,1.5088,1.4736,1.5215,1.5156,1.4834,1.5254,1.541,1.541,1.541,1.5654,1.6064,1.6631,1.6992,1.7217,1.7275,1.7588,1.793,1.793,1.7969,1.8008,1.8008,1.8006,1.8107,1.8533,1.9108,1.9486,1.9223,1.916,1.9219,1.9277,2.0335,2.0946,2.0131,2.0959,2.1811,2.1811,2.1886,2.2328,2.3147,2.2983,2.2791,2.2636,2.216,2.1892,2.1787,2.1846,2.2031,2.2402,2.2432,2.2588,2.2949,2.2568,2.2363,2.2432,2.1845,2.1651,2.1885,2.1709,2.1894,2.2422,2.1768,2.1574,2.1797,2.1738,2.1709,2.1709,2.1768,2.1797,2.1836,2.2256,2.2217,2.1924,2.2285,2.2207,2.1885,2.1885,2.2383,2.2998,1.3014,1.4412,1.479,1.2947,1.1783,1.1141,1.1093,1.1046,1.1488,1.2639,1.2892,1.297,1.2958,1.2537,1.2813,1.4272,1.4228,1.3993,1.3642,1.3512,1.3217,1.2756,1.3365,1.3865,1.4393,1.4506,1.4515,1.4383,1.3584,1.3306,1.3422,1.3249,1.3289,1.3473,1.4335,1.451,1.4145,1.4991,1.5061,1.4503,1.5158,1.5293,1.5176,1.5605,1.5771,1.584,1.6338,1.6162,1.5879,1.7051,1.7256,1.71,1.7578,1.7861,1.8008,1.8008,1.8008,1.8057,1.8291,1.8416,1.8801,1.9858,2.0752,2.1324,2.1565,2.1387,2.104,2.0553,2.0913,2.1322,2.1456,2.1754,2.1909,2.1909,2.1909,2.2068,2.2522,2.239,2.2281,2.2281,2.2211,2.2236,2.2236,2.2451,2.2656,2.2852,2.2861,2.2939,2.3125,2.2744,2.2617,2.2852,2.2451,2.2344,2.2578,2.2588,2.2676,2.2861,2.2676,2.2461,2.2227,2.1992,2.1885,2.1894,2.2139,2.2236,2.2266,2.2685,2.2754,2.2607,2.2793,2.2754,2.2588,2.2588,2.2822,2.3105]},{"header":{"parameterUnit":"m.s-1","parameterCategory":1,"la1":30.6,"la2":28.766,"lo1":-90.7593,"lo2":-88.6598,"dy":0.0162,"dx":0.0183,"nx":116,"ny":114,"refTime":"2023-09-24T06:00:00:Z","depth":0,"parameterNumber":3,"parameterNumberName":"V-component_of_WINDS"},"data":[0.0,0.0,0.0,0.0,0.0,0.0,0.0,0.0,0.0,0.0,0.0,0.0,0.0,0.0,0.0,0.0,0.0,0.0,0.0,0.0,0.0,0.0,0.0,0.0,0.0,0.0,0.0,0.0,0.0,0.0,0.0,0.0,0.0,0.0,0.0,0.0,0.0,0.0,0.0,0.0,0.0,0.0,0.0,0.0,0.0,0.0,0.0,0.0,0.0,0.0,0.0,0.0,0.0,0.0,0.0,0.0,0.0,0.0,0.0,0.0,0.0,0.0,0.0,0.0,0.0,0.0,0.0,0.0,0.0,0.0,0.0,0.0,0.0,0.0,0.0,0.0,0.0,0.0,0.0,0.0,0.0,0.0,0.0,0.0,0.0,0.0,0.0,0.0,0.0,0.0,0.0,0.0,0.0,0.0,0.0,0.0,0.0,0.0,0.0,0.0,0.0,0.0,0.0,0.0,0.0,0.0,0.0,0.0,0.0,0.0,0.0,0.0,0.0,0.0,0.0,0.0,0.0,0.0,0.0,0.0,0.0,0.0,0.0,0.0,0.0,0.0,0.0,0.0,0.0,0.0,0.0,0.0,0.0,0.0,0.0,0.0,0.0,0.0,0.0,0.0,0.0,0.0,0.0,0.0,0.0,0.0,0.0,0.0,0.0,0.0,0.0,0.0,0.0,0.0,0.0,0.0,0.0,0.0,0.0,0.0,0.0,0.0,0.0,0.0,0.0,0.0,0.0,0.0,0.0,0.0,0.0,0.0,0.0,0.0,0.0,0.0,0.0,0.0,0.0,0.0,0.0,0.0,0.0,0.0,0.0,0.0,0.0,0.0,0.0,0.0,0.0,0.0,0.0,0.0,0.0,0.0,0.0,0.0,0.0,0.0,0.0,0.0,0.0,0.0,0.0,0.0,0.0,0.0,0.0,0.0,0.0,0.0,0.0,0.0,0.0,0.0,0.0,0.0,0.0,0.0,0.0,0.0,0.0,0.0,0.0,0.0,0.0,0.0,0.0,0.0,0.0,0.0,0.0,0.0,0.0,0.0,0.0,0.0,0.0,0.0,0.0,0.0,0.0,0.0,0.0,0.0,0.0,0.0,0.0,0.0,0.0,0.0,0.0,0.0,0.0,0.0,0.0,0.0,0.0,0.0,0.0,0.0,0.0,0.0,0.0,0.0,0.0,0.0,0.0,0.0,0.0,0.0,0.0,0.0,0.0,0.0,0.0,0.0,0.0,0.0,0.0,0.0,0.0,0.0,0.0,0.0,0.0,0.0,0.0,0.0,0.0,0.0,0.0,0.0,0.0,0.0,0.0,0.0,0.0,0.0,0.0,0.0,0.0,0.0,0.0,0.0,0.0,0.0,0.0,0.0,0.0,0.0,0.0,0.0,0.0,0.0,0.0,0.0,0.0,0.0,0.0,0.0,0.0,0.0,0.0,0.0,0.0,0.0,0.0,0.0,0.0,0.0,0.0,0.0,0.0,0.0,0.0,0.0,0.0,0.0,0.0,0.0,0.0,0.0,0.0,0.0,0.0,0.0,0.0,0.0,0.0,0.0,0.0,0.0,0.0,0.0,0.0,0.0,0.0,0.0,0.0,0.0,0.0,0.0,0.0,0.0,0.0,0.0,0.0,0.0,0.0,0.0,0.0,0.0,0.0,0.0,0.0,0.0,0.0,0.0,0.0,0.0,0.0,0.0,0.0,0.0,0.0,0.0,0.0,0.0,0.0,0.0,0.0,0.0,0.0,0.0,0.0,0.0,0.0,0.0,0.0,0.0,0.0,0.0,0.0,0.0,0.0,0.0,0.0,0.0,0.0,0.0,0.0,0.0,0.0,0.0,0.0,0.0,0.0,0.0,0.0,0.0,0.0,0.0,0.0,0.0,0.0,0.0,0.0,0.0,0.0,0.0,0.0,0.0,0.0,0.0,0.0,0.0,0.0,0.0,0.0,0.0,0.0,0.0,0.0,0.0,0.0,0.0,0.0,0.0,0.0,0.0,0.0,0.0,0.0,0.0,0.0,0.0,0.0,0.0,0.0,0.0,0.0,0.0,0.0,0.0,0.0,0.0,0.0,0.0,0.0,0.0,0.0,0.0,0.0,0.0,0.0,0.0,0.0,0.0,0.0,0.0,0.0,0.0,0.0,0.0,0.0,0.0,0.0,0.0,0.0,0.0,0.0,0.0,0.0,0.0,0.0,0.0,0.0,0.0,0.0,0.0,0.0,0.0,0.0,0.0,0.0,0.0,0.0,0.0,0.0,0.0,0.0,0.0,0.0,0.0,0.0,0.0,0.0,0.0,0.0,0.0,0.0,0.0,0.0,0.0,0.0,0.0,0.0,0.0,0.0,0.0,0.0,0.0,0.0,0.0,0.0,0.0,0.0,0.0,0.0,0.0,0.0,0.0,0.0,0.0,0.0,0.0,0.0,0.0,0.0,0.0,0.0,0.0,0.0,0.0,0.0,0.0,0.0,0.0,0.0,0.0,0.0,0.0,0.0,0.0,0.0,0.0,0.0,0.0,0.0,0.0,0.0,0.0,0.0,0.0,0.0,0.0,0.0,0.0,0.0,0.0,0.0,0.0,0.0,0.0,0.0,0.0,0.0,0.0,0.0,0.0,0.0,0.0,0.0,0.0,0.0,0.0,0.0,0.0,0.0,0.0,0.0,0.0,0.0,0.0,0.0,0.0,0.0,0.0,0.0,0.0,0.0,0.0,0.0,0.0,0.0,0.0,0.0,0.0,0.0,0.0,0.0,0.0,0.0,0.0,0.0,0.0,0.0,0.0,0.0,0.0,0.0,0.0,0.0,0.0,0.0,0.0,0.0,0.0,0.0,0.0,0.0,0.0,0.0,0.0,0.0,0.0,0.0,0.0,0.0,0.0,0.0,0.0,0.0,0.0,0.0,0.0,0.0,0.0,0.0,0.0,0.0,0.0,0.0,0.0,0.0,0.0,0.0,0.0,0.0,0.0,0.0,0.0,0.0,0.0,0.0,0.0,0.0,0.0,0.0,0.0,0.0,0.0,0.0,0.0,0.0,0.0,0.0,0.0,0.0,0.0,0.0,0.0,0.0,0.0,0.0,0.0,0.0,0.0,0.0,0.0,0.0,0.0,0.0,0.0,0.0,0.0,0.0,0.0,0.0,0.0,0.0,0.0,0.0,0.0,0.0,0.0,0.0,0.0,0.0,0.0,0.0,0.0,0.0,0.0,0.0,0.0,0.0,0.0,0.0,0.0,0.0,0.0,0.0,0.0,0.0,0.0,0.0,0.0,0.0,0.0,0.0,0.0,0.0,0.0,0.0,0.0,0.0,0.0,0.0,0.0,0.0,0.0,0.0,0.0,0.0,0.0,0.0,0.0,0.0,0.0,0.0,0.0,0.0,0.0,0.0,0.0,0.0,0.0,0.0,0.0,0.0,0.0,0.0,0.0,0.0,0.0,0.0,0.0,0.0,0.0,0.0,0.0,0.0,0.0,0.0,0.0,0.0,0.0,0.0,0.0,0.0,0.0,0.0,0.0,0.0,0.0,0.0,0.0,0.0,0.0,0.0,0.0,0.0,0.0,0.0,0.0,0.0,0.0,0.0,0.0,0.0,0.0,0.0,0.0,0.0,0.0,0.0,0.0,0.0,0.0,0.0,0.0,0.0,0.0,0.0,0.0,0.0,0.0,0.0,0.0,0.0,0.0,0.0,0.0,0.0,0.0,0.0,0.0,0.0,0.0,0.0,0.0,0.0,0.0,0.0,0.0,0.0,0.0,0.0,0.0,0.0,0.0,0.0,0.0,0.0,0.0,0.0,0.0,0.0,0.0,0.0,0.0,0.0,0.0,0.0,0.0,0.0,0.0,0.0,0.0,0.0,0.0,0.0,0.0,0.0,0.0,0.0,0.0,0.0,0.0,0.0,0.0,0.0,0.0,0.0,0.0,0.0,0.0,0.0,0.0,0.0,0.0,0.0,0.0,0.0,0.0,0.0,0.0,0.0,0.0,0.0,0.0,0.0,0.0,0.0,0.0,0.0,0.0,0.0,0.0,0.0,0.0,0.0,0.0,0.0,0.0,0.0,0.0,0.0,0.0,0.0,0.0,0.0,0.0,0.0,0.0,0.0,0.0,0.0,0.0,0.0,0.0,0.0,0.0,0.0,0.0,0.0,0.0,0.0,0.0,0.0,0.0,0.0,0.0,0.0,0.0,0.0,0.0,0.0,0.0,0.0,0.0,0.0,0.0,0.0,0.0,0.0,0.0,0.0,0.0,0.0,0.0,0.0,0.0,0.0,0.0,0.0,0.0,0.0,0.0,0.0,0.0,0.0,0.0,0.0,0.0,0.0,0.0,0.0,0.0,0.0,0.0,0.0,0.0,0.0,0.0,0.0,0.0,0.0,0.0,0.0,0.0,0.0,0.0,0.0,0.0,0.0,0.0,0.0,0.0,0.0,0.0,0.0,0.0,0.0,0.0,0.0,0.0,0.0,0.0,0.0,0.0,0.0,0.0,0.0,0.0,0.0,0.0,0.0,0.0,0.0,0.0,0.0,0.0,0.0,0.0,0.0,0.0,0.0,0.0,0.0,0.0,0.0,0.0,0.0,0.0,0.0,0.0,0.0,0.0,0.0,0.0,0.0,0.0,0.0,0.0,0.0,0.0,0.0,0.0,0.0,0.0,0.0,0.0,0.0,0.0,0.0,0.0,0.0,0.0,0.0,0.0,0.0,0.0,0.0,0.0,0.0,0.0,0.0,0.0,0.0,0.0,0.0,0.0,0.0,0.0,0.0,0.0,0.0,0.0,0.0,0.0,0.0,0.0,0.0,0.0,0.0,0.0,0.0,0.0,0.0,0.0,0.0,0.0,0.0,0.0,0.0,0.0,0.0,0.0,0.0,0.0,0.0,0.0,0.0,0.0,0.0,0.0,0.0,0.0,0.0,0.0,0.0,0.0,0.0,0.0,0.0,0.0,0.0,0.0,0.0,0.0,0.0,0.0,0.0,0.0,0.0,0.0,0.0,0.0,0.0,0.0,0.0,0.0,0.0,0.0,0.0,0.0,0.0,0.0,0.0,0.0,0.0,0.0,0.0,0.0,0.0,0.0,0.0,0.0,0.0,0.0,0.0,0.0,0.0,0.0,0.0,0.0,0.0,0.0,0.0,0.0,0.0,0.0,0.0,0.0,0.0,0.0,0.0,0.0,0.0,0.0,0.0,0.0,0.0,0.0,0.0,0.0,0.0,0.0,0.0,0.0,0.0,0.0,0.0,0.0,0.0,0.0,0.0,0.0,0.0,0.0,0.0,0.0,0.0,0.0,0.0,0.0,0.0,0.0,0.0,0.0,0.0,0.0,0.0,0.0,0.0,0.0,0.0,0.0,0.0,0.0,0.0,0.0,0.0,0.0,0.0,0.0,0.0,0.0,0.0,0.0,0.0,0.0,0.0,0.0,0.0,0.0,0.0,0.0,0.0,0.0,0.0,0.0,0.0,0.0,0.0,0.0,0.0,0.0,0.0,0.0,0.0,0.0,0.0,0.0,0.0,0.0,0.0,0.0,0.0,0.0,0.0,0.0,0.0,0.0,0.0,0.0,0.0,0.0,0.0,0.0,0.0,0.0,0.0,0.0,0.0,0.0,0.0,0.0,0.0,0.0,0.0,0.0,0.0,0.0,0.0,0.0,0.0,0.0,0.0,0.0,0.0,0.0,0.0,0.0,0.0,0.0,0.0,0.0,0.0,0.0,0.0,0.0,0.0,0.0,0.0,0.0,0.0,0.0,0.0,0.0,0.0,0.0,0.0,0.0,0.0,0.0,0.0,0.0,0.0,0.0,0.0,0.0,0.0,0.0,0.0,0.0,0.0,0.0,0.0,0.0,0.0,0.0,0.0,0.0,0.0,0.0,0.0,0.0,0.0,0.0,0.0,0.0,0.0,0.0,0.0,0.0,0.0,0.0,0.0,0.0,0.0,0.0,0.0,0.0,0.0,0.0,0.0,0.0,0.0,0.0,0.0,0.0,0.0,0.0,0.0,0.0,0.0,0.0,0.0,0.0,0.0,0.0,0.0,0.0,0.0,0.0,0.0,0.0,0.0,0.0,0.0,0.0,0.0,0.0,0.0,0.0,-0.4108,-0.3872,0.0,0.0,0.0,0.0,0.0,0.0,0.0,0.0,0.0,0.0,0.0,0.0,0.0,0.0,0.0,0.0,0.0,0.0,0.0,0.0,0.0,0.0,0.0,0.0,0.0,0.0,0.0,0.0,0.0,0.0,0.0,0.0,0.0,0.0,0.0,0.0,0.0,0.0,-0.3311,-0.3886,-0.4319,-0.438,-0.3553,-0.2044,0.0,0.0,0.0,0.0,0.0,0.0,0.0,0.0,0.0,0.0,0.0,0.0,0.0,0.0,0.0,0.0,0.0,0.0,0.0,0.0,0.0,0.0,0.0,0.0,0.0,0.0,0.0,0.0,0.0,0.0,0.0,0.0,0.0,0.0,0.0,0.0,0.0,0.0,0.0,0.0,0.0,0.0,0.0,0.0,0.0,0.0,0.0,0.0,0.0,0.0,0.0,0.0,0.0,0.0,0.0,0.0,0.0,0.0,0.0,0.0,0.0,0.0,0.0,0.0,0.0,0.0,0.0,0.0,0.0,0.0,-0.6384,-0.5054,0.0,0.0,0.0,0.0,0.0,0.0,0.0,0.0,0.0,0.0,0.0,0.0,0.0,0.0,0.0,0.0,0.0,0.0,0.0,0.0,0.0,0.0,0.0,0.0,-0.6996,-0.6028,-0.5705,-0.519,0.0,0.0,0.0,0.0,0.0,0.0,0.0,0.0,0.0,0.0,-0.5144,-0.6346,-0.6974,-0.7643,-0.6842,-0.479,-0.3898,0.0,0.0,0.0,0.0,0.0,0.0,0.0,0.0,0.0,0.0,0.0,0.0,0.0,0.0,0.0,0.0,0.0,0.0,0.0,0.0,0.0,0.0,0.0,0.0,0.0,0.0,0.0,0.0,0.0,0.0,0.0,0.0,0.0,0.0,0.0,0.0,0.0,0.0,0.0,0.0,0.0,0.0,0.0,0.0,0.0,0.0,0.0,0.0,0.0,0.0,0.0,0.0,0.0,0.0,0.0,0.0,0.0,0.0,0.0,0.0,0.0,0.0,0.0,-0.6291,-0.7173,-0.8945,-0.9102,-0.9973,-1.1251,-0.8856,-0.675,-0.5057,-0.5327,0.0,0.0,0.0,0.0,0.0,0.0,0.0,0.0,0.0,0.0,0.0,0.0,0.0,0.0,0.0,0.0,0.0,0.0,0.0,0.0,0.0,-0.7454,-0.6954,-0.5846,-0.5694,-0.5449,0.0,0.0,0.0,0.0,0.0,0.0,0.0,-0.2812,-0.3569,-0.5068,-0.7957,-0.9436,-0.9629,-1.1095,-1.1333,-1.0354,-0.6716,-0.5195,-0.5293,0.0,0.0,0.0,0.0,0.0,0.0,0.0,0.0,0.0,0.0,0.0,0.0,0.0,0.0,0.0,0.0,0.0,0.0,0.0,0.0,0.0,0.0,0.0,0.0,0.0,0.0,0.0,0.0,0.0,0.0,0.0,0.0,0.0,0.0,0.0,0.0,0.0,0.0,0.0,0.0,0.0,-0.7935,-0.9529,0.0,0.0,0.0,0.0,0.0,0.0,0.0,0.0,0.0,0.0,0.0,0.0,0.0,-0.7896,-0.879,-0.8121,-0.8223,-0.9091,-0.9067,-0.9098,-0.9193,-0.9953,-1.0194,-1.0102,-1.0713,0.0,-0.8269,-0.6889,0.0,0.0,0.0,0.0,0.0,0.0,0.0,0.0,0.0,0.0,0.0,0.0,0.0,0.0,0.0,0.0,0.0,0.0,0.0,0.0,0.0,-0.8137,-0.7924,-0.7012,-0.8107,-0.8039,-0.6136,-0.6683,0.0,0.0,0.0,0.0,-0.3292,-0.4071,-0.5683,-0.8147,-0.9582,-1.0981,-1.2306,-1.3007,-1.36,-1.3952,-1.1233,-0.9004,-0.7359,-0.7482,0.0,0.0,0.0,0.0,0.0,0.0,0.0,0.0,0.0,0.0,0.0,0.0,0.0,0.0,0.0,0.0,0.0,0.0,0.0,0.0,0.0,0.0,0.0,0.0,0.0,0.0,0.0,0.0,0.0,0.0,0.0,0.0,0.0,0.0,0.0,0.0,0.0,0.0,0.0,-0.8303,-1.0748,-1.2878,-1.2284,-1.154,0.0,0.0,0.0,0.0,0.0,0.0,0.0,0.0,0.0,-1.0306,-1.0866,-1.0931,-1.0403,-1.0369,-1.0392,-1.0442,-1.0454,-1.0792,-1.1392,-1.1783,-1.2145,-1.2463,-1.2846,-1.2564,-1.1721,-0.9991,-0.8684,-0.7776,0.0,0.0,0.0,0.0,-0.538,-0.4326,0.0,0.0,0.0,0.0,0.0,0.0,0.0,0.0,0.0,0.0,0.0,0.0,-0.8538,-0.8893,-0.8962,-0.8528,-1.009,-1.0076,-0.7648,-0.8266,0.0,0.0,0.0,-0.4405,-0.4133,-0.5626,-0.7696,-1.0383,-1.0841,-1.2103,-1.4023,-1.4237,-1.487,-1.5779,-1.4566,-1.2545,-1.0035,-0.9947,-0.8096,-0.4982,0.0,0.0,0.0,0.0,0.0,0.0,0.0,0.0,0.0,0.0,0.0,0.0,0.0,0.0,0.0,0.0,0.0,0.0,0.0,0.0,0.0,0.0,0.0,0.0,0.0,0.0,0.0,0.0,0.0,0.0,0.0,0.0,0.0,0.0,0.0,0.0,0.0,-0.9758,-1.2373,-1.5014,-1.4184,-1.3511,0.0,0.0,0.0,0.0,0.0,0.0,-1.1028,-1.1915,-1.2414,-1.2436,-1.3513,-1.3459,-1.2075,-1.2441,-1.2431,-1.2031,-1.2031,-1.2581,-1.3577,-1.3577,-1.3912,-1.4501,-1.4484,-1.446,-1.4303,-1.2397,-1.0774,-0.956,-0.9419,-0.9,-0.8493,-0.8871,-0.8262,-0.7365,0.0,0.0,0.0,0.0,0.0,0.0,0.0,0.0,0.0,0.0,0.0,-0.771,-0.9346,-0.9501,-0.9645,-1.0045,-1.0364,-1.0209,-0.9412,-0.8476,-0.7506,-0.6519,-0.6173,-0.5869,-0.5595,-0.7336,-0.9015,-1.0577,-1.1988,-1.3179,-1.4118,-1.4875,-1.5277,-1.5332,-1.5241,-1.466,-1.3523,-1.0391,-0.873,-0.7874,-0.4277,0.0,0.0,0.0,0.0,0.0,0.0,0.0,0.0,0.0,0.0,0.0,0.0,0.0,0.0,0.0,0.0,0.0,0.0,0.0,0.0,0.0,0.0,0.0,0.0,0.0,0.0,0.0,0.0,0.0,0.0,0.0,0.0,0.0,0.0,0.0,0.0,0.0,0.0,-1.3816,-1.5396,0.0,0.0,0.0,0.0,-1.2836,-1.3305,-1.3497,-1.3075,-1.3705,-1.4109,-1.4163,-1.4014,-1.399,-1.4163,-1.392,-1.4046,-1.4517,-1.4517,-1.4663,-1.4886,-1.4886,-1.476,-1.4529,-1.5175,-1.541,-1.5233,-1.2987,-1.2237,-1.2404,-1.1514,-1.1113,-1.0983,-1.0756,-1.0003,-0.9112,0.0,0.0,0.0,0.0,0.0,0.0,0.0,0.0,-0.5584,-0.6638,-0.8066,-0.9433,-1.0566,-1.0565,-1.0786,-1.1549,-1.2115,-1.1754,-1.0178,-1.0006,-0.9102,-0.7187,-0.696,-0.7152,-0.7746,-0.8561,-0.9985,-1.2015,-1.2536,-1.3798,-1.5727,-1.5999,-1.644,-1.6962,-1.6967,-1.6802,-1.6358,-1.4073,-1.1716,-0.9352,-0.7799,-0.622,0.0,0.0,0.0,0.0,0.0,0.0,0.0,0.0,0.0,0.0,0.0,0.0,0.0,0.0,0.0,0.0,0.0,0.0,0.0,0.0,0.0,0.0,0.0,0.0,0.0,0.0,0.0,0.0,0.0,0.0,0.0,0.0,0.0,0.0,0.0,0.0,0.0,-1.5645,-1.6564,0.0,-1.8066,-1.7648,-1.68,-1.5558,-1.5815,-1.5646,-1.4791,-1.5577,-1.6079,-1.6103,-1.6639,-1.6872,-1.6749,-1.6646,-1.6592,-1.6553,-1.6395,-1.6358,-1.6391,-1.6231,-1.6345,-1.6719,-1.7409,-1.7976,-1.833,-1.7516,-1.5755,-1.3565,-1.3213,-1.2728,-1.2167,-1.199,-1.2008,-1.1982,0.0,0.0,0.0,0.0,0.0,0.0,0.0,0.0,-0.6308,-0.7489,-0.899,-1.0254,-1.105,-1.1257,-1.1633,-1.2305,-1.2832,-1.2407,-1.0714,-1.0575,-0.9773,-0.8014,-0.78,-0.8186,-0.9159,-0.9593,-1.0787,-1.2796,-1.3076,-1.4353,-1.656,-1.6566,-1.7016,-1.7825,-1.7831,-1.7837,-1.7754,-1.6673,-1.4685,-1.218,-1.0857,-0.9513,-0.8065,0.0,0.0,0.0,0.0,0.0,0.0,0.0,0.0,0.0,0.0,0.0,0.0,0.0,0.0,0.0,0.0,0.0,0.0,0.0,0.0,0.0,0.0,0.0,0.0,0.0,0.0,0.0,0.0,0.0,0.0,0.0,0.0,0.0,0.0,-1.2132,-1.4309,-1.7151,-1.8099,-1.9077,-2.0517,-1.9658,-1.873,-1.8057,-1.8146,-1.7753,-1.667,-1.7516,-1.7888,-1.7606,-1.8304,-1.8553,-1.8348,-1.8372,-1.8281,-1.8073,-1.8173,-1.8001,-1.7596,-1.7859,-1.8003,-1.807,-1.8917,-1.9549,-2.0028,-2.0238,-1.8578,-1.5859,-1.5471,-1.485,-1.4132,-1.4202,-1.4181,-1.4138,0.0,0.0,0.0,0.0,0.0,0.0,0.0,-0.7273,-0.7698,-0.8379,-0.9178,-0.9986,-1.0763,-1.1506,-1.205,-1.23,-1.2305,-1.1939,-1.1055,-1.0037,-0.9324,-0.9027,-0.875,-0.8938,-0.9691,-1.044,-1.1476,-1.2801,-1.3605,-1.4839,-1.6471,-1.6478,-1.6926,-1.7664,-1.7722,-1.776,-1.7792,-1.7886,-1.7456,-1.6445,-1.33,-1.2012,-1.1588,0.0,0.0,0.0,0.0,0.0,0.0,0.0,0.0,0.0,0.0,0.0,0.0,0.0,0.0,0.0,0.0,0.0,0.0,0.0,0.0,0.0,0.0,0.0,0.0,0.0,0.0,0.0,0.0,0.0,0.0,0.0,0.0,0.0,-1.2221,-1.4114,-1.6219,-1.8102,-2.0006,-2.1425,-2.2017,-2.1386,-2.076,-2.0318,-2.0282,-1.9812,-1.873,-1.9406,-1.9459,-1.8658,-1.8789,-1.8873,-1.8872,-1.8992,-1.9081,-1.9118,-1.9921,-1.964,-1.8447,-1.9749,-1.9636,-1.8467,-1.9573,-2.0058,-2.0092,-2.075,-2.0384,-1.9339,-1.8201,-1.748,-1.7055,-1.7216,-1.6485,-1.5437,0.0,0.0,0.0,0.0,0.0,0.0,0.0,-0.7219,-0.8218,-0.7692,-0.8875,-1.0199,-1.1337,-1.113,-1.1422,-1.2704,-1.1224,-1.045,-1.0968,-0.9465,-0.8792,-0.9342,-0.8779,-0.8875,-0.9761,-1.0778,-1.174,-1.2657,-1.3555,-1.4532,-1.5574,-1.6195,-1.6619,-1.6869,-1.8107,-1.8992,-1.9638,-2.0277,-2.006,-1.9043,-1.6324,-1.4648,-1.3496,0.0,0.0,0.0,0.0,0.0,0.0,0.0,0.0,0.0,0.0,0.0,0.0,0.0,0.0,0.0,0.0,0.0,0.0,0.0,0.0,0.0,0.0,0.0,0.0,0.0,0.0,0.0,0.0,0.0,0.0,0.0,-1.3671,-1.4516,-1.4498,-1.6565,-1.8851,-2.0933,-2.2281,-2.3343,-2.41,-2.3893,-2.3385,-2.2645,-2.2365,-2.1571,-2.0061,-2.0188,-2.0001,-1.9353,-1.996,-2.0384,-2.0541,-2.0583,-2.0904,-2.1538,-2.0929,-2.0803,-2.1049,-2.1024,-2.0993,-2.0929,-2.1104,-2.1155,-2.1182,-2.1348,-2.11,-2.0448,-1.9371,-1.8654,-1.8131,-1.7436,-1.6744,-1.6182,0.0,0.0,0.0,0.0,0.0,0.0,0.0,-0.6995,-0.7843,-0.6804,-0.869,-1.0261,-1.0612,-1.0517,-1.0706,-1.143,-1.0294,-0.9668,-0.9965,-0.9289,-0.8937,-0.9111,-0.9016,-0.9229,-0.9826,-1.1177,-1.2097,-1.2527,-1.3771,-1.4797,-1.5589,-1.6105,-1.6716,-1.7434,-1.8838,-1.9928,-2.0774,-2.1627,-2.1704,-2.112,-1.9535,-1.76,-1.544,-1.3241,-1.1757,-1.0593,-0.8884,-0.8313,-0.8039,-0.5904,0.0,0.0,0.0,0.0,0.0,0.0,0.0,0.0,0.0,0.0,0.0,0.0,0.0,0.0,0.0,0.0,0.0,0.0,0.0,0.0,0.0,0.0,0.0,0.0,-1.6371,-1.7839,-1.8236,-1.9588,-2.1149,-2.2728,-2.3736,-2.4465,-2.4873,-2.445,-2.3791,-2.2858,-2.2916,-2.2263,-2.0594,-2.0849,-2.0911,-2.0608,-2.0852,-2.1263,-2.1809,-2.1875,-2.2177,-2.2703,-2.238,-2.2259,-2.2359,-2.2486,-2.2446,-2.2257,-2.2113,-2.1968,-2.1786,-2.1672,-2.1228,-2.0651,0.0,0.0,0.0,0.0,-1.6736,-1.6799,0.0,0.0,0.0,0.0,0.0,0.0,0.0,-0.6753,-0.711,-0.6088,-0.8504,-1.0005,-0.9109,-0.9589,-0.9753,-0.9233,-0.9342,-0.919,-0.859,-0.916,-0.9277,-0.8752,-0.9273,-0.9717,-1.0013,-1.1577,-1.2432,-1.2512,-1.4122,-1.5271,-1.5969,-1.6158,-1.7018,-1.8491,-1.9688,-2.0661,-2.1469,-2.2266,-2.2638,-2.2691,-2.2437,-2.0502,-1.7536,-1.5622,-1.491,-1.4643,-1.2315,-1.0736,-0.9568,-0.8285,0.0,0.0,0.0,0.0,0.0,0.0,0.0,0.0,0.0,0.0,0.0,0.0,0.0,0.0,0.0,0.0,0.0,0.0,0.0,0.0,0.0,0.0,0.0,0.0,-1.9004,-2.1447,-2.2443,-2.2742,-2.3146,-2.385,-2.4583,-2.4911,-2.4686,-2.3836,-2.2922,-2.2038,-2.2611,-2.2337,-2.0851,-2.151,0.0,0.0,0.0,-2.1873,-2.2863,-2.3001,-2.315,-2.3305,-2.3894,-2.3763,-2.3036,-2.3959,-2.3849,-2.296,-2.2886,-2.2565,-2.2068,-2.1786,-2.1118,-2.028,-2.0162,-1.9421,-1.8173,-1.6699,-1.6597,-1.7151,0.0,0.0,0.0,0.0,0.0,0.0,0.0,-0.7039,-0.7695,-0.6948,-0.7964,-0.8518,-0.7896,-0.7913,-0.7936,-0.7869,-0.785,-0.7952,-0.8181,-0.7932,-0.8293,-0.9436,-0.9054,-0.9442,-1.0763,-1.185,-1.2696,-1.3289,-1.437,-1.4979,-1.5149,-1.646,-1.7234,-1.765,-1.9843,-2.1298,-2.2149,-2.2967,-2.3313,-2.3318,-2.3272,-2.2154,-2.0336,-1.8543,-1.7555,-1.6855,-1.5035,-1.4662,-1.4512,-1.1202,-1.0924,-1.1248,-0.6963,-0.5618,0.0,0.0,0.0,0.0,0.0,0.0,0.0,0.0,0.0,0.0,0.0,0.0,0.0,0.0,0.0,0.0,0.0,0.0,0.0,-1.9721,-2.1324,-2.2741,-2.4119,-2.4436,-2.4602,-2.4743,-2.4915,-2.4664,-2.3831,-2.348,-2.3228,-2.3012,-2.2994,-2.285,-2.252,-2.2685,-2.2604,-2.2246,-2.2857,-2.3447,-2.3984,-2.4028,-2.4384,-2.5097,-2.4426,0.0,-2.487,-2.4877,-2.4544,-2.3999,-2.382,-2.3111,-2.2079,-2.204,-2.1318,-2.023,-1.9456,-1.8757,-1.8007,-1.6845,-1.6507,-1.6604,0.0,0.0,0.0,0.0,0.0,0.0,0.0,-0.6556,-0.7168,-0.6666,-0.7824,-0.8355,-0.7446,-0.7257,-0.7223,-0.7301,-0.7325,-0.7627,-0.8256,-0.805,-0.8233,-0.896,-0.9095,-0.952,-1.0328,-1.119,-1.2035,-1.2789,-1.3672,-1.4316,-1.4716,-1.5527,-1.6329,-1.7193,-1.9345,-2.0996,-2.222,-2.3279,-2.3854,-2.3989,-2.3705,-2.3326,-2.2703,-2.0706,-1.9801,-1.9362,-1.7635,-1.6734,-1.601,-1.3466,-1.2467,-1.177,-0.8826,-0.7413,-0.6595,0.0,0.0,0.0,0.0,0.0,0.0,0.0,0.0,0.0,0.0,0.0,0.0,0.0,0.0,-1.5955,-1.7431,0.0,-1.988,-2.1624,-2.2907,-2.3922,-2.4572,-2.478,-2.4911,-2.4998,-2.4858,-2.4383,-2.3487,-2.3605,-2.3414,-2.2617,-2.3198,-2.3419,-2.3033,-2.2997,-2.3114,-2.3379,-2.303,-2.3454,-2.4687,-2.4294,-2.4581,-2.5543,-2.5005,-2.4985,-2.538,-2.5118,-2.4834,-2.4526,-2.4155,-2.3365,-2.2319,-2.1766,-2.107,-2.0196,-1.9244,-1.8545,-1.7917,-1.6529,-1.6228,-1.6434,0.0,0.0,0.0,0.0,0.0,0.0,0.0,-0.5846,-0.6386,-0.6292,-0.7536,-0.8031,-0.696,-0.6688,-0.6688,-0.6898,-0.6788,-0.7176,-0.8319,-0.8229,-0.8234,-0.8446,-0.9216,-0.969,-0.9855,-1.0621,-1.1442,-1.2285,-1.3091,-1.3812,-1.4453,-1.4599,-1.5433,-1.6866,-1.8638,-2.0226,-2.1655,-2.2887,-2.3603,-2.3856,-2.3428,-2.3545,-2.3731,-2.1632,-2.1173,-2.1378,-1.925,-1.7649,-1.6284,-1.4668,-1.2997,-1.1404,-1.043,-0.9208,-0.7953,-0.7018,-0.7099,0.0,0.0,0.0,0.0,0.0,0.0,0.0,0.0,-1.309,-1.4463,-1.6281,-1.7405,-1.8526,-1.9949,-2.1198,-2.2247,-2.2885,-2.4001,-2.4731,-2.4528,-2.4507,-2.454,-2.4651,-2.4569,-2.4161,-2.3328,-2.3676,-2.3419,-2.2116,-2.3235,-2.3676,-2.3015,-2.3162,-2.3533,-2.4144,-2.3019,-2.3235,-2.4949,-2.4316,-2.4464,-2.5362,-2.5348,-2.532,-2.5288,-2.5084,-2.4917,-2.4697,-2.4155,-2.3484,-2.2642,-2.1619,-2.0959,-2.0467,-1.9381,-1.8731,-1.8149,-1.6239,-1.5966,-1.6434,0.0,0.0,0.0,0.0,0.0,0.0,0.0,0.0,-0.6005,-0.6784,-0.6421,-0.5963,-0.5635,-0.5317,-0.5444,-0.6226,-0.522,-0.5511,-0.7822,-0.73,-0.7534,-0.8955,-0.9231,-0.967,-1.0392,-1.1137,-1.2012,-1.2993,-1.3727,-1.4154,-1.4245,-1.4963,-1.5677,-1.6438,-1.8074,-1.9254,-2.0112,-2.097,-2.1504,-2.1733,-2.1676,-2.1808,-2.1828,-2.0159,-2.0634,-2.179,-1.8545,-1.7373,-1.6893,-1.3827,-1.3004,-1.2872,-1.0831,-0.9981,-0.9654,-0.9171,-0.9003,-0.8496,-0.6407,-0.5975,-0.6346,-0.7243,-0.9755,-1.2849,0.0,-1.756,-1.8949,-2.1016,-2.1536,-2.192,-2.2867,-2.3178,-2.3525,-2.4178,-2.4579,-2.4731,-2.4528,-2.3894,-2.3478,-2.3494,-2.4081,-2.4111,-2.3125,-2.3088,-2.307,-2.2887,-2.3033,-2.3107,-2.2997,-2.3676,-2.3727,-2.3011,-2.3566,-2.4066,-2.4467,-2.4388,-2.4524,-2.4873,-2.4987,-2.4981,-2.4874,-2.4968,-2.4831,-2.4493,-2.3963,-2.3504,-2.3076,-2.23,-2.177,-2.1321,-2.0012,-1.9462,-1.9119,-1.6612,-1.6036,-1.6434,0.0,0.0,0.0,0.0,0.0,0.0,0.0,0.0,0.0,0.0,-0.6327,-0.606,-0.5774,-0.5627,-0.5652,-0.5937,-0.5499,-0.5982,-0.784,-0.7164,-0.7364,-0.8859,-0.9161,-0.9454,-0.9791,-1.01,-1.0905,-1.2233,-1.2532,-1.3145,-1.4024,-1.4377,-1.5172,-1.6356,-1.7489,-1.866,-1.9848,-2.0442,-2.0989,-2.1385,-2.101,-2.0886,-2.0676,-1.8836,-1.8393,-1.8577,-1.7217,-1.6157,0.0,-1.3686,-1.2925,-1.2373,-1.099,-0.997,-0.9382,-0.9791,-0.9215,-0.8558,-0.9091,-0.9671,-1.0611,-1.2663,-1.4264,-1.6036,-1.8765,-2.0083,-2.1141,-2.2551,-2.321,-2.3686,-2.4176,-2.4261,-2.4302,-2.4454,-2.4559,-2.4561,-2.4357,-2.3619,-2.2953,-2.2473,-2.2794,-2.2699,-2.1803,-2.2075,-2.2367,-2.2573,-2.2959,-2.3442,-2.402,-2.4375,-2.4107,-2.3124,-2.2986,-2.3117,-2.3521,-2.3063,-2.3299,-2.4209,-2.4473,-2.4565,-2.4526,-2.4776,-2.4625,-2.4174,-2.3638,-2.3212,-2.2873,-2.2429,-2.1982,-2.1491,-2.0371,-1.9803,-1.936,-1.737,-1.6991,-1.7313,0.0,0.0,0.0,0.0,0.0,0.0,0.0,0.0,0.0,0.0,-0.5983,-0.5808,-0.5557,-0.5567,-0.5668,-0.5896,-0.5887,-0.6391,-0.7619,-0.7232,-0.7402,-0.8376,-0.8825,-0.905,-0.905,-0.9258,-0.9954,-1.1194,-1.1393,-1.206,-1.3166,-1.333,-1.4108,-1.5332,-1.6114,-1.7335,-1.8857,-1.9216,-1.9804,-2.0451,-1.9747,-1.9272,-1.8825,-1.687,-1.5617,-1.4927,-1.5152,-1.4635,-1.3755,-1.311,-1.2433,-1.1796,-1.1285,-1.0386,-0.9656,-1.0377,-0.9227,-0.8335,-1.1107,-1.2368,-1.3655,-1.6842,-1.8061,-1.8993,-2.0994,-2.2033,-2.273,-2.3409,-2.407,-2.4528,-2.4607,-2.4731,-2.4731,-2.4545,-2.4495,-2.4369,-2.4008,-2.3198,-2.2354,-2.1528,-2.138,-2.1034,-2.0233,-2.1216,-2.2009,-2.2192,-2.2922,-2.3589,-2.4073,-2.4501,-2.4199,-2.3066,-2.2497,-2.2384,-2.2695,-2.1997,-2.2201,-2.3268,-2.3709,-2.3879,-2.384,-2.4207,-2.4191,-2.389,-2.3401,-2.3069,-2.2822,-2.2419,-2.1998,-2.1491,-2.0423,-1.9858,-1.9426,-1.788,-1.7626,-1.7947,0.0,0.0,0.0,0.0,0.0,0.0,0.0,0.0,0.0,0.0,0.0,0.0,0.0,-0.4468,-0.4996,-0.6093,-0.5946,-0.6131,-0.6881,-0.7389,-0.7607,-0.7459,-0.8084,-0.8425,-0.8425,-0.9124,-0.9713,-1.0144,-1.0856,-1.1237,-1.1288,-1.1948,-1.2456,-1.2846,-1.3513,-1.4777,-1.6409,-1.642,-1.7147,-1.8208,-1.7226,-1.6416,-1.5652,-1.3887,-1.2582,-1.1703,-1.2167,-1.2923,-1.3431,-1.1675,-1.1314,-1.164,-1.1892,-1.1677,-1.1312,-1.1289,-0.939,-0.7998,-1.1135,-1.2056,-1.3106,-1.716,-1.9932,-2.1929,-2.2889,-2.3656,-2.4154,-2.4172,-2.4338,-2.4426,-2.4247,-2.4545,-2.4731,-2.4545,-2.4495,-2.4215,-2.3433,-2.2473,-2.151,-2.0631,-2.0026,-1.9388,-1.864,-2.0766,-2.2145,-2.2006,-2.2932,-2.3159,-2.2431,-2.373,-2.384,-2.2375,-2.2506,-2.2427,-2.2135,-2.1716,-2.1649,-2.1976,-2.2643,-2.284,-2.2675,-2.3064,-2.3414,-2.3692,-2.3346,-2.3189,-2.3141,-2.238,-2.1903,-2.1475,-2.0116,-1.9606,-1.9426,-1.788,-1.7626,-1.7947,0.0,0.0,0.0,0.0,0.0,0.0,0.0,0.0,0.0,0.0,0.0,0.0,0.0,0.0,0.0,0.0,-0.5525,-0.6183,-0.6911,-0.7059,-0.7243,-0.7585,-0.7271,-0.7281,-0.7719,-0.7972,-0.8623,-0.9716,-0.9963,-1.0326,-1.0821,-1.1021,-1.145,-1.2065,-1.2757,-1.3638,-1.4668,-1.5136,-1.5648,-1.6082,-1.4635,-1.4329,-1.4532,-1.2194,-1.1085,-1.0836,0.0,-1.18,-1.1899,-1.0971,-1.0903,-1.1144,-1.0783,-1.0495,-1.0349,-1.0668,-1.0737,-1.1205,-1.3551,-1.561,-1.7694,-2.0289,-2.2374,-2.3873,-2.4182,-2.4241,-2.4043,-2.3511,-2.3031,-2.253,-2.198,-2.1303,-2.1081,-2.1856,-2.1791,-2.1799,-2.2236,-2.2101,-2.143,-2.0059,-2.0265,-1.9982,-1.8577,-1.9757,-2.0675,-2.0858,-2.214,-2.3088,-2.3473,-2.4334,-2.4236,-2.2937,-2.2535,-2.2024,-2.1397,-2.0927,-2.0911,-2.1301,-2.2023,-2.2591,-2.301,-2.3124,-2.3141,-2.3021,-2.2923,-2.26,-2.2096,-2.148,-2.1005,-2.0555,-1.9474,-1.9067,-1.8867,-1.7274,-1.704,-1.741,0.0,0.0,0.0,0.0,0.0,0.0,0.0,0.0,0.0,0.0,0.0,0.0,0.0,0.0,0.0,0.0,0.0,-0.6094,-0.7036,-0.6928,-0.6981,-0.7333,-0.7005,-0.7038,-0.7494,-0.7805,-0.8455,-0.9435,-0.9012,-0.9068,-0.9567,-0.934,-0.951,-1.0017,-1.0887,-1.1766,-1.2619,-1.305,-1.3849,-1.4692,-1.3029,-1.2909,-1.3492,-1.1447,-1.0486,0.0,-1.0992,-1.1204,-1.1169,-1.1291,-1.1269,-1.1245,-1.1355,-1.0849,-1.0431,-1.159,-1.2068,-1.2918,-1.6133,-1.844,-2.0448,-2.2704,-2.4028,-2.4775,-2.4716,-2.4271,-2.3639,-2.2758,-2.2015,-2.126,-2.0415,-1.9752,-1.9573,-2.0326,-2.0271,-2.0377,-2.1067,-2.1455,-2.1301,-2.0279,-2.101,-2.0973,-1.9346,-2.0038,-2.0399,-1.995,-2.1776,-2.3034,-2.3301,-2.4168,-2.4232,-2.3355,-2.2414,-2.1623,-2.0991,-2.0398,-2.0398,-2.1007,-2.1639,-2.2252,-2.2857,-2.2703,-2.2574,-2.2451,-2.2001,-2.1599,-2.1193,-2.0167,-1.9572,-1.9248,-1.8068,-1.7638,-1.7424,-1.596,-1.5668,-1.5948,0.0,0.0,0.0,0.0,0.0,0.0,0.0,0.0,0.0,0.0,0.0,0.0,0.0,0.0,0.0,0.0,0.0,0.0,-0.7167,-0.6997,-0.6803,-0.667,-0.7152,-0.7499,-0.7647,-0.8451,-0.9015,-0.9288,-0.8211,-0.7717,-0.7753,-0.7236,-0.6992,-0.7073,-0.8289,-0.9435,-1.0447,-1.0463,-1.1865,-1.3937,-1.225,-1.1977,-1.2456,-1.1388,-1.0538,-1.003,-1.0801,-1.1052,-1.1174,-1.2341,-1.2273,-1.1974,-1.3544,-1.2804,-1.1846,-1.4178,-1.3659,-1.353,-1.8842,-2.0512,-2.1435,-2.429,-2.4904,-2.4741,-2.4522,-2.3838,-2.2954,-2.1907,-2.122,-2.0508,-1.9508,-1.9695,-1.9982,-1.9887,-1.9867,-1.9877,-1.9964,-2.0619,-2.113,-2.1166,-2.2078,-2.217,-2.082,-2.1502,-2.1279,-1.9418,-2.1842,-2.2951,-2.1928,-2.3179,-2.3777,-2.3455,-2.2163,-2.1318,-2.0991,-2.0154,-2.0154,-2.0959,-2.1368,-2.1794,-2.2209,-2.1764,-2.1728,-2.1922,-2.0703,-2.0344,-2.0463,-1.857,-1.7724,-1.7528,-1.6065,-1.5484,-1.5271,-1.4125,-1.3726,-1.3831,0.0,0.0,0.0,0.0,0.0,0.0,0.0,0.0,0.0,0.0,0.0,0.0,0.0,0.0,0.0,0.0,0.0,0.0,-0.6429,-0.6326,-0.6198,-0.6104,-0.5478,-0.5713,-0.6929,-0.7171,-0.7878,-0.9077,-0.884,-0.8732,-0.876,-0.9188,-0.91,-0.8594,-1.0019,-1.0729,-1.0956,-1.1397,-1.1903,-1.2275,-1.0645,-1.0332,-1.0727,-0.97,-0.9167,-0.9111,-1.0368,-1.0351,-0.9932,-1.1126,-1.2233,-1.3403,-1.5088,-1.547,-1.5843,-1.8715,-1.9075,-1.9164,-2.206,-2.3498,-2.4293,-2.4858,-2.4974,-2.4784,-2.4132,-2.3205,-2.2051,-2.0535,-1.9162,-1.8,-1.7189,-1.6375,-1.6338,-1.7889,-1.7972,-1.8276,-1.9526,-2.0547,-2.1109,-2.0913,-2.1836,-2.2317,-2.1914,-2.2393,-2.2032,-2.0295,-2.1494,-2.2058,-2.1473,-2.2238,-2.2676,-2.2685,-2.1553,-2.099,-2.0991,-2.0416,-2.0261,-2.0483,-2.0959,-2.1229,-2.1323,-2.1229,-2.0975,-2.0686,-2.0325,-1.9867,-1.9184,-1.7818,-1.679,-1.5978,-1.5498,-1.4864,-1.4147,-1.4058,-1.398,-1.3931,0.0,0.0,0.0,0.0,0.0,0.0,0.0,0.0,0.0,0.0,0.0,0.0,0.0,0.0,0.0,0.0,0.0,0.0,0.0,-0.5558,-0.5406,-0.5956,-0.5416,-0.5527,-0.6455,-0.7266,-0.8106,-0.9005,-0.8883,-0.8851,-0.8875,-0.8775,-0.8725,-0.8798,-0.9824,-1.0245,-1.0201,-1.0513,-1.0727,0.0,0.0,-0.9407,-1.0081,-0.929,-0.8817,-0.8697,-0.9753,-1.0221,-1.0589,-1.2191,-1.3768,-1.5329,-1.6618,-1.743,-1.8429,-2.1196,-2.1642,-2.1723,-2.3902,-2.4945,-2.537,-2.522,-2.4911,-2.4402,-2.3468,-2.2247,-2.0782,-1.9054,-1.771,-1.6624,-1.5866,-1.5159,-1.5095,-1.633,-1.6566,-1.7002,-1.8249,-1.94,-2.0353,-2.0919,-2.2029,-2.2815,-2.2996,-2.3216,-2.2725,-2.1197,-2.1563,-2.1479,-2.062,-2.1187,-2.1725,-2.2082,-2.0911,-2.0289,-2.0385,-2.0333,-2.0299,-2.0268,-2.0536,-2.052,-2.0273,-2.01,-1.9728,-1.9125,-1.898,-1.8341,-1.7262,-1.6435,-1.5584,-1.4775,-1.4409,-1.2724,-1.05,-1.0388,-1.0386,-1.0101,0.0,0.0,0.0,0.0,0.0,0.0,0.0,0.0,0.0,0.0,0.0,0.0,0.0,0.0,0.0,0.0,0.0,0.0,0.0,0.0,0.0,-0.5708,-0.5805,-0.5915,-0.6134,-0.7808,-0.8772,-0.8983,-0.8804,-0.8736,-0.8775,-0.7782,-0.7747,-0.8554,-0.9072,-0.9274,-0.9255,-0.9167,-0.9381,-0.9724,-0.885,-0.9035,-0.9755,0.0,0.0,-0.799,-0.8604,-0.9937,-1.176,-1.3984,-1.5815,-1.7367,-1.8402,-1.9344,-2.0465,-2.262,-2.2798,-2.2765,-2.4839,-2.5409,-2.5408,-2.539,-2.4678,-2.3745,-2.269,-2.0995,-1.9145,-1.7463,-1.6433,-1.5631,-1.5064,-1.491,-1.5045,-1.552,-1.5683,-1.6015,-1.6793,-1.7977,-1.9323,-2.0786,-2.2284,-2.3419,-2.3961,-2.3928,-2.3323,-2.1951,-2.1669,-2.0949,-1.9578,-2.0067,-2.0616,-2.118,-2.0187,-1.9585,-1.9513,-1.9989,-2.0131,-2.0035,-2.0035,-1.9712,-1.9082,-1.8749,-1.8145,-1.7356,-1.7057,-1.6323,-1.5252,-1.4674,-1.4318,-1.399,-1.2168,-0.905,-0.5488,-0.4846,-0.4568,-0.4072,0.0,0.0,0.0,0.0,0.0,0.0,0.0,0.0,0.0,0.0,0.4049,0.4131,0.0,0.0,0.0,0.0,0.0,0.0,0.0,0.0,0.0,0.0,-0.4247,-0.4832,-0.5846,-0.6932,-0.7964,-0.8925,-0.9519,-0.9834,-0.9851,-1.0282,-1.0217,-0.9732,-1.0494,-1.0727,-1.0552,-1.0384,-1.0284,-1.0239,-0.98,-0.9051,-0.8213,0.0,0.0,0.0,-0.554,-0.7561,-1.0419,-1.3394,-1.6033,-1.8535,-2.1216,-2.2699,-2.365,-2.4724,-2.5007,-2.5004,-2.5321,-2.5434,-2.546,-2.534,-2.4178,-2.2821,-2.1968,-1.936,-1.6855,-1.5878,-1.4425,-1.3493,-1.4076,-1.3691,-1.4149,-1.6694,-1.5864,-1.5372,-1.6706,-1.7912,-1.8918,-1.9633,-2.1784,-2.3571,-2.4544,-2.4389,-2.363,-2.2243,-2.0953,-1.986,-1.9053,-1.8734,-1.8608,-1.8721,-1.9273,-1.9405,-1.9029,-1.9477,-1.9513,-1.9126,-1.9067,-1.8522,-1.7585,-1.7518,-1.6578,-1.5075,-1.5033,-1.4698,-1.4196,-1.3361,-1.3641,-1.3908,-0.6681,-0.2757,-0.0999,-0.0,0.0783,0.15,0.0,0.0,0.0,0.0,0.0,0.0,0.0,0.3729,0.3784,0.4325,0.4487,0.4536,0.4542,0.3754,0.0,0.0,0.0,0.0,0.0,0.0,0.0,0.0,0.0,0.0,-0.4701,-0.6173,-0.7205,-0.7751,0.0,-0.9671,-0.9634,-1.0095,-1.0281,-1.0269,-1.0595,-1.0601,-1.0369,-1.0081,-0.9325,-0.829,-0.796,-0.7199,0.0,0.0,0.0,0.0,0.0,-0.725,-0.9501,-1.1921,-1.4391,-1.7173,-2.1046,-2.3221,-2.421,-2.3475,-2.4353,-2.5302,-2.4138,-2.4625,-2.5418,-2.525,-2.3679,-2.1805,-2.037,-1.7887,-1.5504,-1.4161,-1.3301,-1.2884,-1.3293,-1.2882,-1.2806,-1.3808,-1.4044,-1.4153,-1.4239,-1.6075,-1.7811,-1.8869,-2.099,-2.276,-2.3773,-2.3531,-2.2939,-2.2048,-2.0337,-1.9075,-1.8521,-1.8315,-1.8058,-1.768,-1.8779,-1.9051,-1.844,-1.8684,-1.8684,-1.844,-1.8168,-1.7437,-1.6353,-1.5603,-1.4642,-1.3596,-1.3507,-1.3192,-1.2419,-0.8883,-0.768,-0.7676,-0.3356,0.1327,0.5664,0.5967,0.6873,0.7955,0.0,0.0,0.0,0.0,0.0,0.0,0.0,0.3891,0.3845,0.4266,0.4401,0.4492,0.4574,0.4159,0.3045,0.0,0.0,0.0,0.0,0.0,0.0,0.0,0.0,0.0,0.0,0.0,0.0,-0.634,-0.8039,0.0,0.0,0.0,0.0,0.0,-0.9904,-0.972,-0.9475,-0.9153,-0.8033,0.0,0.0,-0.5417,0.0,0.0,0.0,0.0,0.0,-0.7045,-0.8648,-1.0468,-1.2397,-1.4726,-1.8816,-2.1483,-2.2884,-2.1552,-2.2868,-2.4444,-2.3091,-2.4015,-2.5239,-2.4898,-2.3012,-2.0709,-1.8746,-1.6591,-1.4451,-1.2604,-1.2377,-1.25,-1.2506,-1.1981,-1.1481,-1.1286,-1.1578,-1.1832,-1.19,-1.3632,-1.5677,-1.7772,-1.994,-2.1578,-2.2407,-2.2411,-2.206,-2.1309,-1.9541,-1.8285,-1.7773,-1.786,-1.766,-1.7173,-1.8152,-1.8385,-1.7652,-1.7706,-1.7585,-1.7249,-1.6616,-1.5835,-1.4915,-1.3611,-1.2149,-1.0639,-1.0698,-1.0109,-0.8657,-0.3757,-0.0777,0.0801,0.1212,0.5392,1.1137,1.0697,1.1557,1.287,0.0,0.0,0.0,0.0,0.0,0.0,0.0,0.402,0.4057,0.4358,0.456,0.4626,0.4522,0.4085,0.3258,0.0,0.0,0.0,0.0,0.0,0.0,0.0,0.0,0.0,0.0,0.0,0.0,-0.5161,-0.6713,0.0,0.0,0.0,0.0,0.0,0.0,-0.8313,-0.8151,-0.7876,0.0,0.0,0.0,0.0,0.0,0.0,0.0,0.0,0.0,-0.5529,-0.765,-0.9703,-1.0864,-1.1836,-1.4159,-1.6812,-1.9316,-2.0701,-2.1649,-2.2463,-2.3553,-2.4479,-2.4924,-2.4129,-2.1935,-1.9498,-1.7728,-1.5567,-1.3391,-1.1457,-1.1305,-1.1528,-1.1528,-1.0558,-1.0482,-1.2709,-0.9119,-0.7508,-1.1674,-1.1133,-1.176,-1.5687,-1.8514,-2.0318,-2.0762,-2.1679,-2.1457,-1.9577,-1.8198,-1.7229,-1.668,-1.6645,-1.6658,-1.6565,-1.7157,-1.7173,-1.6549,-1.6549,-1.596,-1.4799,-1.3619,-1.3004,-1.2937,-1.1968,-0.8633,-0.3789,-0.4655,-0.3559,-0.0962,0.0474,0.4432,0.9688,1.0135,1.1243,1.2475,1.1819,1.2415,1.3669,0.0,0.0,0.0,0.0,0.0,0.0,0.4118,0.411,0.4082,0.3983,0.4333,0.4531,0.4398,0.4356,0.3758,0.0,0.0,0.0,0.0,0.0,0.0,0.0,0.0,0.0,0.0,0.0,-0.4131,-0.4276,-0.5456,0.0,0.0,0.0,0.0,0.0,0.0,-0.7224,-0.6964,-0.6737,0.0,0.0,0.0,0.0,0.0,0.0,0.0,0.0,0.0,0.0,-0.5415,-0.7133,-0.7826,-0.8286,-1.0079,-1.1646,-1.3305,-1.5692,-1.9007,-2.176,-2.1113,-2.2882,-2.4671,-2.3676,-2.1512,-1.897,-1.6552,-1.4309,-1.2397,-1.1245,-1.0557,-1.0389,-1.1248,-0.9793,-0.852,-0.8702,-0.6966,-0.6128,-0.7624,-0.9024,-1.0936,-1.3818,-1.6235,-1.8081,-1.9229,-1.9479,-1.9121,-1.8145,-1.6933,-1.6151,-1.5952,-1.6281,-1.6151,-1.5433,-1.5983,-1.558,-1.4122,-1.4111,-1.3854,-1.3263,-1.2783,-1.1077,-0.8329,-0.7372,-0.5232,-0.2211,0.0531,0.2028,0.287,0.6623,0.9673,1.1979,1.2149,1.2871,1.3758,1.3492,1.4417,1.5849,0.0,0.0,0.0,0.0,0.0,0.4456,0.4267,0.4311,0.4259,0.3993,0.4335,0.4551,0.4495,0.4656,0.4241,0.2849,0.0,0.0,0.0,0.0,0.0,0.0,0.0,0.0,0.0,0.0,-0.3159,-0.3266,-0.4221,-0.4828,0.0,0.0,-0.5976,-0.6167,0.0,0.0,0.0,0.0,0.0,0.0,0.0,0.0,0.0,0.0,0.0,0.0,0.0,0.0,0.0,0.0,0.0,-0.6155,-0.7503,-0.8322,-0.9389,-1.2341,-1.6115,-1.9302,-1.9038,-2.11,-2.3116,-2.2256,-2.0148,-1.761,-1.5003,-1.2795,-1.113,-1.0425,-0.9887,-0.9765,-1.0476,-0.9134,-0.758,-0.6521,-0.5369,-0.4826,-0.5469,-0.7009,-0.9392,-1.295,-1.4492,-1.5864,-1.7297,-1.7115,-1.676,-1.6498,-1.5536,-1.4722,-1.4187,-1.5175,-1.5244,-1.4114,-1.4517,-1.3932,-1.2252,-1.2483,-1.2209,-1.1361,-1.0202,-0.7846,-0.4476,-0.2479,-0.0473,0.1673,0.5953,0.7367,0.7098,1.1297,1.3096,1.3242,1.346,1.4224,1.531,1.531,1.6313,1.7692,0.0,0.0,0.0,0.0,0.0,0.0,0.4617,0.4651,0.4676,0.4601,0.4718,0.4831,0.4896,0.4958,0.4589,0.3585,0.0,0.0,0.0,0.0,0.0,0.0,0.0,0.0,0.0,0.0,-0.1816,-0.202,-0.3029,-0.3446,-0.3345,-0.4551,-0.5029,-0.4924,0.0,0.0,0.0,0.0,0.0,0.0,0.0,0.0,0.0,0.0,0.0,0.0,0.0,0.0,0.0,0.0,0.0,0.0,0.0,-0.7516,0.0,-1.205,-1.3193,-1.4226,-1.8073,-1.9453,-1.9787,-1.943,-1.7379,-1.4942,-1.2975,-1.1066,-0.9468,-0.8525,-0.9271,-0.9816,-0.8897,-0.843,-0.8128,-0.7911,-0.4489,-0.3078,-0.6574,-0.5119,-0.6287,-1.3347,-1.3687,-1.3774,-1.4924,-1.4832,-1.4687,-1.4553,-1.4025,-1.2839,-1.088,-1.2851,-1.3573,-1.2645,-1.2684,-1.226,-1.1294,-1.2218,-1.1388,-0.8671,-0.4781,-0.2667,-0.2091,0.2228,0.6236,0.9873,1.1829,1.2596,1.2646,1.3381,1.4025,1.4553,1.5203,1.6188,1.7165,1.7165,1.7838,1.8867,0.0,0.0,0.0,0.0,0.0,0.0,0.0,0.4423,0.4413,0.4208,0.442,0.4628,0.4686,0.451,0.415,0.3552,0.0,0.0,0.0,0.0,0.0,0.0,0.0,0.0,0.0,0.0,-0.1565,-0.1859,-0.2178,-0.2533,-0.2899,-0.3427,-0.3739,-0.3892,-0.4135,-0.4067,0.0,0.0,0.0,0.0,0.0,0.0,0.0685,0.0,0.0,0.0,0.0,0.0,0.0,0.0,0.0,0.0,0.0,0.0,0.0,-0.8799,-1.0936,-1.3102,-1.4757,-1.6279,-1.733,-1.6922,-1.5146,-1.2769,-1.0039,-0.911,-0.8529,-0.7546,-0.8235,-0.9182,-0.9752,-0.8582,-0.7706,-0.8282,-0.6017,-0.4955,-0.7125,-0.6418,-0.6901,-1.0328,-1.1616,-1.2348,-1.2691,-1.2282,-1.2137,-1.2492,-1.1702,-1.1226,-1.1116,-0.8738,-0.7463,-0.7628,-0.9919,-0.8989,-0.4282,-0.5396,-0.487,-0.2749,-0.0162,0.2167,0.4379,0.7594,0.9781,1.1077,1.2164,1.3135,1.3995,1.5115,1.5428,1.5384,1.6764,1.7692,1.8359,1.8702,1.9251,1.9854,0.0,0.0,0.0,0.0,0.0,0.0,0.0,0.447,0.447,0.4213,0.4372,0.4483,0.4445,0.436,0.4027,0.3398,0.0,0.0,0.0,0.0,0.0,0.0,0.0,0.0,0.0,-0.1242,-0.1432,-0.1687,-0.1865,-0.2102,-0.2409,-0.2707,-0.2893,-0.2954,-0.3223,-0.316,0.0,0.0,0.0,0.0,0.0,0.0,0.1536,0.0,0.0,0.0,0.0,0.0,0.0,0.0,0.0,0.0,0.0,0.0,0.0,0.0,-0.7987,-1.0088,-1.1694,-1.3392,-1.458,-1.4069,-1.2138,-0.9749,-0.7344,-0.591,-0.4861,-0.4077,-0.4769,-0.5924,-0.7246,-0.6321,-0.5783,-0.7142,-0.6414,-0.6179,-0.762,-0.7474,-0.7621,-0.8711,-1.0622,-1.1668,-1.108,-1.0606,-1.0513,-1.1056,-0.9364,-0.7786,-0.6582,-0.3717,-0.1634,-0.0513,-0.4948,-0.5177,-0.064,-0.0968,0.0326,0.3314,0.4781,0.667,0.8903,1.0872,1.2078,1.2609,1.3577,1.4743,0.0,1.6709,1.7068,1.7234,1.8271,1.8933,1.9396,1.9748,2.0058,2.0314,0.0,0.0,0.0,0.0,0.0,0.0,0.0,0.0,0.471,0.4518,0.449,0.4425,0.4238,0.4429,0.418,0.3228,0.0,0.0,0.0,0.0,0.0,0.0,0.0,0.0,0.0,-0.1176,-0.135,-0.1498,-0.1937,-0.2064,-0.1892,-0.2328,-0.2389,-0.215,-0.2411,-0.2298,-0.1836,-0.0977,-0.0133,0.0678,0.1182,0.2198,0.0,0.0,0.0,0.0,0.0,0.0,0.0,0.0,0.0,0.0,0.0,0.0,0.0,0.0,0.0,0.0,0.0,-1.0458,-1.1296,-1.0719,-0.8361,-0.5845,-0.4609,-0.1865,0.0,0.1044,0.0117,-0.121,-0.2617,-0.2771,-0.334,-0.5368,-0.618,-0.6971,-0.8204,-0.8348,-0.8332,-0.8345,-1.0485,-1.1382,-0.9874,-0.9562,-0.9459,-0.9686,-0.6617,-0.2828,0.1437,0.1969,0.3866,0.7743,0.1805,-0.0755,0.0591,0.162,0.4308,0.8648,0.9568,1.0506,1.1411,1.2436,1.3499,1.4626,1.5942,1.7136,1.8185,1.8185,1.8698,1.9534,1.9585,1.9904,2.0299,2.0314,2.0314,2.0348,0.0,0.0,0.0,0.0,0.0,0.0,0.0,0.0,0.0,0.0,0.4392,0.4428,0.4434,0.4305,0.404,0.0,0.0,0.0,0.0,0.0,0.0,0.0,0.0,0.0,-0.0772,-0.0967,-0.1207,-0.1498,-0.1605,-0.1661,-0.1684,-0.1894,-0.1781,-0.1449,-0.1651,-0.1446,-0.0889,-0.0156,0.0465,0.1058,0.1948,0.265,0.0,0.0,0.0,0.0,0.3742,0.285,0.0,0.0,0.0,0.0,0.0,0.0,0.0,0.0,-0.3952,-0.481,-0.4796,0.0,-0.5228,-0.6242,-0.3741,-0.0801,0.0,0.0482,0.0996,0.2272,-0.016,-0.2952,-0.4422,-0.5558,-0.6992,-0.9159,-0.9161,-0.9163,-0.9931,-0.9804,-0.9155,-0.7785,-0.8685,-0.9103,-0.8245,-0.7174,-0.601,-0.471,-0.054,0.2686,0.447,0.7373,0.976,1.1411,0.7959,0.6253,0.6644,0.7606,0.7988,0.7871,1.0175,1.163,1.2292,1.4496,1.6101,1.7142,1.7531,1.8092,1.8688,1.8688,1.8812,1.903,1.9485,1.9884,2.0237,2.0283,2.0516,2.0829,0.0,0.0,0.0,0.0,0.0,0.0,0.0,0.0,0.0,0.0,0.0,0.0,0.0,0.0,0.0,0.0,0.0,0.0,0.0,0.0,0.0,0.0,0.0,-0.0473,-0.0605,-0.0808,-0.1109,-0.1509,-0.1571,-0.1685,-0.1828,-0.1781,-0.156,-0.1185,-0.1094,-0.069,-0.0067,0.0334,0.104,0.1978,0.2677,0.0,0.0,0.0,0.0,0.0,0.4073,0.3446,0.0,0.228,0.1594,0.086,0.0,0.0,0.0,0.0,-0.1909,-0.2749,-0.2419,-0.301,-0.3658,-0.3373,-0.0943,0.1718,0.2987,0.3409,0.3906,0.521,0.2564,-0.0431,-0.1909,-0.3278,-0.4989,-0.7381,-0.8192,-0.8984,-1.0357,-1.0537,-0.9647,-0.7312,-0.8263,-0.8201,-0.5774,-0.3634,-0.1821,-0.0479,0.3348,0.7063,1.0351,1.1122,1.2147,1.3549,1.1871,1.038,0.9179,0.9354,0.9481,0.9519,1.1344,1.279,1.3998,1.5644,1.6985,1.8051,1.8352,1.8864,1.9528,1.9528,1.9641,1.9858,2.0177,2.0416,2.0569,2.0601,2.0894,2.1227,0.0,0.0,0.0,0.0,0.0,0.0,0.0,0.0,0.0,0.0,0.0,0.0,0.0,0.0,0.0,0.0,0.0,0.0,0.0,0.0,0.0,0.0,0.0,-0.033,-0.0424,-0.067,-0.1017,-0.1462,-0.1592,-0.1784,-0.2012,-0.174,-0.138,-0.0961,-0.0535,0.0022,0.0645,0.0822,0.1698,0.2965,0.3377,0.0,0.0,0.0,0.0,0.0,0.0,0.0,0.0,0.305,0.2997,0.3129,0.2907,0.0,0.0,0.0,0.0,0.0,-0.1034,-0.2417,-0.3223,-0.119,0.1188,0.3454,0.5029,0.6313,0.7353,0.8026,0.5756,0.3123,0.1458,-0.0004,-0.172,-0.4056,-0.5946,-0.7861,-1.0,-1.0562,-0.9724,-0.6908,-0.8089,-0.7406,-0.2928,0.0301,0.257,0.37,0.6834,1.0833,1.5799,1.3841,1.3138,1.4438,1.4089,1.2725,1.0183,0.9688,1.0269,1.1883,1.2686,1.4032,1.5728,1.6378,1.7287,1.8468,1.8916,1.9564,2.0314,2.0314,2.0583,2.0991,2.0926,2.0959,2.1086,2.1023,2.1258,2.1632,0.0,0.0,0.0,0.0,0.0,0.0,0.0,0.0,0.0,0.0,0.0,0.0,0.0,0.0,0.0,0.0,0.0,0.0,0.0,0.0,0.0,0.0915,0.0494,0.016,-0.0065,-0.0501,-0.0919,-0.134,-0.14,-0.1521,-0.1658,-0.1294,-0.0713,-0.0,0.0245,0.0667,0.1218,0.1975,0.2584,0.3123,0.3859,0.0,0.0,0.0,0.0,0.0,0.0,0.0,0.0,0.4087,0.4227,0.433,0.4366,0.0,0.0,0.0,0.0,0.0,-0.0417,0.0327,0.1279,0.1592,0.4287,0.6985,0.75,0.7978,0.8105,0.7293,0.5116,0.2588,0.0027,-0.2358,-0.4297,-0.5375,-0.6457,-0.7675,-0.9112,-0.9562,-0.8944,-0.6774,-0.6319,-0.4485,-0.0134,0.3228,0.6256,0.8993,1.2815,1.4867,1.4653,1.5709,1.5596,1.3871,1.4187,1.3715,1.2357,1.2802,1.2908,1.2657,1.382,1.5038,1.6223,1.7356,1.8631,1.9989,2.0058,2.0177,2.0314,2.0314,2.0583,2.0959,2.055,2.0878,2.146,2.1118,2.1442,2.2135,0.0,0.0,0.0,0.0,0.0,0.0,0.0,0.0,0.0,0.0,0.0,0.0,0.0,0.0,0.0,0.0,0.0,0.0,0.0,0.0,0.0,0.1178,0.0885,0.0473,-0.0045,-0.0448,-0.0851,-0.1296,-0.141,-0.1521,-0.1629,-0.0868,-0.0,0.0911,0.0999,0.1701,0.2816,0.29,0.3329,0.4014,0.0,0.0,0.0,0.0,0.0,0.0,0.0,0.0,0.0,0.0,0.5437,0.5571,0.5566,0.0,0.0,0.0,0.0,0.0,0.0748,0.214,0.3782,0.3904,0.6153,0.8382,0.8558,0.9006,0.8718,0.6269,0.4076,0.1846,-0.0624,-0.2746,-0.4526,-0.5822,-0.6775,-0.7772,-0.8929,-0.9144,-0.816,-0.5384,-0.3143,-0.0481,0.289,0.7224,1.018,1.1094,1.4105,1.5764,1.5492,1.5951,1.5902,1.5194,1.5138,1.4835,1.431,1.4619,1.4619,1.4321,1.4595,1.5463,1.6889,1.7598,1.8659,1.9954,2.0196,2.0449,2.0682,2.0682,2.0797,2.0991,2.1007,2.1366,2.1915,2.231,2.2677,2.3058,0.0,0.0,0.0,0.0,0.0,0.0,0.0,0.0,0.0,0.0,0.0,0.0,0.0,0.0,0.0,0.0,0.0,0.0,0.0,0.0,0.1905,0.1449,0.1092,0.058,-0.0045,-0.0435,-0.09,-0.1425,-0.1499,-0.148,-0.1355,-0.0199,0.0795,0.1639,0.1894,0.2783,0.4037,0.372,0.4091,0.4924,0.0,0.0,0.0,0.0,0.0,0.0,0.0,0.0,0.0,0.0,0.0,0.0,0.0,0.0,0.0,0.3996,0.32,0.2601,0.1876,0.3345,0.5166,0.5511,0.7187,0.8822,0.9105,0.9506,0.8988,0.6044,0.4002,0.1933,-0.0752,-0.2681,-0.4235,-0.535,-0.6413,-0.7472,-0.8392,-0.8132,-0.6596,-0.3175,-0.0129,0.2885,0.5835,1.018,1.2637,1.2154,1.4281,1.5892,1.6584,1.6179,1.6004,1.6194,1.5911,1.5738,1.5796,1.5796,1.5796,1.5796,1.5309,1.5978,1.7612,1.8015,1.8899,2.0097,2.0452,2.0813,2.115,2.115,2.115,2.1181,2.1491,2.1874,2.2371,2.3351,2.3692,2.3753,0.0,0.0,0.0,0.0,0.0,0.0,0.0,0.0,0.0,0.0,0.0,0.0,0.0,0.0,0.0,0.0,0.0,0.0,0.0,0.0,0.2272,0.1876,0.0997,0.0401,0.0089,-0.048,-0.1095,-0.1766,-0.1651,-0.118,-0.0378,0.1008,0.1779,0.2011,0.3078,0.368,0.3945,0.454,0.5038,0.5486,0.603,0.0,0.0,0.0,0.0,0.0,0.0,0.0,0.0,0.0,0.0,0.0,0.0,0.0,0.5767,0.4858,0.3786,0.2837,0.2581,0.3859,0.5434,0.6078,0.7261,0.8508,0.9518,0.9353,0.8667,0.7534,0.6061,0.3722,-0.0369,-0.2888,-0.4173,-0.3602,-0.4991,-0.625,-0.6738,-0.5601,-0.3505,-0.0192,0.1831,0.4537,0.8522,1.0614,1.2091,1.303,1.5066,1.6491,1.7016,1.7346,1.6959,1.5716,1.5992,1.6224,1.6336,1.6336,1.6336,1.6336,1.6293,1.7044,1.8536,1.917,2.0203,2.1444,2.1491,2.1521,2.1552,2.1552,2.1552,2.1552,2.1582,2.2017,2.2729,2.3437,2.3692,2.3753,0.0,0.0,0.0,0.0,0.0,0.0,0.0,0.0,0.0,0.0,0.0,0.0,0.0,0.0,0.0,0.0,0.0,0.0,0.0,0.3054,0.2466,0.2102,0.1419,0.0821,0.0287,-0.0458,-0.11,-0.1544,-0.0785,-0.0295,-0.0022,0.173,0.2561,0.2665,0.3639,0.4339,0.4808,0.531,0.5733,0.6094,0.66,0.6634,0.0,0.0,0.0,0.0,0.0,0.0,0.0,0.0,0.7211,0.7055,0.6597,0.6162,0.5614,0.4575,0.3879,0.3376,0.3021,0.4377,0.5832,0.551,0.683,0.8388,0.9137,0.9093,0.8168,0.5546,0.4791,0.3176,-0.1392,-0.3138,-0.3956,-0.4144,-0.5041,-0.5646,-0.5283,-0.2945,-0.0295,0.2242,0.6188,0.9342,1.0915,1.251,1.3581,1.3905,1.5271,1.6081,1.6005,1.6143,1.6126,1.603,1.6243,1.6559,1.6954,1.7585,1.8074,1.8398,1.8034,1.8369,1.9228,2.0005,2.0783,2.1582,2.1582,2.1582,2.1582,2.1582,2.1582,2.1672,2.2317,2.278,2.3093,2.3756,2.4016,2.4016,0.0,0.0,0.0,0.0,0.0,0.0,0.0,0.0,0.0,0.0,0.0,0.0,0.0,0.0,0.0,0.0,0.0,0.0,0.4022,0.3356,0.2842,0.2536,0.192,0.1279,0.0594,-0.0154,-0.0921,-0.1648,-0.0484,0.0281,0.07,0.2461,0.3279,0.3298,0.4327,0.5039,0.5523,0.5989,0.634,0.663,0.7104,0.7088,0.0,0.0,0.0,0.0,0.0,0.0,0.0,0.0,0.7548,0.7245,0.6753,0.6294,0.5805,0.4991,0.4356,0.3859,0.3612,0.4822,0.5955,0.5151,0.6296,0.769,0.8004,0.794,0.715,0.4897,0.4091,0.2384,-0.2277,-0.2884,-0.2711,-0.2903,-0.3655,-0.3814,-0.2776,-0.0193,0.2405,0.4635,0.8931,1.1865,1.223,1.3657,1.4506,1.4398,1.5231,1.5663,1.5519,1.5483,1.5709,1.6214,1.6631,1.7009,1.7345,1.8613,1.9385,1.9703,1.9702,1.9863,2.0252,2.0815,2.1318,2.1823,2.1823,2.1823,2.1823,2.1823,2.1866,2.2046,2.2979,2.3369,2.3414,2.3996,2.419,2.419,0.0,0.0,0.0,0.0,0.0,0.0,0.0,0.0,0.0,0.0,0.0,0.0,0.0,0.0,0.0,0.0,0.0,0.0,0.4171,0.3797,0.3481,0.322,0.2448,0.1707,0.103,0.0481,-0.0591,-0.217,-0.0962,0.0405,0.1941,0.3278,0.388,0.3859,0.5202,0.5848,0.5945,0.6544,0.6891,0.7042,0.7514,0.7376,0.696,0.0,0.0,0.0,0.0,0.0,0.0,0.0,0.8102,0.7636,0.7838,0.725,0.6478,0.6423,0.5362,0.4263,0.4449,0.5146,0.5686,0.5218,0.5718,0.6275,0.6108,0.5731,0.5581,0.6333,0.4573,0.157,-0.2736,-0.1927,-0.0278,0.0742,-0.0228,-0.0516,0.1013,0.2573,0.4501,0.7012,0.9448,1.1312,1.233,1.369,1.4474,1.4405,1.4833,1.5363,1.5963,1.5861,1.5897,1.6113,1.7069,1.7563,1.7513,1.9293,2.0094,1.9922,2.1057,2.1612,2.1582,2.1612,2.1853,2.231,2.231,2.231,2.231,2.231,2.2463,2.2772,2.3437,2.3692,2.3735,2.4074,2.419,2.419,0.0,0.0,0.0,0.0,0.0,0.0,0.0,0.0,0.0,0.0,0.0,0.0,0.0,0.0,0.0,0.0,0.0,0.0,0.4293,0.4019,0.3772,0.3549,0.3315,0.267,0.1517,0.0588,-0.0154,-0.0732,0.0543,0.15,0.222,0.3937,0.461,0.4407,0.5679,0.6254,0.6359,0.6924,0.7228,0.7357,0.7559,0.762,0.759,0.0,0.0,0.0,0.0,0.0,0.0,0.0,0.0,0.0,0.7547,0.7036,0.6347,0.6282,0.5723,0.5117,0.5137,0.5742,0.6158,0.5253,0.5713,0.6187,0.5431,0.4589,0.4455,0.6109,0.4059,0.1798,0.1076,0.0343,-0.0042,0.0338,0.0917,0.155,0.2242,0.5526,0.8054,0.8522,1.1001,1.2916,1.3527,1.4713,1.5228,1.4716,1.5242,1.5462,1.5167,1.5242,1.5648,1.6355,1.6703,1.7194,1.7866,1.9053,1.9625,1.9577,2.0739,2.1428,2.1628,2.1928,2.2271,2.2573,2.2573,2.2704,2.2933,2.2933,2.2989,2.3093,2.3522,2.3692,2.3735,2.4074,2.419,2.419,0.0,0.0,0.0,0.0,0.0,0.0,0.0,0.0,0.0,0.0,0.0,0.0,0.0,0.0,0.0,0.0,0.0,0.0,0.0,0.4281,0.4145,0.3939,0.3836,0.326,0.2168,0.1405,0.1014,0.1024,0.1628,0.2326,0.3114,0.4336,0.4895,0.4904,0.583,0.6336,0.6527,0.6957,0.7214,0.7357,0.759,0.7709,0.7768,0.0,0.0,0.0,0.0,0.0,0.0,0.0,0.0,0.0,0.7704,0.725,0.6663,0.686,0.6411,0.5873,0.5957,0.6193,0.6175,0.5165,0.5335,0.5439,0.4119,0.3717,0.3935,0.4922,0.4022,0.3199,0.3763,0.263,0.176,0.2156,0.302,0.3874,0.4643,0.7412,0.9559,1.0125,1.1945,1.3361,1.3834,1.4639,1.5,1.4591,1.4848,1.4932,1.4797,1.5043,1.5548,1.6396,1.7005,1.759,1.8155,1.9138,1.9807,2.0123,2.0959,2.1606,2.2046,2.2337,2.2616,2.2898,2.2898,2.2947,2.3021,2.33,2.3392,2.3414,2.3774,2.3896,2.3917,2.4132,2.419,2.419,0.0,0.0,0.0,0.0,0.0,0.0,0.0,0.0,0.0,0.0,0.0,0.0,0.0,0.0,0.0,0.0,0.0,0.0,0.0,0.0,0.4492,0.4305,0.4014,0.357,0.2931,0.2662,0.2614,0.282,0.2379,0.2882,0.4264,0.4519,0.4863,0.5319,0.5797,0.6213,0.6544,0.6811,0.6993,0.7171,0.7621,0.7724,0.7665,0.7912,0.0,0.0,0.0,0.0,0.0,0.0,0.0,0.0,0.7988,0.7592,0.7133,0.7677,0.7141,0.6441,0.6759,0.6492,0.5909,0.5083,0.4847,0.4372,0.2712,0.3197,0.3885,0.3364,0.4264,0.5218,0.5343,0.4762,0.4539,0.527,0.5617,0.625,0.7501,0.8421,0.9642,1.135,1.2292,1.2928,1.3371,1.3883,1.4177,1.4115,1.3949,1.4115,1.4716,1.5119,1.5666,1.6378,1.7633,1.8343,1.8434,1.9378,2.0272,2.1155,2.1401,2.1937,2.2693,2.2737,2.2923,2.3253,2.3277,2.3117,2.288,2.3482,2.3753,2.3774,2.4074,2.419,2.419,2.419,2.419,2.419,0.0,0.0,0.0,0.0,0.0,0.0,0.0,0.0,0.0,0.0,0.0,0.0,0.0,0.0,0.0,0.0,0.0,0.0,0.0,0.0,0.4321,0.4228,0.3874,0.3728,0.3887,0.3522,0.3467,0.3729,0.3054,0.3163,0.4007,0.4566,0.501,0.5337,0.5961,0.6418,0.6744,0.696,0.7203,0.7438,0.7695,0.7812,0.7856,0.7957,0.7941,0.0,0.0,0.0,0.0,0.0,0.0,0.0,0.7219,0.6822,0.6406,0.6487,0.6312,0.6136,0.636,0.6298,0.6091,0.5675,0.5183,0.4542,0.3512,0.3843,0.4221,0.3811,0.4358,0.5112,0.5788,0.5832,0.5798,0.5972,0.6868,0.7538,0.7396,0.8712,0.9691,0.9668,1.1391,1.2598,1.2713,1.362,1.3976,1.3436,1.3852,1.4197,1.4393,1.5151,1.6079,1.7044,1.7371,1.7929,1.8781,1.8654,1.9275,2.0649,2.0915,2.1586,2.2625,2.2946,2.3277,2.3628,2.3876,2.3937,2.3896,2.4036,2.4094,2.4094,2.417,2.419,2.419,2.419,2.419,2.419,0.0,0.0,0.0,0.0,0.0,0.0,0.0,0.0,0.0,0.0,0.0,0.0,0.0,0.0,0.0,0.0,0.0,0.0,0.0,0.0,0.4321,0.426,0.4268,0.43,0.4337,0.4452,0.4392,0.4142,0.3994,0.3973,0.4109,0.4615,0.5001,0.527,0.5815,0.626,0.6625,0.6861,0.7137,0.742,0.7589,0.7739,0.787,0.7956,0.7984,0.7926,0.7811,0.0,0.0,0.0,0.0,0.0,0.0,0.0,0.7089,0.7246,0.7246,0.7196,0.7215,0.7069,0.6661,0.5663,0.5003,0.4479,0.3918,0.4141,0.4572,0.4837,0.5059,0.5376,0.6023,0.6308,0.6433,0.645,0.7347,0.7999,0.7889,0.9046,0.9844,0.9746,1.1212,1.2167,1.2037,1.2868,1.3282,1.2942,1.3122,1.3604,1.4451,1.5124,1.6033,1.7263,1.7455,1.804,1.9087,1.8871,1.9595,2.1208,2.1562,2.2301,2.3375,2.3575,2.3692,2.3714,2.4036,2.4113,2.3976,2.4113,2.419,2.419,2.419,2.419,2.419,2.419,2.419,2.419,0.0,0.0,0.0,0.0,0.0,0.0,0.0,0.0,0.0,0.0,0.0,0.0,0.0,0.0,0.0,0.0,0.0,0.0,0.0,0.0,0.0,0.4414,0.4803,0.4902,0.4655,0.5184,0.5136,0.4518,0.4866,0.4827,0.4438,0.4635,0.4873,0.5127,0.5547,0.5954,0.6383,0.6655,0.697,0.7276,0.7421,0.7632,0.7841,0.7929,0.7988,0.8005,0.7695,0.7767,0.7998,0.7943,0.0,0.0,0.0,0.0,0.8009,0.8254,0.8334,0.8333,0.8064,0.7787,0.7206,0.5598,0.4965,0.4616,0.4227,0.4488,0.5081,0.5927,0.5927,0.591,0.6385,0.6766,0.7029,0.7031,0.7779,0.8412,0.8551,0.9334,0.9935,1.0081,1.1059,1.1646,1.1444,1.226,1.2758,1.2684,1.2713,1.3326,1.4706,1.5253,1.6104,1.7412,1.7777,1.8469,1.9573,1.9559,2.0459,2.2296,2.2695,2.3338,2.419,2.419,2.4054,2.3795,2.4074,2.4036,2.3816,2.4094,2.419,2.419,2.419,2.419,2.419,2.419,2.419,2.419,0.0,0.0,0.0,0.0,0.0,0.0,0.0,0.0,0.0,0.0,0.0,0.0,0.0,0.0,0.0,0.0,0.0,0.0,0.4715,0.0,0.0,0.4911,0.502,0.5137,0.5273,0.5262,0.527,0.5353,0.524,0.5116,0.4991,0.4618,0.4564,0.4785,0.5252,0.5752,0.6236,0.6512,0.6824,0.7139,0.7329,0.765,0.7951,0.7869,0.7968,0.811,0.7732,0.7783,0.7952,0.7731,0.7843,0.0,0.0,0.0,0.7747,0.7255,0.7494,0.7793,0.7286,0.7131,0.6922,0.6224,0.6001,0.5763,0.497,0.5273,0.5882,0.64,0.6556,0.6757,0.7384,0.7958,0.8342,0.8342,0.918,0.9593,0.8949,0.9413,0.9584,0.9002,1.0121,1.1002,1.1148,1.2608,1.3384,1.2973,1.4107,1.4894,1.5117,1.6234,1.7228,1.8048,1.8351,1.9195,2.0668,2.0291,2.1234,2.3487,2.3812,2.406,2.419,2.419,2.417,2.4151,2.417,2.417,2.4151,2.417,2.419,2.419,2.419,2.419,2.419,2.419,2.419,2.419,0.0,0.0,0.0,0.0,0.0,0.0,0.0,0.0,0.0,0.0,0.0,0.0,0.0,0.0,0.0,0.5866,0.5383,0.501,0.4834,0.4882,0.497,0.5108,0.5175,0.5291,0.5465,0.5659,0.5704,0.5553,0.614,0.6031,0.5276,0.5899,0.5792,0.5059,0.5809,0.6244,0.6467,0.7038,0.7358,0.7541,0.8035,0.8308,0.8362,0.8155,0.8182,0.8257,0.7945,0.7976,0.816,0.8153,0.841,0.8674,0.841,0.0,0.0,0.0,0.8387,0.8713,0.8289,0.7821,0.7327,0.6828,0.6506,0.6204,0.5827,0.6065,0.6511,0.7089,0.7366,0.7507,0.7578,0.8135,0.855,0.8443,0.8951,0.9281,0.8993,0.9227,0.9299,0.8959,1.0135,1.0956,1.0926,1.2368,1.3394,1.359,1.3937,1.4553,1.553,1.6269,1.6992,1.7727,1.8298,1.9212,2.0508,2.0559,2.1642,2.3692,2.3671,2.3837,2.419,2.3996,2.4016,2.419,2.419,2.419,2.419,2.419,2.419,2.419,2.419,2.419,2.419,2.419,2.419,2.419,0.0,0.0,0.0,0.0,0.0,0.0,0.0,0.0,0.0,0.0,0.0,0.0,0.0,0.0,0.0,0.0,0.5643,0.5224,0.502,0.5078,0.5166,0.5273,0.55,0.5607,0.5568,0.6091,0.6252,0.5977,0.6828,0.6852,0.6145,0.7319,0.7225,0.61,0.6632,0.6853,0.6876,0.7598,0.793,0.8039,0.8718,0.8894,0.8746,0.8774,0.8726,0.862,0.8637,0.8748,0.8886,0.892,0.9194,0.9473,0.9116,0.9189,0.0,0.0,0.0,0.9439,0.932,0.8767,0.8102,0.757,0.7156,0.6829,0.6623,0.6707,0.6988,0.7544,0.7848,0.7957,0.7792,0.825,0.86,0.846,0.8734,0.8985,0.9016,0.9101,0.9206,0.9312,1.0327,1.1068,1.118,1.2454,1.3464,1.3926,1.3971,1.4452,1.561,1.6095,1.6706,1.7453,1.8057,1.8968,2.0192,2.0936,2.207,2.3526,2.3279,2.3533,2.419,2.3737,2.3775,2.419,2.419,2.419,2.419,2.419,2.419,2.419,2.419,2.419,2.419,2.419,2.419,2.419,0.0,0.0,0.0,0.0,0.0,0.0,0.0,0.0,0.0,0.0,0.0,0.0,0.7896,0.7608,0.7125,0.6351,0.6085,0.5765,0.5321,0.5224,0.5292,0.5473,0.6173,0.0,0.5804,0.6501,0.6923,0.7019,0.6903,0.7261,0.8072,0.8392,0.8429,0.8225,0.7623,0.7395,0.7486,0.7966,0.8291,0.8511,0.9046,0.9125,0.8987,0.9793,0.9746,0.935,1.0096,1.0413,1.0408,0.9984,1.0103,1.0287,0.9525,0.9508,0.9661,0.0,0.0,0.0,0.9648,0.959,0.9242,0.8518,0.8266,0.8,0.7243,0.7121,0.7237,0.7469,0.7665,0.7954,0.8379,0.8641,0.879,0.8779,0.9163,0.9385,0.9129,0.9199,0.9459,0.9898,1.0463,1.1197,1.2131,1.3339,1.3927,1.3642,1.4951,1.5558,1.5057,1.5967,1.6864,1.7653,1.7707,1.8551,2.0174,2.1747,2.2677,2.3033,2.3033,2.3418,2.4171,2.3382,2.3455,2.419,2.419,2.419,2.419,2.419,2.419,2.419,2.419,2.419,2.419,2.419,2.419,2.419,0.0,0.0,0.0,0.0,0.0,0.0,0.0,0.0,0.0,0.0,0.0,0.0,0.0,0.7772,0.7474,0.7218,0.6615,0.615,0.5899,0.5776,0.5684,0.5627,0.6467,0.6648,0.6063,0.6734,0.7186,0.7342,0.7497,0.7675,0.79,0.9035,0.9227,0.8591,0.8378,0.8333,0.8435,0.8899,0.9336,0.9796,1.0629,1.0816,1.0568,1.0564,1.0424,1.0288,1.0904,1.1302,1.1531,1.1694,1.1494,1.1001,1.0256,0.9742,0.9423,0.9416,0.9478,0.9545,0.9551,0.9327,0.9067,0.8847,0.8571,0.8366,0.8388,0.8261,0.8309,0.8854,0.8659,0.8602,0.9329,0.9099,0.89,0.9193,0.9386,0.95,0.9491,0.9897,1.0204,1.025,1.1212,1.2001,1.2263,1.3126,1.3853,1.433,1.4516,1.4781,1.5166,1.6022,1.6628,1.6915,1.7958,1.9056,2.0119,2.122,2.1801,2.1896,2.1896,2.2172,2.2666,2.2905,2.3162,2.3456,2.3988,2.419,2.419,2.419,2.419,2.419,2.419,2.419,2.419,2.419,2.419,2.419,0.0,0.0,0.0,0.0,0.0,0.0,0.0,0.0,0.0,0.0,0.0,0.0,0.0,0.0,0.7945,0.7772,0.6991,0.651,0.6532,0.6389,0.6307,0.6308,0.7181,0.7415,0.6918,0.7543,0.7802,0.7696,0.824,0.8405,0.8244,0.9835,1.0186,0.9473,0.9503,0.9444,0.9336,0.9688,1.0169,1.0773,1.1723,1.1941,1.1737,1.2062,1.1929,1.1698,1.2599,1.284,1.2771,1.293,1.245,1.1614,1.0696,0.9874,0.9328,0.9877,0.9883,0.9684,0.9467,0.9351,0.9272,0.9132,0.8993,0.8997,0.9486,0.9281,0.9258,1.0242,0.9897,0.9564,1.0129,0.9793,0.9442,0.9501,0.9534,0.9684,0.9982,1.0413,1.0811,1.1065,1.1943,1.2532,1.2667,1.3108,1.3667,1.4346,1.4038,1.425,1.5284,1.5855,1.6371,1.6882,1.8264,1.9236,1.9741,2.0441,2.0838,2.0934,2.084,2.1042,2.1552,2.217,2.2611,2.2922,2.3803,2.419,2.419,2.419,2.419,2.419,2.419,2.419,2.419,2.419,2.419,2.419,0.0,0.0,0.0,0.0,0.0,0.0,0.0,0.0,0.0,0.9385,0.0,0.0,0.0,0.0,0.0,0.7977,0.7192,0.6871,0.7186,0.7023,0.7106,0.7486,0.8347,0.8665,0.8304,0.8917,0.8861,0.8141,0.9052,0.9386,0.9241,1.0742,1.1293,1.0987,1.0922,1.0593,1.0135,1.026,1.0719,1.1395,1.2203,1.2373,1.2347,1.4169,1.4197,1.3508,1.5071,1.5024,1.4122,1.3616,1.2963,1.2155,1.0889,0.9991,0.956,1.047,1.0215,0.961,0.0,0.0,0.0,0.9428,0.9549,0.9917,1.0478,1.0065,0.9964,1.1432,1.1262,1.0819,1.0772,1.0728,1.0439,0.9671,0.9636,0.9916,1.0584,1.071,1.1162,1.2325,1.2511,1.2753,1.3345,1.3396,1.3462,1.3594,1.3625,1.4171,1.534,1.5441,1.6167,1.7689,1.8552,1.8984,1.9002,1.952,1.99,2.0146,1.9903,2.0188,2.095,2.1246,2.18,2.26,2.369,2.4153,2.4171,2.419,2.419,2.419,2.419,2.419,2.419,2.419,2.419,2.419,0.0,0.0,0.0,0.0,0.0,0.0,0.0,0.0,0.9501,0.0,0.0,0.0,0.9008,0.896,0.8805,0.8432,0.8065,0.7788,0.765,0.7625,0.7585,0.7509,0.8656,0.9046,0.8537,0.9245,0.9493,0.9191,0.9204,0.9255,0.9367,1.0183,1.0535,1.0483,1.0484,1.0626,1.0883,1.0746,1.1158,1.2033,1.2822,1.3182,1.3293,1.3741,1.3526,1.3123,1.4061,1.4233,1.4117,1.4446,1.4491,1.4196,1.3066,1.2106,1.1445,1.17,1.1262,1.0645,1.0452,0.0,0.0,0.0,0.0,0.0,1.0502,1.0658,1.0951,1.2282,1.2039,1.174,1.2266,1.1451,1.0666,1.053,1.006,0.9764,0.9952,1.0847,1.1567,1.1749,1.2672,1.3322,1.3396,1.3396,1.3447,1.358,1.4258,1.4889,1.5379,1.646,1.7556,1.8608,1.8699,1.8807,1.9002,1.8966,1.8962,1.9039,1.9147,1.9345,1.9578,2.0396,2.0868,2.1186,2.2667,2.3327,2.3382,2.3951,2.419,2.419,2.419,2.419,2.419,2.419,2.419,2.419,0.0,0.0,0.0,0.0,0.0,0.0,0.9501,0.9412,0.9408,0.0,0.0,0.0,0.8992,0.8999,0.8955,0.885,0.8623,0.8428,0.8345,0.8361,0.837,0.8417,0.9342,0.9727,0.9475,0.9895,0.9939,0.9517,0.9882,0.9861,0.9481,1.0613,1.1005,1.0734,1.0722,1.0841,1.1062,1.0992,1.1468,1.232,1.3059,1.3524,1.3803,1.4044,1.3899,1.3646,1.4198,1.4294,1.423,1.4656,1.4585,1.4336,1.4415,1.3403,1.2265,1.2631,1.2026,1.1252,1.141,1.0428,0.946,1.0096,0.0,0.0,1.1073,1.1301,1.1674,1.3316,1.3212,1.2899,1.317,1.2521,1.1748,1.1097,1.0863,1.0655,1.0257,1.1111,1.1853,1.1975,1.2952,1.3534,1.3396,1.3396,1.343,1.3515,1.445,1.5386,1.6222,1.7533,1.8419,1.8824,1.8678,1.868,1.8824,1.8586,1.8497,1.8609,1.8646,1.8717,1.8877,1.9906,2.0558,2.0951,2.2226,2.2989,2.3335,2.3794,2.4074,2.419,2.419,2.419,2.419,2.419,2.419,2.419,0.0,0.0,0.0,0.0,0.8801,0.9108,0.9753,0.9357,0.9185,0.0,0.9277,0.8937,0.9108,0.9092,0.9092,0.9151,0.8921,0.8866,0.9054,0.9069,0.9262,0.9713,1.0147,1.0483,1.0729,1.0681,1.0291,0.9527,1.0748,1.0734,0.9642,1.1499,1.1984,1.1293,0.0,1.1159,1.1103,1.1244,1.1791,1.2586,1.3091,1.3511,1.392,1.4574,1.4599,1.4383,1.4741,1.461,1.4329,1.4674,1.4193,1.3684,1.5328,1.4372,1.277,1.3455,1.2714,1.1782,1.2364,1.1348,1.0284,1.0942,1.0448,0.0,1.1819,1.1928,1.2233,1.412,1.4344,1.4048,1.3603,1.3538,1.3017,1.1371,1.1705,1.1873,1.102,1.1481,1.2091,1.2648,1.3232,1.352,1.3413,1.3396,1.3413,1.3413,1.4448,1.5837,1.7578,1.8511,1.8878,1.8598,1.8582,1.857,1.8556,1.8321,1.8334,1.8554,1.8376,1.8406,1.8681,1.9632,2.0525,2.1332,2.2046,2.2851,2.3628,2.3732,2.3896,2.415,2.4189,2.419,2.419,2.419,2.419,2.419,0.0,0.0,0.0,0.0,0.0,0.9536,0.9569,0.9461,0.942,0.9555,0.9396,0.9289,0.9328,0.9378,0.9286,0.8981,0.9101,0.9101,0.8953,0.922,0.9605,1.0008,1.047,1.0798,1.1015,1.1062,1.0841,1.0361,1.0804,1.0719,1.0253,1.1116,1.1437,1.127,1.0907,1.1294,1.2168,1.2067,1.2769,1.3952,1.3415,1.3359,1.358,1.3612,1.3447,1.3221,1.3297,1.3407,1.3851,1.5947,1.6091,1.5583,1.6883,1.6424,1.5297,1.4724,1.3964,1.3316,1.3293,1.2463,1.1617,1.1696,1.135,0.0,1.1406,1.2209,1.2955,1.3263,1.4138,1.4562,1.3724,1.3074,1.2328,1.1345,1.1301,1.1289,1.0945,1.1844,1.2563,1.2686,1.3144,1.3429,1.3396,1.3396,1.3445,1.355,1.5229,1.699,1.8627,1.8889,1.8873,1.8603,1.8381,1.8273,1.8278,1.8232,1.8235,1.827,1.8663,1.8878,1.893,1.9142,1.9752,2.0711,2.1333,2.2186,2.3177,2.3838,2.3971,2.3819,2.4092,2.419,2.419,2.419,2.419,2.419,0.0,0.0,0.0,0.0,0.0,0.0,0.9686,0.9316,0.9155,0.9581,0.9593,0.954,0.954,0.9605,0.954,0.9316,0.9461,0.9487,0.9304,0.9607,0.9957,1.0323,1.0715,1.108,1.1445,1.1187,1.1094,1.1199,1.0963,1.0825,1.0801,1.1192,1.1626,1.2087,1.1713,1.2119,1.3099,1.2991,1.3196,1.3552,1.348,1.3549,1.3644,1.3187,1.2932,1.2864,1.3039,1.3632,1.4683,1.6895,1.716,1.6799,1.824,1.758,1.6149,1.5652,1.4683,1.3844,1.3993,1.2992,1.1875,1.1733,1.114,0.0,0.0,1.1264,1.2021,1.2906,1.3747,1.4171,1.3761,1.3451,1.2812,1.1518,1.196,1.2159,1.119,1.2058,1.2768,1.2707,1.3104,1.3549,1.3904,1.4076,1.4535,1.5463,1.6494,1.7495,1.8557,1.861,1.8473,1.8211,1.8073,1.8065,1.8197,1.8191,1.8321,1.861,1.8877,1.9002,1.9002,1.9381,2.0065,2.097,2.1484,2.2335,2.3391,2.3773,2.3852,2.3721,2.4072,2.419,2.419,2.419,2.419,2.419,0.9049,0.0,0.0,0.0,0.9466,0.0,0.0,0.917,0.8981,0.9724,0.9788,0.9776,0.9828,0.9828,0.9878,0.999,1.0016,1.0054,1.0166,1.0404,1.0715,1.1082,1.1156,1.1418,1.1896,1.1334,1.1193,1.1468,1.1099,1.0935,1.0991,1.1468,1.211,1.2909,1.2867,1.331,1.4086,1.4071,1.3791,1.3382,1.3715,1.3838,1.3727,1.3109,1.2962,1.3114,1.3548,1.4561,1.5923,1.7531,1.7734,1.751,1.8763,1.787,1.6307,1.6004,1.4985,1.404,1.4454,1.3392,1.2086,1.1731,1.0954,1.0216,0.0,0.0,0.0,1.2607,1.3297,1.3582,1.3565,1.3716,1.324,1.149,1.2417,1.2867,1.143,1.225,1.2984,1.2832,1.3246,1.3802,1.452,1.49,1.5748,1.7312,1.7453,1.7681,1.8181,1.8191,1.8078,1.7811,1.7856,1.798,1.8203,1.8255,1.8497,1.8929,1.8911,1.8986,1.9165,1.9758,2.0532,2.1384,2.175,2.2529,2.3578,2.3578,2.3668,2.3816,2.4094,2.419,2.419,2.419,2.419,2.419,0.9537,0.9387,0.0,0.0,0.9584,0.9449,0.9381,0.9369,0.949,0.9841,0.9931,1.0072,1.0285,1.0072,1.0224,1.1057,1.0895,1.1086,1.1773,1.2025,1.2334,1.2795,1.2221,1.2025,1.2332,1.1799,1.1119,1.0297,1.099,1.0964,1.0273,1.1871,1.2734,1.294,1.3744,1.4609,1.5487,1.5415,1.5503,1.5648,1.4763,1.4031,1.3463,1.3489,1.3686,1.4059,1.4874,1.5841,1.6853,1.7725,1.7835,1.7591,1.7312,1.6923,1.6347,1.5195,1.4701,1.4504,1.4447,1.3962,1.325,1.2341,1.1807,1.1173,0.9945,0.0,1.1281,1.1923,0.0,1.3411,1.2834,0.0,0.0,1.0692,1.1178,1.1654,1.1327,1.2522,1.3383,1.3241,1.37,1.4246,1.4806,1.5418,1.6164,1.7072,1.731,1.7648,1.8179,1.8211,1.8078,1.7811,1.8035,1.8166,1.8191,1.845,1.8585,1.8661,1.8642,1.8995,1.9631,1.9779,2.038,2.1309,2.1419,2.2078,2.307,2.307,2.3491,2.4151,2.419,2.419,2.419,2.419,2.419,2.4151,0.9921,0.986,0.0,0.0,0.979,0.9633,0.9788,0.9802,0.979,0.9828,0.9931,1.0276,1.0963,1.0808,1.0992,1.1802,1.1701,1.1772,1.2191,1.2336,1.2739,1.3473,1.3,1.2983,1.3534,1.2581,1.214,1.2306,1.1769,1.177,1.2263,1.276,1.3597,1.4724,1.5105,1.5859,1.6835,1.658,1.6161,1.5666,1.5875,1.5238,1.4122,1.3775,1.438,1.5523,1.6583,1.7129,1.7485,1.8224,1.8413,1.8277,1.7853,1.7178,1.6428,1.5895,1.527,1.4738,1.4563,1.5011,1.5002,1.2989,1.2484,1.1939,0.9992,0.9949,1.0612,1.1585,0.0,0.0,0.0,0.0,0.0,0.0,1.0913,1.1241,1.0686,1.1962,1.3055,1.3272,1.3812,1.4585,1.5666,1.61,1.6796,1.8003,1.7648,1.7679,1.8291,1.8091,1.7997,1.8013,1.798,1.8103,1.843,1.8391,1.845,1.8585,1.8585,1.8762,1.908,1.9522,2.0071,2.0679,2.113,2.197,2.2997,2.2997,2.3474,2.419,2.419,2.419,2.419,2.419,2.419,2.4151,0.9765,0.0,0.9957,1.0135,0.9816,0.9659,1.0021,1.0187,1.0289,1.0289,1.0547,1.1096,1.2064,1.1785,1.1925,1.2775,1.2522,1.2517,1.3026,1.307,1.354,1.4516,1.4027,1.3974,1.4561,1.3513,1.32,1.3635,1.2744,1.2813,1.3684,1.3774,1.4504,1.5791,1.6347,1.6926,1.7463,1.7372,1.6631,1.5616,1.6265,1.5911,1.4966,1.4609,1.5382,1.6758,1.7745,1.8121,1.8202,1.861,1.8753,1.8645,1.8097,1.7329,1.6554,1.6328,1.5816,1.521,1.4758,1.5559,1.595,1.3596,1.2921,1.2358,1.0527,1.0067,1.0383,1.1623,1.1869,0.0,0.0,0.0,1.1082,1.0246,0.0,1.0802,1.0161,1.1302,1.2363,1.2721,1.368,1.4794,1.6019,1.636,1.6969,1.8068,1.7718,1.7641,1.8053,1.7995,1.8001,1.808,1.798,1.8095,1.8478,1.8304,1.829,1.8489,1.8489,1.8594,1.8823,1.9509,1.9951,2.021,2.106,2.1917,2.2685,2.2923,2.3474,2.419,2.419,2.4151,2.4074,2.417,2.4151,2.4016,0.8887,0.9012,0.9269,0.9738,0.9593,0.9487,0.9684,1.0424,1.1107,1.1481,1.2116,1.2854,1.3745,1.3004,1.2957,1.4117,1.3413,1.348,1.4919,1.4897,1.5334,1.6465,1.5552,1.5031,1.4969,1.4621,1.393,1.2921,1.3794,1.393,1.3436,1.4941,1.5436,1.523,1.7226,1.7682,1.6955,1.7601,1.7228,1.6125,1.558,1.5515,1.5821,1.6328,1.6909,1.7522,1.7945,1.8592,1.9191,1.8753,1.8604,1.8425,1.7368,1.6967,1.6715,1.5896,1.5973,1.6115,1.5071,1.5243,1.5431,1.4105,1.3099,1.2265,1.1752,1.1235,1.1126,1.2084,1.2139,1.1995,1.2004,1.1569,1.0918,1.0054,0.9976,0.0,0.0,1.0723,1.1296,1.1441,1.3244,1.477,1.546,1.6007,1.6362,1.6471,1.7173,1.7487,1.7244,1.7956,1.8211,1.7816,1.8057,1.8186,1.8211,1.8207,1.8208,1.8208,1.8208,1.8589,1.9304,1.9912,2.0155,2.0173,2.1279,2.1804,2.1913,2.2685,2.3474,2.419,2.419,2.3996,2.3774,2.4074,2.3996,2.3671,0.9213,0.8984,0.8844,0.9089,0.8981,0.9138,0.9972,1.0621,1.1105,1.1442,1.1815,1.234,1.3032,1.2854,1.3083,1.4031,1.3659,1.3854,1.5027,1.5016,1.5575,1.7011,1.6441,1.6109,1.6124,1.55,1.4948,1.4501,1.4341,1.4537,1.4994,1.5072,1.5496,1.6153,1.6519,1.6973,1.7418,1.7104,1.685,1.6605,1.6014,1.6402,1.7318,1.7233,1.7631,1.8288,1.8729,1.8977,1.9051,1.8716,1.8489,1.8238,1.7689,1.7148,1.6619,1.6193,1.6386,1.6637,1.6298,1.7131,1.7864,1.6946,1.5533,1.4212,1.3507,1.2456,1.1814,1.2446,1.2095,1.174,1.2012,1.1012,1.0061,0.9861,0.9812,0.9824,0.0,1.0032,1.0341,1.0859,1.2603,1.3816,1.3895,1.4672,1.5366,1.5835,1.6657,1.7321,1.7716,1.8161,1.838,1.833,1.8061,1.8027,1.8203,1.8201,1.8187,1.8208,1.8371,1.8688,1.9089,1.9144,1.9218,1.9399,2.0099,2.0841,2.1589,2.2369,2.3129,2.3876,2.3876,2.3671,2.3414,2.3753,2.3671,2.3346,0.9248,0.8882,0.8644,0.9147,0.9299,0.9669,1.0479,1.1289,1.193,1.2252,1.2629,1.3092,1.3711,1.3457,1.35,1.4123,1.3782,1.4028,1.5213,1.5155,1.5835,1.7412,1.7027,1.6747,1.6722,1.6154,1.5794,1.5624,1.5291,1.5349,1.5818,1.5463,1.5562,1.6018,1.5992,1.6464,1.7279,1.6672,1.6648,1.6969,1.6509,1.7175,1.8418,1.8064,1.8298,1.886,1.9178,1.9166,1.8949,1.8697,1.843,1.8146,1.7883,1.7445,1.7037,1.7044,1.7387,1.7773,1.7668,1.841,1.9148,1.8772,1.7368,1.5963,1.5479,1.4557,1.3852,1.4141,1.3278,1.2626,1.3145,1.1679,1.04,1.05,1.0449,1.0409,0.0,1.0331,1.0457,1.0964,1.1911,1.2678,1.3092,1.3514,1.4169,1.5229,1.6153,1.688,1.741,1.8159,1.8498,1.833,1.8227,1.8341,1.8631,1.8888,1.893,1.8773,1.903,1.9057,1.8861,1.877,1.8931,1.929,2.0002,2.0868,2.1873,2.2729,2.3343,2.3692,2.3692,2.3414,2.3069,2.3522,2.3566,2.3369,0.9019,0.8684,0.8717,0.9799,1.0379,1.0796,1.1174,1.239,1.3383,1.3839,1.4435,1.5006,1.5551,1.4718,1.4217,1.4425,1.3802,1.4023,1.5443,1.5399,1.603,1.767,1.7296,1.6968,1.6815,1.6633,1.6421,1.6194,1.6432,1.633,1.5911,1.604,1.564,1.4828,1.5674,1.6259,1.6576,1.645,1.6747,1.7235,1.6981,1.7755,1.9007,1.8771,1.8895,1.9201,1.9256,1.9166,1.8949,1.8714,1.8463,1.8215,1.7985,1.7873,1.7929,1.8336,1.8884,1.9296,1.909,1.9046,1.913,1.9514,1.8452,1.7353,1.7531,1.7308,1.7046,1.6902,1.5494,1.4502,1.5117,1.3352,1.1819,1.1786,1.1725,1.1623,1.1479,1.1473,1.1493,1.1539,1.1159,1.148,1.2989,1.2595,1.2936,1.4588,1.5593,1.6201,1.6402,1.8,1.8592,1.7912,1.8545,1.907,1.939,2.0082,2.0193,1.9743,2.001,1.9596,1.8604,1.8843,1.9236,1.977,2.089,2.178,2.2592,2.3706,2.3958,2.3671,2.3671,2.3259,2.2797,2.3414,2.3649,2.361,0.9477,0.9453,0.9533,0.9881,0.9362,0.9579,1.1487,1.2056,1.266,1.3754,1.4597,1.4887,1.4281,1.4334,1.4203,1.3718,1.3515,1.3785,1.4733,1.5252,1.5961,1.6931,1.7395,1.7361,1.6876,1.6977,1.6747,1.6191,1.6024,1.5902,1.5806,1.5063,1.4733,1.4821,1.5287,1.5857,1.6518,1.756,1.8059,1.8078,1.7199,1.7386,1.8232,1.8303,1.8573,1.8922,1.9049,1.9035,1.9021,1.9099,1.9083,1.9078,1.9338,1.9063,1.8711,1.909,1.8917,1.869,1.9225,1.8953,1.8887,2.0394,1.9193,1.7856,1.8467,1.8329,1.7714,1.6606,1.6042,1.5482,1.4588,1.3109,1.1895,1.1493,1.1334,1.1202,1.1064,1.1102,1.1093,1.1011,1.0947,1.1212,1.2007,1.2553,1.299,1.3292,1.4463,1.5594,1.6565,1.8016,1.8968,1.9281,1.9235,1.9228,1.9321,1.9363,1.9215,1.8905,1.9183,1.9058,1.8603,1.8469,1.8911,1.981,2.0463,2.1434,2.2612,2.3221,2.3414,2.3282,2.3045,2.2996,2.3069,2.2996,2.2972,2.2972,1.0634,1.0682,1.069,1.0805,1.0177,1.0365,1.2491,1.3082,1.3716,1.4843,1.5228,1.5192,1.4633,1.4928,1.4863,1.4093,1.4089,1.4311,1.4693,1.5034,1.5596,1.6331,1.6812,1.6928,1.6605,1.6914,1.696,1.6684,1.6233,1.5948,1.5833,1.5255,1.5003,1.5044,1.5571,1.6319,1.7194,1.8022,1.8621,1.8879,1.7867,1.7963,0.0,1.8643,1.8591,1.8553,1.8624,1.8642,1.8728,1.916,1.9206,1.9224,1.9815,1.9714,1.9487,2.0073,1.9677,1.9234,2.0144,1.9569,1.9118,2.0649,1.9814,1.8737,1.9204,1.9226,1.8863,1.796,1.7293,1.6788,1.6552,1.4691,1.2972,1.2281,1.2066,1.1938,1.1876,1.1859,1.1859,1.181,1.1809,1.1967,1.2324,1.2253,1.2517,1.3311,1.4114,1.5062,1.6152,1.7661,1.8624,1.8921,1.964,1.9976,1.9822,2.0183,2.0007,1.9345,1.9362,1.9092,1.8603,1.8821,1.9386,2.0306,2.0934,2.1821,2.2873,2.3122,2.3117,2.2972,2.2772,2.2822,2.2972,2.2947,2.3021,2.3141,1.1903,1.1877,1.1903,1.2071,1.1857,1.2241,1.3909,1.4666,1.5381,1.6345,1.6184,1.5927,1.5855,1.6011,1.5783,1.4916,1.5004,1.5041,1.4874,1.4841,1.5107,1.5748,1.6122,1.627,1.6248,1.6791,1.7166,1.7386,1.6775,1.638,1.6133,1.6116,1.5863,1.5505,1.6322,1.7348,1.8435,1.8195,1.8715,1.9606,1.8622,1.8743,1.9456,1.9193,1.8682,1.8146,1.8146,1.8166,1.8326,1.913,1.9241,1.9198,2.0035,2.0247,2.0365,2.1155,2.0807,2.0355,2.1298,2.0511,1.9617,2.0701,2.0403,1.9873,2.0,2.0201,2.0285,2.0012,1.8896,1.8305,1.9381,1.6917,1.445,1.3647,1.3238,1.3033,1.3012,1.3022,1.3004,1.2979,1.2993,0.0,1.3087,1.1901,1.1923,1.3835,1.4051,1.4522,1.5468,1.7145,1.8057,1.7986,1.9985,2.0894,2.0578,2.1518,2.1363,2.0173,2.0022,1.9509,1.8723,1.954,2.0321,2.1086,2.1755,2.2498,2.3189,2.3189,2.3021,2.2772,2.2772,2.2772,2.2797,2.3093,2.3392,2.3588,1.1873,1.1981,1.2225,1.2531,1.2927,1.3875,1.5891,1.538,1.5276,1.6638,1.7174,1.7203,1.6601,1.6752,1.6394,1.5157,1.5077,1.4811,1.4129,1.4649,1.5023,1.5164,1.6248,1.6727,1.6457,1.7142,1.7568,1.7718,1.7219,1.7132,1.7371,1.6776,1.645,1.6424,1.7261,1.8624,2.0158,1.865,1.8861,2.0035,1.8456,1.8065,1.8464,1.8408,1.8153,1.7861,1.7861,1.8014,1.8374,1.9495,1.9849,2.0052,2.1465,2.1617,2.146,2.222,2.1666,2.1018,2.1785,2.0889,2.0077,2.1512,2.1263,2.087,2.1526,2.1732,2.1547,2.0854,2.0321,1.9891,1.9501,1.7146,1.5131,1.4763,1.356,1.2646,1.2542,1.2952,1.301,1.2344,1.2748,1.2921,1.2495,1.2071,1.2237,1.3193,1.3148,1.3676,1.5117,1.692,1.8255,1.8921,2.0499,2.1201,2.0922,2.1267,2.0784,1.9489,2.0312,2.0202,1.929,2.0035,2.092,2.1883,2.1733,2.227,2.3189,2.3189,2.3165,2.3117,2.3117,2.3117,2.3117,2.3165,2.3253,2.3277,1.3056,1.3381,1.3684,1.3453,1.4342,1.5464,1.674,1.6632,1.674,1.7471,1.7412,1.727,1.7214,1.7619,1.7329,1.5949,1.5958,1.5528,1.4291,1.4841,1.5213,1.5213,1.6535,1.7124,1.6812,1.7539,1.8005,1.8206,1.7549,1.7436,1.7848,1.7488,1.7309,1.7318,1.8217,1.9288,2.0366,1.907,1.9104,1.9946,1.8836,1.8296,1.8208,1.8351,1.8249,1.8065,1.8486,1.8431,1.8318,1.9158,1.9664,2.0187,2.1363,2.1935,2.2237,2.2598,2.2163,2.1693,2.218,2.1498,2.0856,2.171,2.1508,2.1205,2.1601,2.1542,2.1277,2.0753,2.0556,2.017,1.9251,1.8365,1.7355,1.6176,1.4838,1.3794,1.339,1.3374,1.3227,1.2734,1.3176,1.3337,1.2915,1.2652,1.2626,1.2924,1.3114,1.3616,1.4538,1.6391,1.7636,1.8055,2.0264,2.1043,2.0188,2.1019,2.0845,1.9661,2.0367,2.0428,1.994,2.091,2.159,2.2051,2.2133,2.2548,2.3189,2.3189,2.3189,2.3189,2.3189,2.3189,2.3189,2.3189,2.3323,2.3437,1.4711,1.515,1.531,1.4771,1.5693,1.6699,1.7349,1.7736,1.8022,1.8344,1.7704,1.7404,1.7928,1.8395,1.8182,1.6944,1.7031,1.6542,1.5093,1.5449,1.5728,1.5728,1.6888,1.7418,1.7179,1.783,1.836,1.8643,1.7945,1.7843,1.8324,1.8292,1.8263,1.8265,1.9006,1.9673,2.0192,1.9477,1.9507,1.9967,1.9339,1.8902,1.8658,1.8553,1.86,1.8745,1.9156,1.9018,1.8737,1.9115,1.9568,2.0179,2.1215,2.2108,2.2807,2.2893,2.2748,2.258,2.2797,2.2256,2.1736,2.2097,2.181,2.1493,2.1665,2.1334,2.0933,2.0883,2.082,2.0544,1.9698,1.9759,1.9301,1.73,1.6075,1.4978,1.3884,1.3907,1.379,1.3137,1.3764,1.4061,1.3513,1.3183,1.2979,1.2925,1.3278,1.3667,1.4089,1.5923,1.7006,1.7081,1.9867,2.0819,1.9745,2.1099,2.1308,2.0358,2.0837,2.0976,2.079,2.1791,2.2212,2.216,2.2536,2.2923,2.3323,2.3323,2.3323,2.33,2.3212,2.3189,2.3189,2.3189,2.3414,2.3671,1.6589,1.66,1.6491,1.656,1.6664,1.721,1.8432,1.793,1.7762,1.8868,1.8741,1.862,1.8842,1.8931,1.869,1.8002,1.7972,1.7605,1.6725,1.673,1.6753,1.6753,1.7348,1.759,1.7382,1.791,1.8383,1.8762,1.863,1.8841,1.9353,1.9292,1.9281,1.9268,1.9414,1.9786,2.0257,1.9942,2.0204,2.0696,1.9677,1.9629,2.0045,1.8728,1.9078,2.0183,1.9263,1.9527,2.0293,2.0339,2.0189,2.0314,2.2031,2.2845,2.3212,2.3535,2.3798,2.4002,2.404,2.3236,2.259,2.3315,2.2723,2.2126,2.2859,2.2259,2.1711,2.2355,2.2285,2.2102,2.199,2.0877,1.9389,1.7568,1.6497,1.5027,1.2466,1.4217,1.4958,1.2824,1.4278,1.4956,1.3774,1.3264,1.3098,1.332,1.3221,1.3427,1.407,1.5831,1.6987,1.734,1.9591,2.0801,2.0847,2.1893,2.2096,2.1475,2.2465,2.2599,2.1963,2.2419,2.2642,2.2642,2.2686,2.3069,2.3649,2.3649,2.3649,2.361,2.3323,2.3189,2.3189,2.3189,2.3414,2.3735,1.7221,1.7312,1.7287,1.7328,1.7951,1.8561,1.8989,1.8906,1.9016,1.9681,1.8795,1.8323,1.8932,1.9002,1.8759,1.8141,1.8096,1.7766,1.6945,1.7348,1.7624,1.7624,1.8298,1.8493,1.8125,1.8331,1.8541,1.8731,1.8633,1.8728,1.9024,1.8913,1.8884,1.8993,1.9308,1.9913,2.0705,2.0548,2.0798,2.1216,2.05,2.0274,2.0338,1.9757,1.9895,2.0448,2.0491,2.0628,2.0877,2.1808,2.1596,2.1118,2.2065,2.2881,2.354,2.3678,2.3783,2.3886,2.3886,2.3431,2.2989,2.3319,2.2915,2.2495,2.282,2.2453,2.2088,2.2415,2.2371,2.231,2.231,2.1799,2.0855,1.929,1.8647,1.7395,1.4674,1.5837,1.6148,1.3962,1.5124,1.564,1.4352,1.4072,1.3995,1.4052,1.3907,1.3818,1.3853,1.6376,1.7647,1.7294,2.0044,2.1279,2.0705,2.2176,2.2493,2.167,2.2717,2.2856,2.2229,2.2548,2.2695,2.2721,2.3117,2.3437,2.3714,2.3917,2.3876,2.3692,2.3544,2.35,2.35,2.35,2.3714,2.4089,1.8097,1.8266,1.8292,1.826,1.9076,1.9719,1.9703,1.9947,2.0306,2.0696,1.9652,1.8937,1.9153,1.9184,1.8992,1.8573,1.855,1.8264,1.7656,1.8151,1.8445,1.8445,1.9154,1.9324,1.8921,1.8936,1.9001,1.9041,1.8646,1.8534,1.8715,1.8597,1.8783,1.9179,1.953,2.0215,2.1172,2.1145,2.1353,2.1679,2.1125,2.0928,2.0899,2.0477,2.0611,2.1122,2.1376,2.1522,2.1737,2.2723,2.2621,2.2135,2.246,2.2946,2.3437,2.3631,2.3638,2.3559,2.3557,2.3309,2.3033,2.3049,2.2815,2.2573,2.2573,2.2453,2.231,2.231,2.231,2.231,2.231,2.231,2.1804,2.0307,2.0135,1.9141,1.6142,1.7161,1.7288,1.4896,1.5713,1.6113,1.5088,1.475,1.4664,1.4829,1.4962,1.4844,1.4418,1.6816,1.7998,1.7512,1.9937,2.1061,2.0723,2.1972,2.2458,2.2153,2.2775,2.2815,2.2426,2.2625,2.2822,2.3021,2.3482,2.3774,2.3876,2.4094,2.3996,2.3692,2.3692,2.3692,2.3728,2.3963,2.4281,2.4667,1.9525,1.9669,1.9657,1.9594,1.9965,2.0426,2.0805,2.0925,2.1208,2.1884,2.1785,2.1126,1.9736,1.9582,1.9582,1.9582,1.9582,1.9495,1.9268,1.9286,1.9305,1.9305,1.9792,1.997,1.9697,1.9761,1.9816,1.989,1.8801,1.8423,1.8712,1.872,1.926,2.0295,2.0307,2.0763,2.1595,2.1595,2.1853,2.2226,2.1492,2.1644,2.2124,2.0576,2.1122,2.2548,2.1574,2.2038,2.3106,2.2805,2.2923,2.3236,2.357,2.3236,2.2845,2.351,2.3471,2.3204,2.3206,2.2962,2.2698,2.2712,2.25,2.231,2.231,2.231,2.231,2.231,2.231,2.231,2.231,2.231,2.172,1.9994,2.0377,1.9596,1.5826,1.7778,1.8376,1.5179,1.5787,1.6352,1.5916,1.5116,1.4883,1.5623,1.6367,1.6563,1.6095,1.6989,1.7717,1.8173,1.886,1.9865,2.1175,2.1211,2.1878,2.3189,2.2855,2.2695,2.2695,2.2695,2.3069,2.3692,2.3692,2.3896,2.419,2.419,2.3996,2.3692,2.3692,2.3692,2.3801,2.4577,2.5099,2.5495,2.0462,2.0586,2.0575,2.0557,2.0915,2.1325,2.1653,2.1704,2.1895,2.2472,2.2167,2.183,2.1649,2.1041,2.0558,2.0438,2.0415,2.0107,1.9341,1.9693,1.9882,1.9847,1.9827,1.9941,2.0187,1.993,1.9822,1.9891,1.9151,1.8761,1.8676,1.844,1.8837,1.9829,2.0095,2.0734,2.1612,2.1928,2.2163,2.2293,2.204,2.209,2.226,2.1742,2.1925,2.2392,2.205,2.2348,2.2873,2.2996,2.2972,2.2972,2.3522,2.3392,2.3076,2.3285,2.3127,2.2858,2.2865,2.264,2.2434,2.2415,2.236,2.231,2.231,2.231,2.231,2.231,2.231,2.231,2.231,2.231,2.1888,2.0705,2.1256,2.0928,1.8324,1.9187,1.9317,1.7301,1.7303,1.7342,1.7022,1.6782,1.6713,1.6905,1.7446,1.7321,1.6359,1.7903,1.8923,1.9205,2.0484,2.1433,2.1953,2.2365,2.2564,2.2598,2.266,2.2695,2.2721,2.3165,2.35,2.3714,2.3937,2.4094,2.419,2.419,2.4151,2.4036,2.4036,2.4036,2.4105,2.4657,2.4883,2.5153,2.0922,2.1119,2.1228,2.124,2.1648,2.2074,2.2289,2.2485,2.2794,2.3198,2.3077,2.3064,2.3385,2.2565,2.1821,2.1395,2.1297,2.0964,2.0278,2.048,2.0588,2.055,2.0442,2.0505,2.0804,2.0435,2.0286,2.0304,1.9405,1.889,1.8752,1.8512,1.9037,2.0147,2.0387,2.099,2.1899,2.218,2.231,2.231,2.231,2.231,2.231,2.231,2.236,2.2436,2.2436,2.2704,2.3069,2.3034,2.2961,2.2947,2.3223,2.3171,2.3003,2.301,2.2797,2.2563,2.2563,2.2426,2.231,2.231,2.231,2.231,2.231,2.231,2.231,2.231,2.231,2.231,2.231,2.231,2.2102,2.1519,2.1922,2.1658,1.9747,2.0097,1.992,1.8191,1.7862,1.7732,1.7635,1.7825,1.7919,1.777,1.8609,1.8649,1.751,1.8733,1.9555,1.9773,2.0917,2.1738,2.2176,2.2432,2.2503,2.2436,2.2625,2.2822,2.3093,2.3392,2.3728,2.4104,2.4044,2.4178,2.4395,2.4261,2.419,2.419,2.419,2.4277,2.4502,2.5046,2.5374,2.5683,2.11,2.1389,2.1688,2.1664,2.2275,2.2746,2.2772,2.33,2.3762,2.4006,2.4318,2.4594,2.4775,2.4044,2.3277,2.2518,2.2223,2.1985,2.1785,2.1496,2.1342,2.1323,2.1418,2.1497,2.1548,2.1203,2.1039,2.0991,1.9671,1.8991,1.9029,1.8991,1.9728,2.1023,2.1023,2.1524,2.231,2.231,2.231,2.231,2.231,2.231,2.231,2.231,2.2463,2.2695,2.2695,2.3117,2.3588,2.294,2.2926,2.31,2.2793,2.2677,2.2678,2.2735,2.2565,2.2366,2.2321,2.231,2.2327,2.231,2.231,2.231,2.231,2.231,2.231,2.231,2.231,2.231,2.231,2.231,2.231,2.231,2.231,2.1797,2.0259,2.0573,2.021,1.8186,1.7837,1.7832,1.7992,1.8463,1.8654,1.8407,1.9842,2.0297,1.9366,1.9657,1.9877,1.9984,2.0426,2.1092,2.2013,2.1717,2.1962,2.2807,2.2885,2.3252,2.3811,2.3529,2.3939,2.4851,2.4104,2.4212,2.4879,2.4456,2.4318,2.4355,2.4335,2.4553,2.4954,2.5721,2.6274,2.6823,2.1982,2.2226,2.2443,2.2435,2.2783,2.3165,2.3414,2.3588,2.3862,2.4318,2.4442,2.4594,2.4775,2.4485,2.4188,2.3998,2.334,2.2493,2.1478,2.1726,2.1773,2.1476,2.1335,2.1538,2.2088,2.1694,2.1306,2.0991,2.0299,2.0162,2.0516,2.0128,2.0485,2.146,2.146,2.1764,2.231,2.231,2.231,2.231,2.231,2.231,2.231,2.231,2.2463,2.2695,2.2695,2.2972,2.3287,2.3122,2.297,2.2805,2.2718,2.2574,2.249,2.2947,2.3052,2.2929,2.2686,2.261,2.257,2.2344,2.231,2.231,2.231,2.231,2.231,2.231,2.231,2.231,2.231,2.231,2.231,2.231,2.231,2.1928,2.0849,2.0561,2.0138,1.9296,1.9339,1.9597,1.9981,2.0139,2.0264,2.0391,2.0588,2.061,2.0443,2.1599,2.1795,2.0789,2.1143,2.1647,2.2214,2.2133,2.2654,2.3728,2.4768,2.5225,2.5084,2.5249,2.547,2.5685,2.4869,2.5153,2.6121,2.5417,2.5474,2.6004,2.5673,2.5628,2.5739,2.5983,2.6167,2.6363,2.2466,2.2591,2.2753,2.2905,2.3226,2.35,2.3671,2.3816,2.4077,2.4461,2.4428,2.4426,2.4639,2.4478,2.4302,2.4155,2.3713,2.3141,2.2429,2.2384,2.2286,2.2063,2.1839,2.1887,2.2293,2.1823,2.1399,2.0991,2.0748,2.0764,2.0991,2.0731,2.0975,2.1582,2.1582,2.1853,2.231,2.231,2.231,2.231,2.231,2.231,2.231,2.231,2.2463,2.2695,2.2695,2.2923,2.3177,2.3008,2.2853,2.2702,2.2718,2.259,2.2562,2.3074,2.2986,2.2762,2.2563,2.2511,2.2474,2.2344,2.2564,2.2801,2.2801,2.3054,2.3308,2.3308,2.3308,2.319,2.2868,2.2801,2.2699,2.2361,2.1995,2.1496,2.0726,2.031,2.0001,1.9805,2.0091,2.0519,2.1096,2.144,2.1564,2.1386,2.1659,2.1736,2.1553,2.2671,2.2863,2.181,2.2529,2.305,2.3291,2.3494,2.4039,2.4966,2.5533,2.5779,2.5711,2.5603,2.5816,2.629,2.5486,2.5787,2.6836,2.62,2.6106,2.6299,2.608,2.6011,2.61,2.6462,2.6843,2.7341,2.272,2.2813,2.2944,2.3227,2.3545,2.3774,2.3774,2.4016,2.4247,2.4426,2.4303,2.4284,2.4445,2.4247,2.4016,2.3714,2.3566,2.3459,2.3459,2.2979,2.2643,2.2538,2.2381,2.231,2.231,2.1899,2.1538,2.1197,2.1134,2.1134,2.1197,2.1118,2.1306,2.1718,2.1718,2.1928,2.231,2.231,2.231,2.231,2.231,2.231,2.231,2.231,2.2463,2.2695,2.2695,2.293,2.3147,2.2815,2.27,2.2701,2.2659,2.2649,2.2709,2.2985,2.2716,2.2315,2.233,2.2321,2.2344,2.2434,2.2953,2.3427,2.3528,2.4066,2.4506,2.4506,2.4506,2.4255,2.3528,2.3393,2.3156,2.2429,2.1714,2.1033,2.0397,2.0219,2.0113,2.0004,2.067,2.1365,2.1934,2.2577,2.2772,2.2323,2.2985,2.3231,2.2814,2.367,2.385,2.3172,2.4017,2.4537,2.4598,2.5138,2.5694,2.6189,2.6015,2.6017,2.6179,2.5655,2.5957,2.6833,2.6065,2.6412,2.7429,2.6918,2.6554,2.6351,2.6254,2.6223,2.6346,2.6923,2.7661,2.8535,2.3098,2.3342,2.3559,2.3611,2.3891,2.4113,2.4113,2.417,2.4209,2.4247,2.4209,2.4209,2.4247,2.3958,2.3774,2.3692,2.287,2.2354,2.2354,2.2574,2.2432,2.1803,2.2118,2.231,2.231,2.2237,2.2152,2.2106,2.1705,2.1705,2.2077,2.1705,2.1764,2.218,2.218,2.2237,2.231,2.231,2.231,2.231,2.231,2.231,2.231,2.231,2.2463,2.2695,2.2695,2.2909,2.3132,2.281,2.2698,2.2642,2.2429,2.2366,2.2372,2.2432,2.2354,2.2347,2.2599,2.2463,2.2451,2.3081,2.3329,2.3562,2.4201,2.4438,2.4506,2.4506,2.4506,2.4255,2.3528,2.3393,2.3185,2.2513,2.2237,2.1692,2.0463,2.1086,2.1216,2.0056,2.1819,2.3191,2.3295,2.3924,2.4522,2.4971,2.4627,2.4475,2.468,2.5998,2.6238,2.5176,2.4715,2.4671,2.5005,2.6312,2.6874,2.6721,2.7556,2.7656,2.7121,2.7355,2.754,2.7667,2.7171,2.7616,2.8649,2.7538,2.747,2.7965,2.7338,2.71,2.7085,2.6855,2.7267,2.7964,2.3435,2.3598,2.3759,2.3948,2.4116,2.419,2.419,2.419,2.419,2.419,2.4036,2.3917,2.3917,2.3424,2.3023,2.2845,2.238,2.1927,2.1532,2.1886,2.1977,2.1612,2.2032,2.231,2.231,2.231,2.231,2.231,2.2077,2.2106,2.2282,2.2077,2.2106,2.231,2.231,2.231,2.231,2.231,2.231,2.231,2.231,2.231,2.231,2.231,2.2388,2.2473,2.2473,2.2582,2.2686,2.2538,2.2476,2.2466,2.2332,2.231,2.2395,2.2784,2.2615,2.2406,2.2931,2.2994,2.3071,2.3802,2.4275,2.4678,2.5,2.5389,2.5676,2.5676,2.5676,2.5456,2.4712,2.4255,2.3896,2.3587,2.2274,2.1305,2.1415,2.1464,2.1538,2.1554,2.3107,2.4298,2.4642,2.4971,2.5285,2.5585,2.533,2.5482,2.6213,2.6942,2.7251,2.7108,2.6811,2.7152,2.8215,2.8237,2.8488,2.8953,2.8818,2.8798,2.8864,2.9077,2.9052,2.8774,2.8389,2.8396,2.8621,2.7869,2.7682,2.7811,2.7861,2.7508,2.7108,2.8149,2.8628,2.8922,2.3777,2.3816,2.3896,2.4151,2.419,2.419,2.419,2.419,2.417,2.4094,2.3876,2.3631,2.3464,2.286,2.2399,2.2107,2.1955,2.1652,2.1181,2.143,2.1582,2.1582,2.2032,2.231,2.231,2.231,2.231,2.231,2.231,2.231,2.231,2.231,2.231,2.231,2.231,2.231,2.231,2.231,2.231,2.231,2.231,2.231,2.231,2.231,2.231,2.231,2.231,2.2332,2.2381,2.2398,2.2507,2.266,2.2677,2.2745,2.2914,2.3482,2.3245,2.2919,2.349,2.3659,2.3833,2.458,2.5306,2.5913,2.6082,2.6691,2.7215,2.7215,2.7215,2.6996,2.6268,2.5507,2.4951,2.4839,2.2905,2.1743,2.2728,2.2426,2.2385,2.3288,2.4372,2.5285,2.5794,2.5974,2.6063,2.6063,2.6191,2.6642,2.7508,2.7821,2.8355,2.9177,2.8804,2.9228,3.0484,2.9703,2.9703,3.0409,2.9703,2.9662,3.0247,3.0368,3.0177,2.9727,2.9576,2.9237,2.8775,2.8411,2.8102,2.7843,2.8368,2.8015,2.7435,2.9194,2.9807,2.9885,2.417,2.417,2.417,2.4208,2.419,2.419,2.419,2.419,2.4094,2.3774,2.3714,2.3441,2.2768,2.2346,2.2135,2.2096,2.1472,2.1213,2.1521,2.1582,2.1582,2.1582,2.2032,2.231,2.231,2.231,2.231,2.231,2.231,2.231,2.231,2.231,2.231,2.231,2.231,2.231,2.231,2.231,2.231,2.231,2.231,2.231,2.231,2.231,2.231,2.231,2.231,2.2466,2.2685,2.2678,2.3171,2.3774,2.3777,2.4024,2.4343,2.4385,2.4382,2.4337,2.4407,2.4414,2.4596,2.5346,2.6051,2.6793,2.7468,2.8264,2.8842,2.8842,2.8842,2.8586,2.7807,2.7046,2.6371,2.5905,2.5001,2.4349,2.4248,2.4689,2.4854,2.4507,2.5644,2.6467,2.6512,2.7066,2.7475,2.7475,2.7987,2.8264,2.8216,2.9414,3.053,3.1529,2.9881,2.9066,2.9236,2.9761,2.9761,2.9225,2.9821,3.0176,3.0308,3.0697,3.0603,3.0189,3.0532,3.0409,2.9929,2.9547,2.9349,2.9299,2.9055,2.8892,2.8839,2.9008,2.9502,3.0061,2.419,2.419,2.419,2.419,2.419,2.419,2.419,2.4016,2.3837,2.3714,2.3106,2.26,2.2337,2.1766,2.1428,2.1428,2.1383,2.143,2.1582,2.1869,2.2032,2.2032,2.2209,2.231,2.231,2.231,2.231,2.231,2.231,2.231,2.231,2.231,2.231,2.231,2.231,2.231,2.231,2.231,2.231,2.231,2.231,2.231,2.231,2.231,2.231,2.231,2.231,2.2371,2.2456,2.2463,2.2965,2.3573,2.3604,2.4028,2.4686,2.5601,2.6183,2.6641,2.7148,2.6588,2.593,2.6219,2.6826,2.7469,2.7722,2.8061,2.8399,2.889,2.9011,2.889,2.8602,2.759,2.6916,2.7212,2.5689,2.4728,2.5521,2.5528,2.5591,2.5794,2.6647,2.72,2.72,2.7475,2.7926,2.8756,2.8647,2.9029,3.0163,3.0386,3.1016,3.2196,3.0781,3.0374,3.119,3.1013,3.1013,3.1221,3.1339,3.1619,3.2086,3.227,3.1971,3.1279,3.0906,3.0337,2.9689,2.9334,2.9175,2.9227,2.9556,2.9397,2.9093,3.0023,3.0531,3.0852,2.419,2.419,2.417,2.4074,2.4132,2.4132,2.3917,2.3774,2.361,2.3414,2.2963,2.2581,2.2308,2.1847,2.1536,2.1536,2.156,2.1658,2.1794,2.2106,2.231,2.231,2.231,2.231,2.231,2.231,2.231,2.231,2.231,2.231,2.231,2.231,2.231,2.231,2.231,2.231,2.231,2.231,2.231,2.231,2.231,2.231,2.231,2.231,2.231,2.2344,2.2705,2.2829,2.2863,2.3179,2.3722,2.4258,2.4237,2.4669,2.537,2.6396,2.7216,2.7909,2.8469,2.8198,2.7707,2.7469,2.7807,2.8247,2.8486,2.8704,2.9025,2.9567,2.9668,2.9668,2.9668,2.8543,2.7902,2.8706,2.6825,2.5703,2.6933,2.6572,2.6393,2.6841,2.7305,2.766,2.786,2.8091,2.8587,2.9485,2.9675,3.0312,3.1606,3.1342,3.144,3.2074,3.1376,3.1394,3.2264,3.1771,3.1731,3.2146,3.2349,3.269,3.3214,3.3214,3.2757,3.1912,3.1305,3.0645,3.0038,2.9799,2.9668,2.9719,3.0243,3.0277,3.0142,3.1157,3.1681,3.1952,2.4208,2.4208,2.4094,2.3735,2.3976,2.3976,2.33,2.3477,2.3437,2.2797,2.3379,2.3568,2.2791,2.2698,2.2698,2.2698,2.2024,2.1794,2.2282,2.231,2.231,2.231,2.231,2.231,2.231,2.231,2.231,2.231,2.231,2.231,2.231,2.231,2.231,2.231,2.231,2.231,2.231,2.231,2.231,2.231,2.231,2.2327,2.2327,2.2327,2.231,2.2468,2.3611,2.3952,2.4056,2.513,2.5757,2.6105,2.6105,2.6373,2.6691,2.6708,2.7233,2.7828,2.7816,2.8952,2.9932,2.918,2.9011,2.9197,2.9932,3.0675,3.119,3.1207,3.1207,3.1207,3.1207,3.0116,2.9492,3.0284,2.8747,2.7716,2.8516,2.8023,2.764,2.764,2.764,2.7875,2.8431,2.9164,2.9563,2.9441,3.1377,3.2463,3.2324,3.233,3.1952,3.1241,3.162,3.1806,3.1806,3.1825,3.1673,3.143,3.2637,3.3214,3.3214,3.3184,3.2663,3.1789,3.1789,3.1582,3.1207,3.1207,3.1207,3.1207,3.1207,3.1647,3.229,3.229,3.2763,3.3406,2.3896,2.3837,2.3735,2.3414,2.3414,2.3414,2.3212,2.3093,2.2923,2.2721,2.2445,2.2395,2.2679,2.2238,2.2139,2.2665,2.2345,2.2135,2.2282,2.231,2.231,2.231,2.231,2.231,2.231,2.231,2.231,2.231,2.231,2.231,2.231,2.231,2.231,2.231,2.231,2.231,2.231,2.231,2.231,2.2361,2.2868,2.3059,2.3064,2.3059,2.3551,2.4247,2.4056,2.4309,2.4795,2.5098,2.5449,2.5836,2.6364,2.6605,2.6911,2.7997,2.8455,2.8878,2.9918,3.0145,2.9943,2.9194,2.9381,2.982,3.0061,3.0285,3.0726,3.1772,3.1962,3.2148,3.2662,3.205,3.1583,3.1814,3.0641,2.9701,2.9981,2.944,2.8981,2.8981,2.9392,2.977,2.9971,3.0588,3.1389,3.2289,3.3323,3.3795,3.3596,3.3257,3.3114,3.3235,3.3394,3.3491,3.3491,3.3032,3.2746,3.2673,3.3028,3.3214,3.3184,3.2533,3.2057,3.1806,3.2055,3.2077,3.2002,3.2527,3.2747,3.2747,3.2747,3.2882,3.3068,3.3068,3.3541,3.4167,2.3735,2.3817,2.3743,2.3122,2.334,2.3464,2.2935,2.2764,2.2643,2.2563,2.2423,2.2482,2.2915,2.2582,2.2482,2.2962,2.2555,2.231,2.231,2.2415,2.2463,2.2463,2.2598,2.2581,2.2463,2.2463,2.2463,2.2463,2.2463,2.2398,2.231,2.231,2.231,2.231,2.231,2.231,2.2327,2.2615,2.2581,2.2395,2.3435,2.3659,2.3418,2.3722,2.4258,2.4861,2.4878,2.5236,2.5756,2.5935,2.6004,2.6116,2.6556,2.6894,2.7317,2.8233,2.8946,2.9641,3.0501,3.0661,3.0448,2.9989,2.9989,3.0192,3.048,3.0535,3.0857,3.207,3.23,3.2536,3.3271,3.2927,3.2595,3.283,3.1614,3.0705,3.0949,3.0183,2.9672,2.9947,3.0335,3.0814,3.1292,3.1967,3.2973,3.4289,3.4465,3.4415,3.4288,3.3981,3.382,3.3825,3.4206,3.4359,3.4146,3.412,3.4011,3.3834,3.4011,3.3916,3.3557,3.2946,3.261,3.2436,3.2632,3.273,3.2763,3.322,3.3406,3.3406,3.3406,3.3592,3.3846,3.3846,3.4303,3.4979,2.3757,2.4076,2.4015,2.2937,2.3597,2.3824,2.2496,2.2605,2.2721,2.2366,2.2965,2.3451,2.3393,2.3393,2.3393,2.3393,2.2733,2.231,2.2321,2.2632,2.279,2.2746,2.3168,2.321,2.2746,2.2721,2.2695,2.2695,2.2686,2.2537,2.231,2.2378,2.2412,2.2412,2.2479,2.2513,2.2547,2.3207,2.3071,2.253,2.4003,2.4173,2.3579,2.4334,2.4666,2.487,2.5833,2.6467,2.691,2.725,2.7089,2.6793,2.6793,2.7317,2.7943,2.801,2.8994,3.0102,3.0187,3.0709,3.119,3.119,3.07,3.0378,3.1055,3.119,3.1427,3.2158,3.235,3.2611,3.3372,3.3078,3.2954,3.3521,3.2078,3.1067,3.1632,3.0647,3.0091,3.0711,3.0885,3.1418,3.2603,3.3363,3.4305,3.5611,3.5098,3.4726,3.4793,3.4726,3.4387,3.3728,3.4512,3.474,3.4332,3.519,3.5341,3.4801,3.5182,3.4924,3.4086,3.4047,3.3825,3.3406,3.3474,3.3508,3.3508,3.366,3.366,3.3609,3.3694,3.4066,3.4607,3.4675,3.5098,3.574,2.4224,2.4533,2.4503,2.346,2.3667,2.3611,2.2468,2.3293,2.3614,2.2445,2.323,2.3732,2.3422,2.3393,2.3393,2.3393,2.2733,2.2388,2.2599,2.3301,2.3528,2.3129,2.4382,2.447,2.3111,2.2848,2.2738,2.279,2.2535,2.2377,2.2327,2.2885,2.3156,2.319,2.3765,2.4002,2.4019,2.4201,2.3833,2.3291,2.4777,2.4929,2.4323,2.5086,2.5919,2.6657,2.6303,2.6999,2.801,2.776,2.764,2.7571,2.7571,2.8095,2.8839,2.9431,2.9824,3.0238,3.0789,3.1055,3.119,3.119,3.1072,3.1004,3.1157,3.119,3.141,3.2154,3.2748,3.3406,3.4134,3.4638,3.4789,3.4424,3.3581,3.2839,3.2462,3.2137,3.199,3.2152,3.3067,3.3859,3.4114,3.4764,3.5537,3.6468,3.6383,3.6535,3.7127,3.6603,3.6214,3.6062,3.6035,3.5995,3.589,3.6526,3.6113,3.4712,3.4528,3.43,3.4086,3.3704,3.349,3.344,3.4015,3.4252,3.4353,3.5554,3.569,3.5199,3.5808,3.5774,3.5453,3.6062,3.5994,3.574,2.4164,2.458,2.4827,2.4305,2.4455,2.4462,2.3944,2.4339,2.4462,2.3732,2.3687,2.3636,2.3422,2.3088,2.3021,2.3359,2.3054,2.3124,2.3786,2.4401,2.4593,2.4322,2.5258,2.533,2.4332,2.3964,2.3457,2.2755,2.2581,2.2426,2.2327,2.3054,2.3393,2.3427,2.4154,2.4506,2.4523,2.4864,2.4594,2.4036,2.5524,2.5676,2.5101,2.5845,2.6485,2.6967,2.659,2.6918,2.7724,2.8606,2.8433,2.7892,2.8264,2.889,2.96,2.9989,3.0366,3.0688,3.1111,3.119,3.1275,3.163,3.1692,3.1624,3.1292,3.1461,3.1918,3.2662,3.3415,3.4132,3.4912,3.5351,3.547,3.5144,3.4496,3.3937,3.3582,3.3287,3.3198,3.3547,3.4186,3.4885,3.5599,3.6283,3.6874,3.728,3.7313,3.7483,3.7889,3.7195,3.6941,3.7313,3.7041,3.6973,3.7124,3.7617,3.7324,3.6212,3.5544,3.5283,3.5352,3.4754,3.4455,3.4506,3.525,3.5588,3.5673,3.684,3.7077,3.6755,3.7161,3.7077,3.6772,3.7178,3.728,3.7229,2.4155,2.4798,2.5305,2.5349,2.5684,2.5852,2.5471,2.5438,2.5359,2.5023,2.4327,2.368,2.3241,2.2682,2.2649,2.3511,2.3579,2.4057,2.5188,2.5454,2.5588,2.5603,2.6072,2.6032,2.542,2.5268,2.4503,2.3093,2.3041,2.2904,2.2699,2.3427,2.3782,2.3799,2.4543,2.4896,2.4929,2.5524,2.5355,2.4797,2.615,2.6251,2.5693,2.642,2.6691,2.6691,2.6691,2.6776,2.7199,2.9228,2.9161,2.8332,2.8975,2.9685,3.0294,3.0294,3.0717,3.119,3.119,3.1297,3.1517,3.2161,3.2401,3.2343,3.1732,3.2036,3.2645,3.3271,3.3895,3.4543,3.5273,3.5431,3.5424,3.5424,3.4941,3.4576,3.4431,3.4151,3.4165,3.4725,3.4985,3.5621,3.6861,3.7533,3.7956,3.8091,3.8091,3.8142,3.8278,3.7567,3.7449,3.8075,3.774,3.77,3.7905,3.8271,3.834,3.8075,3.7134,3.6764,3.6958,3.6299,3.6011,3.6045,3.6688,3.6975,3.7043,3.7787,3.8024,3.7922,3.8041,3.8024,3.7905,3.7905,3.8447,3.9073,2.5024,2.5932,2.6439,2.6417,2.7191,2.711,2.497,2.5938,2.6357,2.4787,2.5212,2.4821,2.2688,2.2361,2.2852,2.4235,2.4371,2.4799,2.5806,2.5915,2.5941,2.5937,2.7023,2.6831,2.5125,2.5721,2.5588,2.4694,2.4394,2.4232,2.4205,2.4966,2.5304,2.5338,2.6065,2.6387,2.6404,2.6505,2.6133,2.5524,2.6353,2.6251,2.5693,2.642,2.6691,2.6691,2.6691,2.7114,2.7824,2.8805,2.9431,2.982,2.9922,3.0463,3.1055,3.1055,3.1123,3.119,3.119,3.1664,3.2168,3.2263,3.2765,3.3246,3.3128,3.3186,3.3288,3.3389,3.3512,3.3848,3.452,3.471,3.4736,3.4736,3.4688,3.4382,3.3836,3.4723,3.5432,3.5531,3.6699,3.754,3.7736,3.7838,3.8159,3.8802,3.8853,3.9123,3.9749,3.9089,3.8734,3.8853,3.8221,3.7882,3.7905,3.7984,3.8306,3.8836,3.8085,3.7746,3.7753,3.7652,3.7601,3.7601,3.7702,3.7753,3.7821,3.8548,3.8481,3.7973,3.8599,3.8464,3.7905,3.7905,3.8768,3.9834,2.4867,2.6133,2.724,2.7452,2.7759,2.7749,2.7115,2.7514,2.7565,2.6798,2.6286,2.5593,2.4499,2.4212,2.4354,2.4845,2.4644,2.5115,2.6631,2.6807,2.6801,2.6743,2.7251,2.7065,2.5965,2.6304,2.6322,2.5948,2.4761,2.4379,2.4849,2.5317,2.5802,2.6301,2.6819,2.7147,2.7317,2.6906,2.6621,2.6573,2.6656,2.6488,2.6285,2.7029,2.7317,2.7435,2.8298,2.7994,2.7503,2.9533,2.9888,2.9617,3.0446,3.0937,3.119,3.119,3.119,3.1275,3.1681,3.2059,3.2401,3.2887,3.321,3.3472,3.3526,3.3733,3.3835,3.3539,3.4464,3.5312,3.5185,3.5849,3.6463,3.6463,3.6463,3.6367,3.6042,3.6537,3.69,3.69,3.7896,3.8514,3.8514,3.8886,3.9242,3.958,3.9597,3.9732,4.0054,3.9394,3.9174,3.958,3.8886,3.87,3.9106,3.9123,3.9276,3.9597,3.9276,3.8903,3.8497,3.8091,3.7905,3.7922,3.8345,3.8514,3.8565,3.9292,3.9411,3.9157,3.9478,3.9411,3.9123,3.9123,3.9529,4.002]}]]